<?xml version="1.0" encoding="UTF-8" standalone="no" ?>
<gpx xmlns="http://www.topografix.com/GPX/1/1" xmlns:xsi="http://www.w3.org/2001/XMLSchema-instance" xsi:schemaLocation="http://www.topografix.com/GPX/1/1 http://www.topografix.com/GPX/1/1/gpx.xsd" version="1.1" creator="VisuGPX - https://www.visugpx.com">
  <metadata>
    <name>SkiRando , Vallée des Étangs du Picot</name>
    <desc><![CDATA[SkiRando , Vallée des Étangs du Picot
Départ du Barage de Soulcem 1585m.
Portage ski jusqu\'à la prise d\'eau 1650m , sentier terre et névé , beaucoup de branche cassé. Montée le long du ruisseau du Picot très raide sur neige dure avec crampons. 1er 2040m et 2eme 2163m étangs en crampons , les ressauts entre chaque étangs sont raides et la neige toujours aussi dure. Chaussage des skis au bord de l%u2019Étang du Picot 2312m. Un dernier ressaut pour arriver au 4e étang avec les couteaux aux skis. Tentative de de grimper au pic sans nom à 2648m , mais neige trop molle sur face Est très raide. Petit pause ravito à 2500m puis descente par la même vallée en restant sur le flanc Nord-Est jusqu\'à la prise d\'eau à 1650m. Descente sans difficultées notable avec quelques belles pentes , faire attention aux ponts de neige en traversant le ruisseau du Picot . Neige à descente excellente. Portage des skis de la prise d\'eau au Barage de Soulcem.
Vallée magnifique , sauvage , mais assez difficile. Le franchissement des arrêtes pour accéder à l\'Etang Fourcat n\'a pas l\'air simple et le Pic de Malcaras au fond de la vallée présente de très belles pentes.]]></desc>
  </metadata>
  <trk>
    <name><![CDATA[22-AVR-13 16:16:08]]></name>
    <trkseg>
      <trkpt lat="42.67802" lon="1.45251">
        <ele>1567.09</ele>
        <time>2013-04-22T05:51:51Z</time>
      </trkpt>
      <trkpt lat="42.67807" lon="1.45247">
        <ele>1572.37</ele>
        <time>2013-04-22T05:52:14Z</time>
      </trkpt>
      <trkpt lat="42.67806" lon="1.45249">
        <ele>1568.53</ele>
        <time>2013-04-22T05:52:59Z</time>
      </trkpt>
      <trkpt lat="42.67805" lon="1.45255">
        <ele>1573.82</ele>
        <time>2013-04-22T05:53:43Z</time>
      </trkpt>
      <trkpt lat="42.6781" lon="1.45246">
        <ele>1569.49</ele>
        <time>2013-04-22T05:54:23Z</time>
      </trkpt>
      <trkpt lat="42.67807" lon="1.45251">
        <ele>1566.12</ele>
        <time>2013-04-22T05:54:44Z</time>
      </trkpt>
      <trkpt lat="42.67805" lon="1.45256">
        <ele>1562.28</ele>
        <time>2013-04-22T05:54:59Z</time>
      </trkpt>
      <trkpt lat="42.67804" lon="1.45252">
        <ele>1563.72</ele>
        <time>2013-04-22T05:55:20Z</time>
      </trkpt>
      <trkpt lat="42.67803" lon="1.45252">
        <ele>1561.8</ele>
        <time>2013-04-22T05:55:50Z</time>
      </trkpt>
      <trkpt lat="42.678" lon="1.45257">
        <ele>1560.84</ele>
        <time>2013-04-22T05:55:57Z</time>
      </trkpt>
      <trkpt lat="42.67803" lon="1.45264">
        <ele>1560.36</ele>
        <time>2013-04-22T05:56:10Z</time>
      </trkpt>
      <trkpt lat="42.67806" lon="1.45261">
        <ele>1559.88</ele>
        <time>2013-04-22T05:56:13Z</time>
      </trkpt>
      <trkpt lat="42.67815" lon="1.45253">
        <ele>1559.4</ele>
        <time>2013-04-22T05:56:23Z</time>
      </trkpt>
      <trkpt lat="42.67818" lon="1.4525">
        <ele>1558.92</ele>
        <time>2013-04-22T05:56:26Z</time>
      </trkpt>
      <trkpt lat="42.67819" lon="1.4525">
        <ele>1558.92</ele>
        <time>2013-04-22T05:56:28Z</time>
      </trkpt>
      <trkpt lat="42.67828" lon="1.45239">
        <ele>1558.92</ele>
        <time>2013-04-22T05:56:38Z</time>
      </trkpt>
      <trkpt lat="42.67835" lon="1.45235">
        <ele>1558.43</ele>
        <time>2013-04-22T05:56:44Z</time>
      </trkpt>
      <trkpt lat="42.67848" lon="1.45234">
        <ele>1559.88</ele>
        <time>2013-04-22T05:56:57Z</time>
      </trkpt>
      <trkpt lat="42.6786" lon="1.45233">
        <ele>1560.84</ele>
        <time>2013-04-22T05:57:09Z</time>
      </trkpt>
      <trkpt lat="42.67877" lon="1.45232">
        <ele>1559.4</ele>
        <time>2013-04-22T05:57:23Z</time>
      </trkpt>
      <trkpt lat="42.67893" lon="1.45229">
        <ele>1560.36</ele>
        <time>2013-04-22T05:57:37Z</time>
      </trkpt>
      <trkpt lat="42.67909" lon="1.45226">
        <ele>1564.68</ele>
        <time>2013-04-22T05:57:51Z</time>
      </trkpt>
      <trkpt lat="42.67916" lon="1.45225">
        <ele>1567.09</ele>
        <time>2013-04-22T05:57:57Z</time>
      </trkpt>
      <trkpt lat="42.67934" lon="1.45223">
        <ele>1567.57</ele>
        <time>2013-04-22T05:58:12Z</time>
      </trkpt>
      <trkpt lat="42.67946" lon="1.4522">
        <ele>1570.45</ele>
        <time>2013-04-22T05:58:24Z</time>
      </trkpt>
      <trkpt lat="42.67953" lon="1.45217">
        <ele>1573.33</ele>
        <time>2013-04-22T05:58:37Z</time>
      </trkpt>
      <trkpt lat="42.67964" lon="1.45217">
        <ele>1576.22</ele>
        <time>2013-04-22T05:58:51Z</time>
      </trkpt>
      <trkpt lat="42.6797" lon="1.45216">
        <ele>1576.7</ele>
        <time>2013-04-22T05:59:00Z</time>
      </trkpt>
      <trkpt lat="42.67973" lon="1.45213">
        <ele>1575.74</ele>
        <time>2013-04-22T05:59:03Z</time>
      </trkpt>
      <trkpt lat="42.67981" lon="1.45213">
        <ele>1574.3</ele>
        <time>2013-04-22T05:59:13Z</time>
      </trkpt>
      <trkpt lat="42.67996" lon="1.45211">
        <ele>1573.33</ele>
        <time>2013-04-22T05:59:26Z</time>
      </trkpt>
      <trkpt lat="42.68004" lon="1.4521">
        <ele>1573.33</ele>
        <time>2013-04-22T05:59:39Z</time>
      </trkpt>
      <trkpt lat="42.68012" lon="1.45209">
        <ele>1573.33</ele>
        <time>2013-04-22T05:59:50Z</time>
      </trkpt>
      <trkpt lat="42.68019" lon="1.45205">
        <ele>1572.37</ele>
        <time>2013-04-22T06:00:02Z</time>
      </trkpt>
      <trkpt lat="42.68023" lon="1.45204">
        <ele>1571.89</ele>
        <time>2013-04-22T06:00:08Z</time>
      </trkpt>
      <trkpt lat="42.68024" lon="1.45203">
        <ele>1571.89</ele>
        <time>2013-04-22T06:00:10Z</time>
      </trkpt>
      <trkpt lat="42.68026" lon="1.45201">
        <ele>1571.89</ele>
        <time>2013-04-22T06:00:14Z</time>
      </trkpt>
      <trkpt lat="42.68029" lon="1.452">
        <ele>1571.89</ele>
        <time>2013-04-22T06:00:17Z</time>
      </trkpt>
      <trkpt lat="42.68037" lon="1.45197">
        <ele>1570.93</ele>
        <time>2013-04-22T06:00:28Z</time>
      </trkpt>
      <trkpt lat="42.6804" lon="1.45196">
        <ele>1568.53</ele>
        <time>2013-04-22T06:00:35Z</time>
      </trkpt>
      <trkpt lat="42.68041" lon="1.45197">
        <ele>1568.05</ele>
        <time>2013-04-22T06:00:37Z</time>
      </trkpt>
      <trkpt lat="42.68045" lon="1.45197">
        <ele>1566.61</ele>
        <time>2013-04-22T06:00:42Z</time>
      </trkpt>
      <trkpt lat="42.68055" lon="1.45195">
        <ele>1566.12</ele>
        <time>2013-04-22T06:00:52Z</time>
      </trkpt>
      <trkpt lat="42.68066" lon="1.45194">
        <ele>1570.45</ele>
        <time>2013-04-22T06:01:04Z</time>
      </trkpt>
      <trkpt lat="42.68069" lon="1.45192">
        <ele>1575.74</ele>
        <time>2013-04-22T06:01:17Z</time>
      </trkpt>
      <trkpt lat="42.68073" lon="1.45189">
        <ele>1578.62</ele>
        <time>2013-04-22T06:01:30Z</time>
      </trkpt>
      <trkpt lat="42.68073" lon="1.45187">
        <ele>1575.74</ele>
        <time>2013-04-22T06:01:38Z</time>
      </trkpt>
      <trkpt lat="42.68075" lon="1.45188">
        <ele>1574.3</ele>
        <time>2013-04-22T06:01:43Z</time>
      </trkpt>
      <trkpt lat="42.68081" lon="1.45185">
        <ele>1572.37</ele>
        <time>2013-04-22T06:01:49Z</time>
      </trkpt>
      <trkpt lat="42.68092" lon="1.45183">
        <ele>1571.41</ele>
        <time>2013-04-22T06:02:00Z</time>
      </trkpt>
      <trkpt lat="42.68098" lon="1.45181">
        <ele>1571.41</ele>
        <time>2013-04-22T06:02:10Z</time>
      </trkpt>
      <trkpt lat="42.68103" lon="1.45181">
        <ele>1570.45</ele>
        <time>2013-04-22T06:02:19Z</time>
      </trkpt>
      <trkpt lat="42.68108" lon="1.45178">
        <ele>1568.05</ele>
        <time>2013-04-22T06:02:29Z</time>
      </trkpt>
      <trkpt lat="42.68115" lon="1.45174">
        <ele>1568.05</ele>
        <time>2013-04-22T06:02:38Z</time>
      </trkpt>
      <trkpt lat="42.6812" lon="1.45169">
        <ele>1569.49</ele>
        <time>2013-04-22T06:02:43Z</time>
      </trkpt>
      <trkpt lat="42.68128" lon="1.45165">
        <ele>1571.41</ele>
        <time>2013-04-22T06:02:54Z</time>
      </trkpt>
      <trkpt lat="42.68131" lon="1.45162">
        <ele>1572.37</ele>
        <time>2013-04-22T06:03:05Z</time>
      </trkpt>
      <trkpt lat="42.68141" lon="1.45164">
        <ele>1572.37</ele>
        <time>2013-04-22T06:03:15Z</time>
      </trkpt>
      <trkpt lat="42.68143" lon="1.45166">
        <ele>1571.89</ele>
        <time>2013-04-22T06:03:18Z</time>
      </trkpt>
      <trkpt lat="42.68157" lon="1.4517">
        <ele>1570.93</ele>
        <time>2013-04-22T06:03:32Z</time>
      </trkpt>
      <trkpt lat="42.6817" lon="1.45175">
        <ele>1569.49</ele>
        <time>2013-04-22T06:03:45Z</time>
      </trkpt>
      <trkpt lat="42.68178" lon="1.45178">
        <ele>1569.01</ele>
        <time>2013-04-22T06:03:57Z</time>
      </trkpt>
      <trkpt lat="42.68183" lon="1.45181">
        <ele>1569.01</ele>
        <time>2013-04-22T06:04:04Z</time>
      </trkpt>
      <trkpt lat="42.68189" lon="1.45186">
        <ele>1565.16</ele>
        <time>2013-04-22T06:04:15Z</time>
      </trkpt>
      <trkpt lat="42.68196" lon="1.45186">
        <ele>1567.09</ele>
        <time>2013-04-22T06:04:27Z</time>
      </trkpt>
      <trkpt lat="42.682" lon="1.45187">
        <ele>1570.93</ele>
        <time>2013-04-22T06:04:40Z</time>
      </trkpt>
      <trkpt lat="42.68204" lon="1.45189">
        <ele>1572.37</ele>
        <time>2013-04-22T06:04:50Z</time>
      </trkpt>
      <trkpt lat="42.68215" lon="1.45192">
        <ele>1573.33</ele>
        <time>2013-04-22T06:05:04Z</time>
      </trkpt>
      <trkpt lat="42.68218" lon="1.45193">
        <ele>1574.3</ele>
        <time>2013-04-22T06:05:14Z</time>
      </trkpt>
      <trkpt lat="42.68223" lon="1.45192">
        <ele>1577.18</ele>
        <time>2013-04-22T06:05:26Z</time>
      </trkpt>
      <trkpt lat="42.68224" lon="1.4519">
        <ele>1579.58</ele>
        <time>2013-04-22T06:05:36Z</time>
      </trkpt>
      <trkpt lat="42.68232" lon="1.45191">
        <ele>1577.18</ele>
        <time>2013-04-22T06:05:47Z</time>
      </trkpt>
      <trkpt lat="42.68233" lon="1.45192">
        <ele>1576.22</ele>
        <time>2013-04-22T06:05:49Z</time>
      </trkpt>
      <trkpt lat="42.68238" lon="1.45197">
        <ele>1574.78</ele>
        <time>2013-04-22T06:06:03Z</time>
      </trkpt>
      <trkpt lat="42.6824" lon="1.45201">
        <ele>1574.3</ele>
        <time>2013-04-22T06:06:06Z</time>
      </trkpt>
      <trkpt lat="42.68243" lon="1.45203">
        <ele>1572.85</ele>
        <time>2013-04-22T06:06:09Z</time>
      </trkpt>
      <trkpt lat="42.68247" lon="1.45206">
        <ele>1570.93</ele>
        <time>2013-04-22T06:06:14Z</time>
      </trkpt>
      <trkpt lat="42.68255" lon="1.45212">
        <ele>1569.01</ele>
        <time>2013-04-22T06:06:22Z</time>
      </trkpt>
      <trkpt lat="42.6827" lon="1.45225">
        <ele>1568.53</ele>
        <time>2013-04-22T06:06:35Z</time>
      </trkpt>
      <trkpt lat="42.68271" lon="1.45225">
        <ele>1568.53</ele>
        <time>2013-04-22T06:06:36Z</time>
      </trkpt>
      <trkpt lat="42.68279" lon="1.45236">
        <ele>1567.57</ele>
        <time>2013-04-22T06:06:47Z</time>
      </trkpt>
      <trkpt lat="42.68284" lon="1.45241">
        <ele>1567.57</ele>
        <time>2013-04-22T06:06:54Z</time>
      </trkpt>
      <trkpt lat="42.68293" lon="1.45252">
        <ele>1567.09</ele>
        <time>2013-04-22T06:07:07Z</time>
      </trkpt>
      <trkpt lat="42.68296" lon="1.45256">
        <ele>1564.68</ele>
        <time>2013-04-22T06:07:20Z</time>
      </trkpt>
      <trkpt lat="42.68299" lon="1.45263">
        <ele>1563.24</ele>
        <time>2013-04-22T06:07:31Z</time>
      </trkpt>
      <trkpt lat="42.68308" lon="1.45263">
        <ele>1573.33</ele>
        <time>2013-04-22T06:07:44Z</time>
      </trkpt>
      <trkpt lat="42.68315" lon="1.45268">
        <ele>1581.51</ele>
        <time>2013-04-22T06:08:00Z</time>
      </trkpt>
      <trkpt lat="42.6832" lon="1.45275">
        <ele>1582.95</ele>
        <time>2013-04-22T06:08:13Z</time>
      </trkpt>
      <trkpt lat="42.68324" lon="1.4528">
        <ele>1583.43</ele>
        <time>2013-04-22T06:08:22Z</time>
      </trkpt>
      <trkpt lat="42.68329" lon="1.45283">
        <ele>1581.51</ele>
        <time>2013-04-22T06:08:37Z</time>
      </trkpt>
      <trkpt lat="42.68332" lon="1.45282">
        <ele>1581.99</ele>
        <time>2013-04-22T06:08:51Z</time>
      </trkpt>
      <trkpt lat="42.68336" lon="1.45283">
        <ele>1581.51</ele>
        <time>2013-04-22T06:08:58Z</time>
      </trkpt>
      <trkpt lat="42.68339" lon="1.45291">
        <ele>1580.54</ele>
        <time>2013-04-22T06:09:10Z</time>
      </trkpt>
      <trkpt lat="42.68344" lon="1.453">
        <ele>1580.54</ele>
        <time>2013-04-22T06:09:23Z</time>
      </trkpt>
      <trkpt lat="42.68349" lon="1.45308">
        <ele>1581.51</ele>
        <time>2013-04-22T06:09:37Z</time>
      </trkpt>
      <trkpt lat="42.68354" lon="1.4531">
        <ele>1581.03</ele>
        <time>2013-04-22T06:09:48Z</time>
      </trkpt>
      <trkpt lat="42.68359" lon="1.45314">
        <ele>1581.51</ele>
        <time>2013-04-22T06:09:58Z</time>
      </trkpt>
      <trkpt lat="42.68362" lon="1.45316">
        <ele>1582.95</ele>
        <time>2013-04-22T06:10:10Z</time>
      </trkpt>
      <trkpt lat="42.68361" lon="1.45312">
        <ele>1583.91</ele>
        <time>2013-04-22T06:10:24Z</time>
      </trkpt>
      <trkpt lat="42.68362" lon="1.45308">
        <ele>1585.35</ele>
        <time>2013-04-22T06:10:43Z</time>
      </trkpt>
      <trkpt lat="42.68365" lon="1.45305">
        <ele>1586.79</ele>
        <time>2013-04-22T06:11:16Z</time>
      </trkpt>
      <trkpt lat="42.68363" lon="1.4531">
        <ele>1586.79</ele>
        <time>2013-04-22T06:11:44Z</time>
      </trkpt>
      <trkpt lat="42.68364" lon="1.45313">
        <ele>1588.24</ele>
        <time>2013-04-22T06:12:00Z</time>
      </trkpt>
      <trkpt lat="42.68363" lon="1.45312">
        <ele>1590.16</ele>
        <time>2013-04-22T06:12:24Z</time>
      </trkpt>
      <trkpt lat="42.68366" lon="1.45316">
        <ele>1591.12</ele>
        <time>2013-04-22T06:12:35Z</time>
      </trkpt>
      <trkpt lat="42.68369" lon="1.45322">
        <ele>1591.12</ele>
        <time>2013-04-22T06:12:47Z</time>
      </trkpt>
      <trkpt lat="42.68371" lon="1.45325">
        <ele>1588.72</ele>
        <time>2013-04-22T06:13:00Z</time>
      </trkpt>
      <trkpt lat="42.6837" lon="1.45322">
        <ele>1586.79</ele>
        <time>2013-04-22T06:13:12Z</time>
      </trkpt>
      <trkpt lat="42.68368" lon="1.45321">
        <ele>1587.75</ele>
        <time>2013-04-22T06:13:39Z</time>
      </trkpt>
      <trkpt lat="42.68371" lon="1.45321">
        <ele>1588.24</ele>
        <time>2013-04-22T06:14:02Z</time>
      </trkpt>
      <trkpt lat="42.68369" lon="1.45323">
        <ele>1590.64</ele>
        <time>2013-04-22T06:14:22Z</time>
      </trkpt>
      <trkpt lat="42.6837" lon="1.45321">
        <ele>1592.56</ele>
        <time>2013-04-22T06:14:38Z</time>
      </trkpt>
      <trkpt lat="42.6837" lon="1.45319">
        <ele>1595.93</ele>
        <time>2013-04-22T06:15:08Z</time>
      </trkpt>
      <trkpt lat="42.6837" lon="1.4532">
        <ele>1598.81</ele>
        <time>2013-04-22T06:15:32Z</time>
      </trkpt>
      <trkpt lat="42.6837" lon="1.45322">
        <ele>1596.41</ele>
        <time>2013-04-22T06:15:51Z</time>
      </trkpt>
      <trkpt lat="42.68372" lon="1.45325">
        <ele>1596.41</ele>
        <time>2013-04-22T06:16:27Z</time>
      </trkpt>
      <trkpt lat="42.68371" lon="1.45321">
        <ele>1599.29</ele>
        <time>2013-04-22T06:16:58Z</time>
      </trkpt>
      <trkpt lat="42.68368" lon="1.45324">
        <ele>1592.08</ele>
        <time>2013-04-22T06:17:17Z</time>
      </trkpt>
      <trkpt lat="42.6837" lon="1.45324">
        <ele>1589.2</ele>
        <time>2013-04-22T06:17:53Z</time>
      </trkpt>
      <trkpt lat="42.68374" lon="1.45323">
        <ele>1595.45</ele>
        <time>2013-04-22T06:18:26Z</time>
      </trkpt>
      <trkpt lat="42.68374" lon="1.45321">
        <ele>1596.41</ele>
        <time>2013-04-22T06:19:04Z</time>
      </trkpt>
      <trkpt lat="42.68376" lon="1.4532">
        <ele>1598.33</ele>
        <time>2013-04-22T06:19:57Z</time>
      </trkpt>
      <trkpt lat="42.68373" lon="1.45322">
        <ele>1598.33</ele>
        <time>2013-04-22T06:20:51Z</time>
      </trkpt>
      <trkpt lat="42.68374" lon="1.45322">
        <ele>1598.33</ele>
        <time>2013-04-22T06:21:37Z</time>
      </trkpt>
      <trkpt lat="42.68374" lon="1.45322">
        <ele>1599.29</ele>
        <time>2013-04-22T06:22:34Z</time>
      </trkpt>
      <trkpt lat="42.68374" lon="1.4532">
        <ele>1599.77</ele>
        <time>2013-04-22T06:23:23Z</time>
      </trkpt>
      <trkpt lat="42.68375" lon="1.45321">
        <ele>1596.89</ele>
        <time>2013-04-22T06:24:11Z</time>
      </trkpt>
      <trkpt lat="42.68374" lon="1.45322">
        <ele>1599.29</ele>
        <time>2013-04-22T06:24:57Z</time>
      </trkpt>
      <trkpt lat="42.68374" lon="1.45323">
        <ele>1597.37</ele>
        <time>2013-04-22T06:25:38Z</time>
      </trkpt>
      <trkpt lat="42.68373" lon="1.45322">
        <ele>1599.29</ele>
        <time>2013-04-22T06:26:27Z</time>
      </trkpt>
      <trkpt lat="42.68374" lon="1.45322">
        <ele>1599.29</ele>
        <time>2013-04-22T06:27:19Z</time>
      </trkpt>
      <trkpt lat="42.68373" lon="1.45321">
        <ele>1596.89</ele>
        <time>2013-04-22T06:28:03Z</time>
      </trkpt>
      <trkpt lat="42.68373" lon="1.45323">
        <ele>1598.33</ele>
        <time>2013-04-22T06:28:47Z</time>
      </trkpt>
      <trkpt lat="42.68373" lon="1.45324">
        <ele>1598.33</ele>
        <time>2013-04-22T06:29:35Z</time>
      </trkpt>
      <trkpt lat="42.68371" lon="1.45323">
        <ele>1596.89</ele>
        <time>2013-04-22T06:29:48Z</time>
      </trkpt>
      <trkpt lat="42.6837" lon="1.45322">
        <ele>1593.52</ele>
        <time>2013-04-22T06:30:02Z</time>
      </trkpt>
      <trkpt lat="42.68369" lon="1.45323">
        <ele>1595.93</ele>
        <time>2013-04-22T06:30:18Z</time>
      </trkpt>
      <trkpt lat="42.68374" lon="1.45328">
        <ele>1594.96</ele>
        <time>2013-04-22T06:30:32Z</time>
      </trkpt>
      <trkpt lat="42.68379" lon="1.45341">
        <ele>1591.12</ele>
        <time>2013-04-22T06:30:46Z</time>
      </trkpt>
      <trkpt lat="42.68386" lon="1.45351">
        <ele>1590.64</ele>
        <time>2013-04-22T06:31:02Z</time>
      </trkpt>
      <trkpt lat="42.68387" lon="1.45356">
        <ele>1591.12</ele>
        <time>2013-04-22T06:31:16Z</time>
      </trkpt>
      <trkpt lat="42.6839" lon="1.45363">
        <ele>1591.6</ele>
        <time>2013-04-22T06:31:30Z</time>
      </trkpt>
      <trkpt lat="42.68395" lon="1.45368">
        <ele>1593.04</ele>
        <time>2013-04-22T06:31:43Z</time>
      </trkpt>
      <trkpt lat="42.684" lon="1.45377">
        <ele>1594.96</ele>
        <time>2013-04-22T06:31:58Z</time>
      </trkpt>
      <trkpt lat="42.68407" lon="1.45385">
        <ele>1594</ele>
        <time>2013-04-22T06:32:14Z</time>
      </trkpt>
      <trkpt lat="42.68414" lon="1.45391">
        <ele>1594.48</ele>
        <time>2013-04-22T06:32:30Z</time>
      </trkpt>
      <trkpt lat="42.68412" lon="1.4539">
        <ele>1594.48</ele>
        <time>2013-04-22T06:32:41Z</time>
      </trkpt>
      <trkpt lat="42.6841" lon="1.45388">
        <ele>1593.04</ele>
        <time>2013-04-22T06:32:54Z</time>
      </trkpt>
      <trkpt lat="42.68409" lon="1.45388">
        <ele>1592.56</ele>
        <time>2013-04-22T06:33:08Z</time>
      </trkpt>
      <trkpt lat="42.68418" lon="1.45393">
        <ele>1593.52</ele>
        <time>2013-04-22T06:33:22Z</time>
      </trkpt>
      <trkpt lat="42.68424" lon="1.45397">
        <ele>1593.52</ele>
        <time>2013-04-22T06:33:35Z</time>
      </trkpt>
      <trkpt lat="42.68423" lon="1.45399">
        <ele>1594</ele>
        <time>2013-04-22T06:33:46Z</time>
      </trkpt>
      <trkpt lat="42.68421" lon="1.45402">
        <ele>1595.93</ele>
        <time>2013-04-22T06:34:04Z</time>
      </trkpt>
      <trkpt lat="42.6842" lon="1.45401">
        <ele>1596.89</ele>
        <time>2013-04-22T06:34:23Z</time>
      </trkpt>
      <trkpt lat="42.68424" lon="1.45398">
        <ele>1596.41</ele>
        <time>2013-04-22T06:34:45Z</time>
      </trkpt>
      <trkpt lat="42.68426" lon="1.45398">
        <ele>1597.85</ele>
        <time>2013-04-22T06:35:05Z</time>
      </trkpt>
      <trkpt lat="42.68427" lon="1.454">
        <ele>1598.33</ele>
        <time>2013-04-22T06:35:28Z</time>
      </trkpt>
      <trkpt lat="42.68423" lon="1.45401">
        <ele>1599.29</ele>
        <time>2013-04-22T06:35:49Z</time>
      </trkpt>
      <trkpt lat="42.68416" lon="1.45403">
        <ele>1596.41</ele>
        <time>2013-04-22T06:36:06Z</time>
      </trkpt>
      <trkpt lat="42.68421" lon="1.45401">
        <ele>1596.41</ele>
        <time>2013-04-22T06:36:29Z</time>
      </trkpt>
      <trkpt lat="42.68419" lon="1.45401">
        <ele>1597.37</ele>
        <time>2013-04-22T06:36:47Z</time>
      </trkpt>
      <trkpt lat="42.68424" lon="1.45405">
        <ele>1595.45</ele>
        <time>2013-04-22T06:36:58Z</time>
      </trkpt>
      <trkpt lat="42.68429" lon="1.45416">
        <ele>1594</ele>
        <time>2013-04-22T06:37:10Z</time>
      </trkpt>
      <trkpt lat="42.68429" lon="1.45418">
        <ele>1593.52</ele>
        <time>2013-04-22T06:37:11Z</time>
      </trkpt>
      <trkpt lat="42.68437" lon="1.4543">
        <ele>1590.64</ele>
        <time>2013-04-22T06:37:23Z</time>
      </trkpt>
      <trkpt lat="42.68437" lon="1.4543">
        <ele>1590.16</ele>
        <time>2013-04-22T06:37:24Z</time>
      </trkpt>
      <trkpt lat="42.68442" lon="1.45442">
        <ele>1590.64</ele>
        <time>2013-04-22T06:37:37Z</time>
      </trkpt>
      <trkpt lat="42.68444" lon="1.45445">
        <ele>1589.68</ele>
        <time>2013-04-22T06:37:41Z</time>
      </trkpt>
      <trkpt lat="42.68452" lon="1.45454">
        <ele>1590.64</ele>
        <time>2013-04-22T06:37:53Z</time>
      </trkpt>
      <trkpt lat="42.68458" lon="1.45464">
        <ele>1589.68</ele>
        <time>2013-04-22T06:38:04Z</time>
      </trkpt>
      <trkpt lat="42.68466" lon="1.45478">
        <ele>1591.12</ele>
        <time>2013-04-22T06:38:17Z</time>
      </trkpt>
      <trkpt lat="42.68472" lon="1.45486">
        <ele>1591.12</ele>
        <time>2013-04-22T06:38:28Z</time>
      </trkpt>
      <trkpt lat="42.68474" lon="1.4549">
        <ele>1592.08</ele>
        <time>2013-04-22T06:38:31Z</time>
      </trkpt>
      <trkpt lat="42.68483" lon="1.45501">
        <ele>1593.04</ele>
        <time>2013-04-22T06:38:42Z</time>
      </trkpt>
      <trkpt lat="42.68495" lon="1.45513">
        <ele>1597.37</ele>
        <time>2013-04-22T06:38:57Z</time>
      </trkpt>
      <trkpt lat="42.68496" lon="1.45514">
        <ele>1602.66</ele>
        <time>2013-04-22T06:39:11Z</time>
      </trkpt>
      <trkpt lat="42.68504" lon="1.4552">
        <ele>1604.1</ele>
        <time>2013-04-22T06:39:24Z</time>
      </trkpt>
      <trkpt lat="42.68511" lon="1.45524">
        <ele>1603.62</ele>
        <time>2013-04-22T06:39:35Z</time>
      </trkpt>
      <trkpt lat="42.68514" lon="1.45529">
        <ele>1603.62</ele>
        <time>2013-04-22T06:39:41Z</time>
      </trkpt>
      <trkpt lat="42.68516" lon="1.4553">
        <ele>1603.62</ele>
        <time>2013-04-22T06:39:43Z</time>
      </trkpt>
      <trkpt lat="42.68522" lon="1.45544">
        <ele>1602.66</ele>
        <time>2013-04-22T06:39:56Z</time>
      </trkpt>
      <trkpt lat="42.68526" lon="1.45554">
        <ele>1601.21</ele>
        <time>2013-04-22T06:40:05Z</time>
      </trkpt>
      <trkpt lat="42.68533" lon="1.45571">
        <ele>1599.29</ele>
        <time>2013-04-22T06:40:18Z</time>
      </trkpt>
      <trkpt lat="42.68533" lon="1.45576">
        <ele>1598.81</ele>
        <time>2013-04-22T06:40:22Z</time>
      </trkpt>
      <trkpt lat="42.68534" lon="1.45581">
        <ele>1598.33</ele>
        <time>2013-04-22T06:40:25Z</time>
      </trkpt>
      <trkpt lat="42.68535" lon="1.45588">
        <ele>1597.37</ele>
        <time>2013-04-22T06:40:31Z</time>
      </trkpt>
      <trkpt lat="42.68537" lon="1.45596">
        <ele>1596.41</ele>
        <time>2013-04-22T06:40:37Z</time>
      </trkpt>
      <trkpt lat="42.68539" lon="1.45609">
        <ele>1595.45</ele>
        <time>2013-04-22T06:40:47Z</time>
      </trkpt>
      <trkpt lat="42.68542" lon="1.45614">
        <ele>1594</ele>
        <time>2013-04-22T06:40:53Z</time>
      </trkpt>
      <trkpt lat="42.68549" lon="1.45625">
        <ele>1593.04</ele>
        <time>2013-04-22T06:41:05Z</time>
      </trkpt>
      <trkpt lat="42.6855" lon="1.45629">
        <ele>1594</ele>
        <time>2013-04-22T06:41:08Z</time>
      </trkpt>
      <trkpt lat="42.68552" lon="1.45633">
        <ele>1594</ele>
        <time>2013-04-22T06:41:11Z</time>
      </trkpt>
      <trkpt lat="42.68557" lon="1.45651">
        <ele>1594.48</ele>
        <time>2013-04-22T06:41:22Z</time>
      </trkpt>
      <trkpt lat="42.68559" lon="1.45656">
        <ele>1594</ele>
        <time>2013-04-22T06:41:26Z</time>
      </trkpt>
      <trkpt lat="42.6856" lon="1.45659">
        <ele>1594</ele>
        <time>2013-04-22T06:41:28Z</time>
      </trkpt>
      <trkpt lat="42.68566" lon="1.45671">
        <ele>1594.48</ele>
        <time>2013-04-22T06:41:40Z</time>
      </trkpt>
      <trkpt lat="42.68573" lon="1.45679">
        <ele>1596.89</ele>
        <time>2013-04-22T06:41:52Z</time>
      </trkpt>
      <trkpt lat="42.68577" lon="1.45682">
        <ele>1597.37</ele>
        <time>2013-04-22T06:41:57Z</time>
      </trkpt>
      <trkpt lat="42.6858" lon="1.45684">
        <ele>1597.37</ele>
        <time>2013-04-22T06:42:01Z</time>
      </trkpt>
      <trkpt lat="42.68581" lon="1.45688">
        <ele>1597.37</ele>
        <time>2013-04-22T06:42:06Z</time>
      </trkpt>
      <trkpt lat="42.6859" lon="1.457">
        <ele>1598.81</ele>
        <time>2013-04-22T06:42:20Z</time>
      </trkpt>
      <trkpt lat="42.68596" lon="1.45703">
        <ele>1599.29</ele>
        <time>2013-04-22T06:42:32Z</time>
      </trkpt>
      <trkpt lat="42.68604" lon="1.45713">
        <ele>1599.77</ele>
        <time>2013-04-22T06:42:45Z</time>
      </trkpt>
      <trkpt lat="42.68611" lon="1.45725">
        <ele>1598.81</ele>
        <time>2013-04-22T06:42:59Z</time>
      </trkpt>
      <trkpt lat="42.68619" lon="1.45736">
        <ele>1597.85</ele>
        <time>2013-04-22T06:43:12Z</time>
      </trkpt>
      <trkpt lat="42.68622" lon="1.45741">
        <ele>1596.89</ele>
        <time>2013-04-22T06:43:17Z</time>
      </trkpt>
      <trkpt lat="42.68626" lon="1.45753">
        <ele>1596.41</ele>
        <time>2013-04-22T06:43:29Z</time>
      </trkpt>
      <trkpt lat="42.68628" lon="1.45759">
        <ele>1597.85</ele>
        <time>2013-04-22T06:43:41Z</time>
      </trkpt>
      <trkpt lat="42.68632" lon="1.45764">
        <ele>1597.37</ele>
        <time>2013-04-22T06:43:55Z</time>
      </trkpt>
      <trkpt lat="42.68632" lon="1.45768">
        <ele>1596.41</ele>
        <time>2013-04-22T06:44:09Z</time>
      </trkpt>
      <trkpt lat="42.68634" lon="1.45772">
        <ele>1598.81</ele>
        <time>2013-04-22T06:44:22Z</time>
      </trkpt>
      <trkpt lat="42.68633" lon="1.45773">
        <ele>1598.81</ele>
        <time>2013-04-22T06:44:23Z</time>
      </trkpt>
      <trkpt lat="42.68637" lon="1.45777">
        <ele>1600.25</ele>
        <time>2013-04-22T06:44:36Z</time>
      </trkpt>
      <trkpt lat="42.68638" lon="1.45783">
        <ele>1601.69</ele>
        <time>2013-04-22T06:44:48Z</time>
      </trkpt>
      <trkpt lat="42.68641" lon="1.45786">
        <ele>1603.62</ele>
        <time>2013-04-22T06:45:01Z</time>
      </trkpt>
      <trkpt lat="42.68645" lon="1.45792">
        <ele>1607.94</ele>
        <time>2013-04-22T06:45:12Z</time>
      </trkpt>
      <trkpt lat="42.68645" lon="1.45801">
        <ele>1606.98</ele>
        <time>2013-04-22T06:45:24Z</time>
      </trkpt>
      <trkpt lat="42.68643" lon="1.45802">
        <ele>1607.46</ele>
        <time>2013-04-22T06:45:35Z</time>
      </trkpt>
      <trkpt lat="42.6864" lon="1.45804">
        <ele>1610.83</ele>
        <time>2013-04-22T06:45:48Z</time>
      </trkpt>
      <trkpt lat="42.6864" lon="1.4581">
        <ele>1610.35</ele>
        <time>2013-04-22T06:45:58Z</time>
      </trkpt>
      <trkpt lat="42.6864" lon="1.45817">
        <ele>1609.86</ele>
        <time>2013-04-22T06:46:08Z</time>
      </trkpt>
      <trkpt lat="42.68641" lon="1.45824">
        <ele>1610.35</ele>
        <time>2013-04-22T06:46:19Z</time>
      </trkpt>
      <trkpt lat="42.68636" lon="1.45827">
        <ele>1613.71</ele>
        <time>2013-04-22T06:46:31Z</time>
      </trkpt>
      <trkpt lat="42.68636" lon="1.45831">
        <ele>1613.71</ele>
        <time>2013-04-22T06:46:43Z</time>
      </trkpt>
      <trkpt lat="42.68638" lon="1.45835">
        <ele>1614.19</ele>
        <time>2013-04-22T06:46:56Z</time>
      </trkpt>
      <trkpt lat="42.68636" lon="1.45839">
        <ele>1616.11</ele>
        <time>2013-04-22T06:47:12Z</time>
      </trkpt>
      <trkpt lat="42.68633" lon="1.45844">
        <ele>1619.96</ele>
        <time>2013-04-22T06:47:26Z</time>
      </trkpt>
      <trkpt lat="42.68631" lon="1.45846">
        <ele>1621.4</ele>
        <time>2013-04-22T06:47:41Z</time>
      </trkpt>
      <trkpt lat="42.68635" lon="1.45849">
        <ele>1621.4</ele>
        <time>2013-04-22T06:47:51Z</time>
      </trkpt>
      <trkpt lat="42.68637" lon="1.45856">
        <ele>1622.84</ele>
        <time>2013-04-22T06:48:05Z</time>
      </trkpt>
      <trkpt lat="42.68642" lon="1.45865">
        <ele>1622.84</ele>
        <time>2013-04-22T06:48:19Z</time>
      </trkpt>
      <trkpt lat="42.68645" lon="1.45869">
        <ele>1627.17</ele>
        <time>2013-04-22T06:48:31Z</time>
      </trkpt>
      <trkpt lat="42.68644" lon="1.45876">
        <ele>1631.01</ele>
        <time>2013-04-22T06:48:42Z</time>
      </trkpt>
      <trkpt lat="42.68643" lon="1.45881">
        <ele>1635.34</ele>
        <time>2013-04-22T06:48:56Z</time>
      </trkpt>
      <trkpt lat="42.6864" lon="1.45886">
        <ele>1637.26</ele>
        <time>2013-04-22T06:49:08Z</time>
      </trkpt>
      <trkpt lat="42.68639" lon="1.45894">
        <ele>1637.26</ele>
        <time>2013-04-22T06:49:21Z</time>
      </trkpt>
      <trkpt lat="42.68638" lon="1.45899">
        <ele>1638.7</ele>
        <time>2013-04-22T06:49:32Z</time>
      </trkpt>
      <trkpt lat="42.68636" lon="1.45901">
        <ele>1642.55</ele>
        <time>2013-04-22T06:49:46Z</time>
      </trkpt>
      <trkpt lat="42.68633" lon="1.45906">
        <ele>1644.47</ele>
        <time>2013-04-22T06:49:57Z</time>
      </trkpt>
      <trkpt lat="42.68632" lon="1.45908">
        <ele>1646.88</ele>
        <time>2013-04-22T06:50:06Z</time>
      </trkpt>
      <trkpt lat="42.68631" lon="1.45913">
        <ele>1648.8</ele>
        <time>2013-04-22T06:50:16Z</time>
      </trkpt>
      <trkpt lat="42.68628" lon="1.45919">
        <ele>1649.76</ele>
        <time>2013-04-22T06:50:28Z</time>
      </trkpt>
      <trkpt lat="42.68628" lon="1.45924">
        <ele>1651.68</ele>
        <time>2013-04-22T06:50:38Z</time>
      </trkpt>
      <trkpt lat="42.68629" lon="1.45929">
        <ele>1654.09</ele>
        <time>2013-04-22T06:50:47Z</time>
      </trkpt>
      <trkpt lat="42.68629" lon="1.45935">
        <ele>1657.45</ele>
        <time>2013-04-22T06:50:58Z</time>
      </trkpt>
      <trkpt lat="42.68626" lon="1.4594">
        <ele>1659.85</ele>
        <time>2013-04-22T06:51:12Z</time>
      </trkpt>
      <trkpt lat="42.68623" lon="1.45943">
        <ele>1661.78</ele>
        <time>2013-04-22T06:51:24Z</time>
      </trkpt>
      <trkpt lat="42.6862" lon="1.45945">
        <ele>1663.22</ele>
        <time>2013-04-22T06:51:36Z</time>
      </trkpt>
      <trkpt lat="42.68619" lon="1.45947">
        <ele>1666.58</ele>
        <time>2013-04-22T06:51:50Z</time>
      </trkpt>
      <trkpt lat="42.6862" lon="1.45952">
        <ele>1665.62</ele>
        <time>2013-04-22T06:52:01Z</time>
      </trkpt>
      <trkpt lat="42.68623" lon="1.45952">
        <ele>1664.66</ele>
        <time>2013-04-22T06:52:12Z</time>
      </trkpt>
      <trkpt lat="42.68621" lon="1.45954">
        <ele>1663.7</ele>
        <time>2013-04-22T06:52:26Z</time>
      </trkpt>
      <trkpt lat="42.68619" lon="1.45956">
        <ele>1667.06</ele>
        <time>2013-04-22T06:52:40Z</time>
      </trkpt>
      <trkpt lat="42.68623" lon="1.45957">
        <ele>1666.58</ele>
        <time>2013-04-22T06:53:00Z</time>
      </trkpt>
      <trkpt lat="42.68622" lon="1.45954">
        <ele>1668.51</ele>
        <time>2013-04-22T06:53:18Z</time>
      </trkpt>
      <trkpt lat="42.68617" lon="1.45955">
        <ele>1668.99</ele>
        <time>2013-04-22T06:53:38Z</time>
      </trkpt>
      <trkpt lat="42.68616" lon="1.45956">
        <ele>1669.95</ele>
        <time>2013-04-22T06:53:51Z</time>
      </trkpt>
      <trkpt lat="42.68617" lon="1.45961">
        <ele>1673.79</ele>
        <time>2013-04-22T06:54:04Z</time>
      </trkpt>
      <trkpt lat="42.68616" lon="1.45965">
        <ele>1674.75</ele>
        <time>2013-04-22T06:54:16Z</time>
      </trkpt>
      <trkpt lat="42.68613" lon="1.45968">
        <ele>1676.2</ele>
        <time>2013-04-22T06:54:28Z</time>
      </trkpt>
      <trkpt lat="42.6861" lon="1.45969">
        <ele>1677.64</ele>
        <time>2013-04-22T06:54:37Z</time>
      </trkpt>
      <trkpt lat="42.68607" lon="1.45972">
        <ele>1678.6</ele>
        <time>2013-04-22T06:54:48Z</time>
      </trkpt>
      <trkpt lat="42.68607" lon="1.45978">
        <ele>1682.44</ele>
        <time>2013-04-22T06:54:58Z</time>
      </trkpt>
      <trkpt lat="42.68607" lon="1.45985">
        <ele>1684.85</ele>
        <time>2013-04-22T06:55:09Z</time>
      </trkpt>
      <trkpt lat="42.68606" lon="1.4599">
        <ele>1685.81</ele>
        <time>2013-04-22T06:55:21Z</time>
      </trkpt>
      <trkpt lat="42.68602" lon="1.45992">
        <ele>1687.25</ele>
        <time>2013-04-22T06:55:32Z</time>
      </trkpt>
      <trkpt lat="42.68602" lon="1.45998">
        <ele>1688.69</ele>
        <time>2013-04-22T06:55:44Z</time>
      </trkpt>
      <trkpt lat="42.68599" lon="1.46004">
        <ele>1692.06</ele>
        <time>2013-04-22T06:55:58Z</time>
      </trkpt>
      <trkpt lat="42.68599" lon="1.46006">
        <ele>1693.98</ele>
        <time>2013-04-22T06:56:11Z</time>
      </trkpt>
      <trkpt lat="42.686" lon="1.46006">
        <ele>1694.46</ele>
        <time>2013-04-22T06:56:30Z</time>
      </trkpt>
      <trkpt lat="42.68599" lon="1.46007">
        <ele>1694.94</ele>
        <time>2013-04-22T06:56:48Z</time>
      </trkpt>
      <trkpt lat="42.686" lon="1.46005">
        <ele>1694.46</ele>
        <time>2013-04-22T06:57:08Z</time>
      </trkpt>
      <trkpt lat="42.686" lon="1.46006">
        <ele>1692.54</ele>
        <time>2013-04-22T06:57:24Z</time>
      </trkpt>
      <trkpt lat="42.68601" lon="1.46005">
        <ele>1695.42</ele>
        <time>2013-04-22T06:57:50Z</time>
      </trkpt>
      <trkpt lat="42.686" lon="1.46005">
        <ele>1694.94</ele>
        <time>2013-04-22T06:58:14Z</time>
      </trkpt>
      <trkpt lat="42.68599" lon="1.46004">
        <ele>1692.54</ele>
        <time>2013-04-22T06:58:33Z</time>
      </trkpt>
      <trkpt lat="42.686" lon="1.46004">
        <ele>1696.86</ele>
        <time>2013-04-22T06:58:53Z</time>
      </trkpt>
      <trkpt lat="42.68601" lon="1.46006">
        <ele>1697.34</ele>
        <time>2013-04-22T06:59:20Z</time>
      </trkpt>
      <trkpt lat="42.68601" lon="1.46008">
        <ele>1698.31</ele>
        <time>2013-04-22T06:59:42Z</time>
      </trkpt>
      <trkpt lat="42.68598" lon="1.46009">
        <ele>1693.98</ele>
        <time>2013-04-22T06:59:59Z</time>
      </trkpt>
      <trkpt lat="42.68595" lon="1.46009">
        <ele>1696.38</ele>
        <time>2013-04-22T07:00:11Z</time>
      </trkpt>
      <trkpt lat="42.6859" lon="1.4601">
        <ele>1698.79</ele>
        <time>2013-04-22T07:00:23Z</time>
      </trkpt>
      <trkpt lat="42.68587" lon="1.46012">
        <ele>1700.71</ele>
        <time>2013-04-22T07:00:34Z</time>
      </trkpt>
      <trkpt lat="42.68586" lon="1.46016">
        <ele>1704.55</ele>
        <time>2013-04-22T07:00:45Z</time>
      </trkpt>
      <trkpt lat="42.68583" lon="1.46018">
        <ele>1706</ele>
        <time>2013-04-22T07:00:55Z</time>
      </trkpt>
      <trkpt lat="42.6858" lon="1.46019">
        <ele>1708.88</ele>
        <time>2013-04-22T07:01:10Z</time>
      </trkpt>
      <trkpt lat="42.68578" lon="1.46022">
        <ele>1710.8</ele>
        <time>2013-04-22T07:01:23Z</time>
      </trkpt>
      <trkpt lat="42.68577" lon="1.46027">
        <ele>1713.69</ele>
        <time>2013-04-22T07:01:36Z</time>
      </trkpt>
      <trkpt lat="42.68576" lon="1.46028">
        <ele>1717.05</ele>
        <time>2013-04-22T07:01:47Z</time>
      </trkpt>
      <trkpt lat="42.68574" lon="1.4603">
        <ele>1718.97</ele>
        <time>2013-04-22T07:01:59Z</time>
      </trkpt>
      <trkpt lat="42.68571" lon="1.46033">
        <ele>1721.86</ele>
        <time>2013-04-22T07:02:12Z</time>
      </trkpt>
      <trkpt lat="42.68569" lon="1.46038">
        <ele>1720.9</ele>
        <time>2013-04-22T07:02:23Z</time>
      </trkpt>
      <trkpt lat="42.68569" lon="1.46042">
        <ele>1721.38</ele>
        <time>2013-04-22T07:02:36Z</time>
      </trkpt>
      <trkpt lat="42.6857" lon="1.4605">
        <ele>1724.26</ele>
        <time>2013-04-22T07:02:49Z</time>
      </trkpt>
      <trkpt lat="42.68567" lon="1.46051">
        <ele>1725.7</ele>
        <time>2013-04-22T07:03:00Z</time>
      </trkpt>
      <trkpt lat="42.68568" lon="1.46058">
        <ele>1727.63</ele>
        <time>2013-04-22T07:03:12Z</time>
      </trkpt>
      <trkpt lat="42.68568" lon="1.46067">
        <ele>1732.91</ele>
        <time>2013-04-22T07:03:26Z</time>
      </trkpt>
      <trkpt lat="42.68568" lon="1.4607">
        <ele>1734.36</ele>
        <time>2013-04-22T07:03:35Z</time>
      </trkpt>
      <trkpt lat="42.68568" lon="1.46078">
        <ele>1736.28</ele>
        <time>2013-04-22T07:03:48Z</time>
      </trkpt>
      <trkpt lat="42.68569" lon="1.46082">
        <ele>1736.28</ele>
        <time>2013-04-22T07:03:59Z</time>
      </trkpt>
      <trkpt lat="42.68568" lon="1.4609">
        <ele>1736.76</ele>
        <time>2013-04-22T07:04:12Z</time>
      </trkpt>
      <trkpt lat="42.68569" lon="1.46093">
        <ele>1736.28</ele>
        <time>2013-04-22T07:04:24Z</time>
      </trkpt>
      <trkpt lat="42.68564" lon="1.46095">
        <ele>1738.68</ele>
        <time>2013-04-22T07:04:40Z</time>
      </trkpt>
      <trkpt lat="42.68567" lon="1.46101">
        <ele>1740.12</ele>
        <time>2013-04-22T07:04:56Z</time>
      </trkpt>
      <trkpt lat="42.68564" lon="1.46104">
        <ele>1741.57</ele>
        <time>2013-04-22T07:05:11Z</time>
      </trkpt>
      <trkpt lat="42.68564" lon="1.46108">
        <ele>1742.05</ele>
        <time>2013-04-22T07:05:22Z</time>
      </trkpt>
      <trkpt lat="42.68565" lon="1.46112">
        <ele>1743.01</ele>
        <time>2013-04-22T07:05:33Z</time>
      </trkpt>
      <trkpt lat="42.68563" lon="1.46114">
        <ele>1744.93</ele>
        <time>2013-04-22T07:05:45Z</time>
      </trkpt>
      <trkpt lat="42.68565" lon="1.46119">
        <ele>1748.29</ele>
        <time>2013-04-22T07:05:58Z</time>
      </trkpt>
      <trkpt lat="42.68566" lon="1.46124">
        <ele>1750.7</ele>
        <time>2013-04-22T07:06:11Z</time>
      </trkpt>
      <trkpt lat="42.68566" lon="1.46126">
        <ele>1753.58</ele>
        <time>2013-04-22T07:06:30Z</time>
      </trkpt>
      <trkpt lat="42.68563" lon="1.4613">
        <ele>1755.5</ele>
        <time>2013-04-22T07:06:44Z</time>
      </trkpt>
      <trkpt lat="42.68564" lon="1.46134">
        <ele>1758.87</ele>
        <time>2013-04-22T07:06:55Z</time>
      </trkpt>
      <trkpt lat="42.6856" lon="1.46134">
        <ele>1759.83</ele>
        <time>2013-04-22T07:07:10Z</time>
      </trkpt>
      <trkpt lat="42.68557" lon="1.46138">
        <ele>1759.83</ele>
        <time>2013-04-22T07:07:25Z</time>
      </trkpt>
      <trkpt lat="42.68557" lon="1.46142">
        <ele>1757.91</ele>
        <time>2013-04-22T07:07:40Z</time>
      </trkpt>
      <trkpt lat="42.68555" lon="1.46144">
        <ele>1757.91</ele>
        <time>2013-04-22T07:07:56Z</time>
      </trkpt>
      <trkpt lat="42.68552" lon="1.46146">
        <ele>1760.31</ele>
        <time>2013-04-22T07:08:11Z</time>
      </trkpt>
      <trkpt lat="42.68552" lon="1.46149">
        <ele>1762.71</ele>
        <time>2013-04-22T07:08:23Z</time>
      </trkpt>
      <trkpt lat="42.6855" lon="1.46154">
        <ele>1765.12</ele>
        <time>2013-04-22T07:08:40Z</time>
      </trkpt>
      <trkpt lat="42.68549" lon="1.4616">
        <ele>1767.52</ele>
        <time>2013-04-22T07:08:55Z</time>
      </trkpt>
      <trkpt lat="42.68546" lon="1.46161">
        <ele>1768.48</ele>
        <time>2013-04-22T07:09:09Z</time>
      </trkpt>
      <trkpt lat="42.68544" lon="1.46166">
        <ele>1770.41</ele>
        <time>2013-04-22T07:09:22Z</time>
      </trkpt>
      <trkpt lat="42.68542" lon="1.46167">
        <ele>1772.81</ele>
        <time>2013-04-22T07:09:35Z</time>
      </trkpt>
      <trkpt lat="42.6854" lon="1.46172">
        <ele>1774.25</ele>
        <time>2013-04-22T07:09:50Z</time>
      </trkpt>
      <trkpt lat="42.68539" lon="1.46176">
        <ele>1775.69</ele>
        <time>2013-04-22T07:10:05Z</time>
      </trkpt>
      <trkpt lat="42.68538" lon="1.46179">
        <ele>1780.02</ele>
        <time>2013-04-22T07:10:18Z</time>
      </trkpt>
      <trkpt lat="42.68537" lon="1.46182">
        <ele>1780.98</ele>
        <time>2013-04-22T07:10:33Z</time>
      </trkpt>
      <trkpt lat="42.68535" lon="1.4619">
        <ele>1782.9</ele>
        <time>2013-04-22T07:10:49Z</time>
      </trkpt>
      <trkpt lat="42.68533" lon="1.46192">
        <ele>1785.79</ele>
        <time>2013-04-22T07:11:03Z</time>
      </trkpt>
      <trkpt lat="42.6853" lon="1.46196">
        <ele>1787.71</ele>
        <time>2013-04-22T07:11:19Z</time>
      </trkpt>
      <trkpt lat="42.68528" lon="1.46197">
        <ele>1788.19</ele>
        <time>2013-04-22T07:11:34Z</time>
      </trkpt>
      <trkpt lat="42.68528" lon="1.46197">
        <ele>1787.71</ele>
        <time>2013-04-22T07:11:55Z</time>
      </trkpt>
      <trkpt lat="42.68527" lon="1.46199">
        <ele>1789.15</ele>
        <time>2013-04-22T07:12:12Z</time>
      </trkpt>
      <trkpt lat="42.68526" lon="1.46205">
        <ele>1791.55</ele>
        <time>2013-04-22T07:12:29Z</time>
      </trkpt>
      <trkpt lat="42.68526" lon="1.46209">
        <ele>1795.88</ele>
        <time>2013-04-22T07:12:45Z</time>
      </trkpt>
      <trkpt lat="42.68524" lon="1.46213">
        <ele>1794.92</ele>
        <time>2013-04-22T07:12:59Z</time>
      </trkpt>
      <trkpt lat="42.68522" lon="1.46217">
        <ele>1796.36</ele>
        <time>2013-04-22T07:13:12Z</time>
      </trkpt>
      <trkpt lat="42.68522" lon="1.4622">
        <ele>1797.8</ele>
        <time>2013-04-22T07:13:25Z</time>
      </trkpt>
      <trkpt lat="42.6852" lon="1.46224">
        <ele>1798.28</ele>
        <time>2013-04-22T07:13:40Z</time>
      </trkpt>
      <trkpt lat="42.68519" lon="1.46226">
        <ele>1798.76</ele>
        <time>2013-04-22T07:13:53Z</time>
      </trkpt>
      <trkpt lat="42.68519" lon="1.46231">
        <ele>1802.13</ele>
        <time>2013-04-22T07:14:09Z</time>
      </trkpt>
      <trkpt lat="42.68519" lon="1.46235">
        <ele>1805.01</ele>
        <time>2013-04-22T07:14:23Z</time>
      </trkpt>
      <trkpt lat="42.68517" lon="1.46237">
        <ele>1806.45</ele>
        <time>2013-04-22T07:14:37Z</time>
      </trkpt>
      <trkpt lat="42.68517" lon="1.46239">
        <ele>1807.42</ele>
        <time>2013-04-22T07:14:48Z</time>
      </trkpt>
      <trkpt lat="42.68513" lon="1.46242">
        <ele>1808.86</ele>
        <time>2013-04-22T07:15:02Z</time>
      </trkpt>
      <trkpt lat="42.68512" lon="1.46246">
        <ele>1810.78</ele>
        <time>2013-04-22T07:15:16Z</time>
      </trkpt>
      <trkpt lat="42.6851" lon="1.46247">
        <ele>1813.18</ele>
        <time>2013-04-22T07:15:34Z</time>
      </trkpt>
      <trkpt lat="42.68511" lon="1.46247">
        <ele>1816.07</ele>
        <time>2013-04-22T07:15:55Z</time>
      </trkpt>
      <trkpt lat="42.68509" lon="1.46247">
        <ele>1818.95</ele>
        <time>2013-04-22T07:16:11Z</time>
      </trkpt>
      <trkpt lat="42.68508" lon="1.46249">
        <ele>1820.39</ele>
        <time>2013-04-22T07:16:28Z</time>
      </trkpt>
      <trkpt lat="42.68506" lon="1.46249">
        <ele>1822.32</ele>
        <time>2013-04-22T07:16:42Z</time>
      </trkpt>
      <trkpt lat="42.68505" lon="1.46252">
        <ele>1821.84</ele>
        <time>2013-04-22T07:16:57Z</time>
      </trkpt>
      <trkpt lat="42.68504" lon="1.46253">
        <ele>1823.76</ele>
        <time>2013-04-22T07:17:13Z</time>
      </trkpt>
      <trkpt lat="42.68504" lon="1.46258">
        <ele>1824.72</ele>
        <time>2013-04-22T07:17:24Z</time>
      </trkpt>
      <trkpt lat="42.68503" lon="1.46259">
        <ele>1822.8</ele>
        <time>2013-04-22T07:17:39Z</time>
      </trkpt>
      <trkpt lat="42.68502" lon="1.46261">
        <ele>1822.8</ele>
        <time>2013-04-22T07:17:54Z</time>
      </trkpt>
      <trkpt lat="42.68501" lon="1.46262">
        <ele>1825.2</ele>
        <time>2013-04-22T07:18:09Z</time>
      </trkpt>
      <trkpt lat="42.68502" lon="1.46266">
        <ele>1827.12</ele>
        <time>2013-04-22T07:18:19Z</time>
      </trkpt>
      <trkpt lat="42.68502" lon="1.4627">
        <ele>1828.08</ele>
        <time>2013-04-22T07:18:30Z</time>
      </trkpt>
      <trkpt lat="42.68503" lon="1.4627">
        <ele>1830.49</ele>
        <time>2013-04-22T07:18:44Z</time>
      </trkpt>
      <trkpt lat="42.68501" lon="1.46275">
        <ele>1825.2</ele>
        <time>2013-04-22T07:18:57Z</time>
      </trkpt>
      <trkpt lat="42.68503" lon="1.46274">
        <ele>1830.49</ele>
        <time>2013-04-22T07:19:08Z</time>
      </trkpt>
      <trkpt lat="42.685" lon="1.46278">
        <ele>1834.33</ele>
        <time>2013-04-22T07:19:24Z</time>
      </trkpt>
      <trkpt lat="42.685" lon="1.4628">
        <ele>1835.29</ele>
        <time>2013-04-22T07:19:36Z</time>
      </trkpt>
      <trkpt lat="42.68499" lon="1.46281">
        <ele>1835.29</ele>
        <time>2013-04-22T07:19:39Z</time>
      </trkpt>
      <trkpt lat="42.68499" lon="1.46287">
        <ele>1838.66</ele>
        <time>2013-04-22T07:19:51Z</time>
      </trkpt>
      <trkpt lat="42.68498" lon="1.46289">
        <ele>1841.54</ele>
        <time>2013-04-22T07:20:02Z</time>
      </trkpt>
      <trkpt lat="42.68497" lon="1.46288">
        <ele>1841.54</ele>
        <time>2013-04-22T07:20:15Z</time>
      </trkpt>
      <trkpt lat="42.68495" lon="1.4629">
        <ele>1842.5</ele>
        <time>2013-04-22T07:20:31Z</time>
      </trkpt>
      <trkpt lat="42.68494" lon="1.4629">
        <ele>1842.98</ele>
        <time>2013-04-22T07:20:47Z</time>
      </trkpt>
      <trkpt lat="42.68496" lon="1.46293">
        <ele>1842.02</ele>
        <time>2013-04-22T07:21:00Z</time>
      </trkpt>
      <trkpt lat="42.68495" lon="1.46293">
        <ele>1844.43</ele>
        <time>2013-04-22T07:21:15Z</time>
      </trkpt>
      <trkpt lat="42.68493" lon="1.46292">
        <ele>1846.35</ele>
        <time>2013-04-22T07:21:28Z</time>
      </trkpt>
      <trkpt lat="42.68492" lon="1.46294">
        <ele>1848.27</ele>
        <time>2013-04-22T07:21:44Z</time>
      </trkpt>
      <trkpt lat="42.6849" lon="1.46293">
        <ele>1850.68</ele>
        <time>2013-04-22T07:21:58Z</time>
      </trkpt>
      <trkpt lat="42.68488" lon="1.46296">
        <ele>1851.64</ele>
        <time>2013-04-22T07:22:13Z</time>
      </trkpt>
      <trkpt lat="42.68485" lon="1.46297">
        <ele>1853.08</ele>
        <time>2013-04-22T07:22:25Z</time>
      </trkpt>
      <trkpt lat="42.68483" lon="1.46304">
        <ele>1854.04</ele>
        <time>2013-04-22T07:22:42Z</time>
      </trkpt>
      <trkpt lat="42.68482" lon="1.46303">
        <ele>1856.92</ele>
        <time>2013-04-22T07:22:54Z</time>
      </trkpt>
      <trkpt lat="42.6848" lon="1.46307">
        <ele>1859.81</ele>
        <time>2013-04-22T07:23:06Z</time>
      </trkpt>
      <trkpt lat="42.68484" lon="1.46315">
        <ele>1863.17</ele>
        <time>2013-04-22T07:23:19Z</time>
      </trkpt>
      <trkpt lat="42.68482" lon="1.46317">
        <ele>1865.58</ele>
        <time>2013-04-22T07:23:34Z</time>
      </trkpt>
      <trkpt lat="42.68482" lon="1.46323">
        <ele>1869.42</ele>
        <time>2013-04-22T07:23:46Z</time>
      </trkpt>
      <trkpt lat="42.68475" lon="1.46324">
        <ele>1866.06</ele>
        <time>2013-04-22T07:23:59Z</time>
      </trkpt>
      <trkpt lat="42.68475" lon="1.46322">
        <ele>1867.02</ele>
        <time>2013-04-22T07:24:19Z</time>
      </trkpt>
      <trkpt lat="42.68475" lon="1.46324">
        <ele>1865.09</ele>
        <time>2013-04-22T07:24:50Z</time>
      </trkpt>
      <trkpt lat="42.68474" lon="1.46325">
        <ele>1864.13</ele>
        <time>2013-04-22T07:25:15Z</time>
      </trkpt>
      <trkpt lat="42.68475" lon="1.46322">
        <ele>1867.98</ele>
        <time>2013-04-22T07:25:49Z</time>
      </trkpt>
      <trkpt lat="42.68477" lon="1.46323">
        <ele>1866.06</ele>
        <time>2013-04-22T07:26:17Z</time>
      </trkpt>
      <trkpt lat="42.68479" lon="1.46326">
        <ele>1868.46</ele>
        <time>2013-04-22T07:26:38Z</time>
      </trkpt>
      <trkpt lat="42.68478" lon="1.46329">
        <ele>1865.58</ele>
        <time>2013-04-22T07:26:50Z</time>
      </trkpt>
      <trkpt lat="42.68474" lon="1.46333">
        <ele>1864.61</ele>
        <time>2013-04-22T07:27:01Z</time>
      </trkpt>
      <trkpt lat="42.68472" lon="1.46339">
        <ele>1865.09</ele>
        <time>2013-04-22T07:27:13Z</time>
      </trkpt>
      <trkpt lat="42.68472" lon="1.46342">
        <ele>1866.54</ele>
        <time>2013-04-22T07:27:23Z</time>
      </trkpt>
      <trkpt lat="42.68471" lon="1.46345">
        <ele>1868.46</ele>
        <time>2013-04-22T07:27:32Z</time>
      </trkpt>
      <trkpt lat="42.68472" lon="1.46351">
        <ele>1870.86</ele>
        <time>2013-04-22T07:27:45Z</time>
      </trkpt>
      <trkpt lat="42.68466" lon="1.46353">
        <ele>1868.94</ele>
        <time>2013-04-22T07:28:02Z</time>
      </trkpt>
      <trkpt lat="42.68467" lon="1.46366">
        <ele>1871.82</ele>
        <time>2013-04-22T07:28:18Z</time>
      </trkpt>
      <trkpt lat="42.68465" lon="1.46371">
        <ele>1874.23</ele>
        <time>2013-04-22T07:28:32Z</time>
      </trkpt>
      <trkpt lat="42.68463" lon="1.46377">
        <ele>1877.59</ele>
        <time>2013-04-22T07:28:44Z</time>
      </trkpt>
      <trkpt lat="42.68459" lon="1.46383">
        <ele>1878.07</ele>
        <time>2013-04-22T07:28:59Z</time>
      </trkpt>
      <trkpt lat="42.68463" lon="1.46392">
        <ele>1880.96</ele>
        <time>2013-04-22T07:29:14Z</time>
      </trkpt>
      <trkpt lat="42.6846" lon="1.46396">
        <ele>1883.84</ele>
        <time>2013-04-22T07:29:25Z</time>
      </trkpt>
      <trkpt lat="42.68455" lon="1.464">
        <ele>1883.84</ele>
        <time>2013-04-22T07:29:40Z</time>
      </trkpt>
      <trkpt lat="42.68452" lon="1.46404">
        <ele>1885.28</ele>
        <time>2013-04-22T07:29:56Z</time>
      </trkpt>
      <trkpt lat="42.68449" lon="1.46409">
        <ele>1884.8</ele>
        <time>2013-04-22T07:30:09Z</time>
      </trkpt>
      <trkpt lat="42.68448" lon="1.46418">
        <ele>1884.8</ele>
        <time>2013-04-22T07:30:24Z</time>
      </trkpt>
      <trkpt lat="42.68443" lon="1.46419">
        <ele>1889.13</ele>
        <time>2013-04-22T07:30:41Z</time>
      </trkpt>
      <trkpt lat="42.68444" lon="1.46425">
        <ele>1890.57</ele>
        <time>2013-04-22T07:30:55Z</time>
      </trkpt>
      <trkpt lat="42.68446" lon="1.46434">
        <ele>1892.49</ele>
        <time>2013-04-22T07:31:07Z</time>
      </trkpt>
      <trkpt lat="42.68451" lon="1.4644">
        <ele>1896.34</ele>
        <time>2013-04-22T07:31:23Z</time>
      </trkpt>
      <trkpt lat="42.68448" lon="1.46445">
        <ele>1896.34</ele>
        <time>2013-04-22T07:31:35Z</time>
      </trkpt>
      <trkpt lat="42.68449" lon="1.46454">
        <ele>1899.22</ele>
        <time>2013-04-22T07:31:48Z</time>
      </trkpt>
      <trkpt lat="42.68448" lon="1.4646">
        <ele>1901.14</ele>
        <time>2013-04-22T07:32:02Z</time>
      </trkpt>
      <trkpt lat="42.68444" lon="1.46469">
        <ele>1904.03</ele>
        <time>2013-04-22T07:32:17Z</time>
      </trkpt>
      <trkpt lat="42.68444" lon="1.4648">
        <ele>1906.43</ele>
        <time>2013-04-22T07:32:31Z</time>
      </trkpt>
      <trkpt lat="42.6844" lon="1.46485">
        <ele>1906.91</ele>
        <time>2013-04-22T07:32:42Z</time>
      </trkpt>
      <trkpt lat="42.6844" lon="1.46494">
        <ele>1909.32</ele>
        <time>2013-04-22T07:32:55Z</time>
      </trkpt>
      <trkpt lat="42.6844" lon="1.46504">
        <ele>1911.72</ele>
        <time>2013-04-22T07:33:07Z</time>
      </trkpt>
      <trkpt lat="42.68438" lon="1.46511">
        <ele>1912.68</ele>
        <time>2013-04-22T07:33:20Z</time>
      </trkpt>
      <trkpt lat="42.68436" lon="1.46511">
        <ele>1914.12</ele>
        <time>2013-04-22T07:33:30Z</time>
      </trkpt>
      <trkpt lat="42.68439" lon="1.4651">
        <ele>1914.6</ele>
        <time>2013-04-22T07:33:52Z</time>
      </trkpt>
      <trkpt lat="42.68435" lon="1.46514">
        <ele>1914.6</ele>
        <time>2013-04-22T07:34:08Z</time>
      </trkpt>
      <trkpt lat="42.68432" lon="1.46515">
        <ele>1915.08</ele>
        <time>2013-04-22T07:34:23Z</time>
      </trkpt>
      <trkpt lat="42.68438" lon="1.46518">
        <ele>1915.08</ele>
        <time>2013-04-22T07:34:45Z</time>
      </trkpt>
      <trkpt lat="42.68433" lon="1.4651">
        <ele>1914.6</ele>
        <time>2013-04-22T07:35:01Z</time>
      </trkpt>
      <trkpt lat="42.68434" lon="1.46508">
        <ele>1915.08</ele>
        <time>2013-04-22T07:35:23Z</time>
      </trkpt>
      <trkpt lat="42.68434" lon="1.46507">
        <ele>1915.08</ele>
        <time>2013-04-22T07:35:38Z</time>
      </trkpt>
      <trkpt lat="42.68432" lon="1.46505">
        <ele>1915.56</ele>
        <time>2013-04-22T07:36:02Z</time>
      </trkpt>
      <trkpt lat="42.68437" lon="1.46509">
        <ele>1917.97</ele>
        <time>2013-04-22T07:36:22Z</time>
      </trkpt>
      <trkpt lat="42.68434" lon="1.46508">
        <ele>1915.56</ele>
        <time>2013-04-22T07:36:41Z</time>
      </trkpt>
      <trkpt lat="42.68437" lon="1.4651">
        <ele>1916.53</ele>
        <time>2013-04-22T07:36:59Z</time>
      </trkpt>
      <trkpt lat="42.68434" lon="1.4651">
        <ele>1914.12</ele>
        <time>2013-04-22T07:37:09Z</time>
      </trkpt>
      <trkpt lat="42.68436" lon="1.4652">
        <ele>1916.53</ele>
        <time>2013-04-22T07:37:19Z</time>
      </trkpt>
      <trkpt lat="42.68439" lon="1.46532">
        <ele>1917.97</ele>
        <time>2013-04-22T07:37:34Z</time>
      </trkpt>
      <trkpt lat="42.68439" lon="1.46542">
        <ele>1918.93</ele>
        <time>2013-04-22T07:37:46Z</time>
      </trkpt>
      <trkpt lat="42.68439" lon="1.46551">
        <ele>1920.85</ele>
        <time>2013-04-22T07:37:58Z</time>
      </trkpt>
      <trkpt lat="42.68441" lon="1.46555">
        <ele>1921.81</ele>
        <time>2013-04-22T07:38:10Z</time>
      </trkpt>
      <trkpt lat="42.68446" lon="1.46564">
        <ele>1923.74</ele>
        <time>2013-04-22T07:38:24Z</time>
      </trkpt>
      <trkpt lat="42.68448" lon="1.46573">
        <ele>1924.7</ele>
        <time>2013-04-22T07:38:35Z</time>
      </trkpt>
      <trkpt lat="42.68448" lon="1.46579">
        <ele>1927.58</ele>
        <time>2013-04-22T07:38:48Z</time>
      </trkpt>
      <trkpt lat="42.68448" lon="1.46579">
        <ele>1927.58</ele>
        <time>2013-04-22T07:38:50Z</time>
      </trkpt>
      <trkpt lat="42.6845" lon="1.46586">
        <ele>1930.46</ele>
        <time>2013-04-22T07:39:00Z</time>
      </trkpt>
      <trkpt lat="42.68451" lon="1.46598">
        <ele>1931.91</ele>
        <time>2013-04-22T07:39:14Z</time>
      </trkpt>
      <trkpt lat="42.68452" lon="1.46602">
        <ele>1935.27</ele>
        <time>2013-04-22T07:39:27Z</time>
      </trkpt>
      <trkpt lat="42.68455" lon="1.46607">
        <ele>1936.23</ele>
        <time>2013-04-22T07:39:40Z</time>
      </trkpt>
      <trkpt lat="42.68457" lon="1.46619">
        <ele>1941.04</ele>
        <time>2013-04-22T07:39:55Z</time>
      </trkpt>
      <trkpt lat="42.68461" lon="1.46625">
        <ele>1942.96</ele>
        <time>2013-04-22T07:40:09Z</time>
      </trkpt>
      <trkpt lat="42.68462" lon="1.46632">
        <ele>1943.92</ele>
        <time>2013-04-22T07:40:21Z</time>
      </trkpt>
      <trkpt lat="42.68464" lon="1.46636">
        <ele>1947.29</ele>
        <time>2013-04-22T07:40:35Z</time>
      </trkpt>
      <trkpt lat="42.68463" lon="1.46637">
        <ele>1946.81</ele>
        <time>2013-04-22T07:40:49Z</time>
      </trkpt>
      <trkpt lat="42.68462" lon="1.46641">
        <ele>1947.77</ele>
        <time>2013-04-22T07:41:06Z</time>
      </trkpt>
      <trkpt lat="42.68461" lon="1.46642">
        <ele>1949.69</ele>
        <time>2013-04-22T07:41:22Z</time>
      </trkpt>
      <trkpt lat="42.68464" lon="1.46645">
        <ele>1949.69</ele>
        <time>2013-04-22T07:41:33Z</time>
      </trkpt>
      <trkpt lat="42.68467" lon="1.46649">
        <ele>1949.69</ele>
        <time>2013-04-22T07:41:47Z</time>
      </trkpt>
      <trkpt lat="42.68469" lon="1.46651">
        <ele>1950.65</ele>
        <time>2013-04-22T07:41:58Z</time>
      </trkpt>
      <trkpt lat="42.68473" lon="1.46656">
        <ele>1953.06</ele>
        <time>2013-04-22T07:42:10Z</time>
      </trkpt>
      <trkpt lat="42.68475" lon="1.4666">
        <ele>1954.98</ele>
        <time>2013-04-22T07:42:20Z</time>
      </trkpt>
      <trkpt lat="42.68477" lon="1.46664">
        <ele>1955.94</ele>
        <time>2013-04-22T07:42:34Z</time>
      </trkpt>
      <trkpt lat="42.68477" lon="1.46667">
        <ele>1958.82</ele>
        <time>2013-04-22T07:42:49Z</time>
      </trkpt>
      <trkpt lat="42.68478" lon="1.46666">
        <ele>1959.78</ele>
        <time>2013-04-22T07:43:01Z</time>
      </trkpt>
      <trkpt lat="42.68479" lon="1.4667">
        <ele>1962.67</ele>
        <time>2013-04-22T07:43:17Z</time>
      </trkpt>
      <trkpt lat="42.68481" lon="1.46677">
        <ele>1964.59</ele>
        <time>2013-04-22T07:43:30Z</time>
      </trkpt>
      <trkpt lat="42.68485" lon="1.46681">
        <ele>1966.99</ele>
        <time>2013-04-22T07:43:43Z</time>
      </trkpt>
      <trkpt lat="42.68485" lon="1.4668">
        <ele>1967.96</ele>
        <time>2013-04-22T07:43:52Z</time>
      </trkpt>
      <trkpt lat="42.68485" lon="1.46679">
        <ele>1967.96</ele>
        <time>2013-04-22T07:44:03Z</time>
      </trkpt>
      <trkpt lat="42.68484" lon="1.46679">
        <ele>1967.96</ele>
        <time>2013-04-22T07:44:14Z</time>
      </trkpt>
      <trkpt lat="42.68485" lon="1.46679">
        <ele>1967.96</ele>
        <time>2013-04-22T07:44:36Z</time>
      </trkpt>
      <trkpt lat="42.68483" lon="1.46679">
        <ele>1967.96</ele>
        <time>2013-04-22T07:44:54Z</time>
      </trkpt>
      <trkpt lat="42.68484" lon="1.46678">
        <ele>1967.96</ele>
        <time>2013-04-22T07:45:09Z</time>
      </trkpt>
      <trkpt lat="42.68487" lon="1.46675">
        <ele>1967.96</ele>
        <time>2013-04-22T07:45:25Z</time>
      </trkpt>
      <trkpt lat="42.68485" lon="1.46683">
        <ele>1967.96</ele>
        <time>2013-04-22T07:45:41Z</time>
      </trkpt>
      <trkpt lat="42.68482" lon="1.46692">
        <ele>1967.48</ele>
        <time>2013-04-22T07:45:54Z</time>
      </trkpt>
      <trkpt lat="42.68484" lon="1.467">
        <ele>1967.96</ele>
        <time>2013-04-22T07:46:08Z</time>
      </trkpt>
      <trkpt lat="42.68481" lon="1.46705">
        <ele>1967.96</ele>
        <time>2013-04-22T07:46:20Z</time>
      </trkpt>
      <trkpt lat="42.68486" lon="1.46713">
        <ele>1976.13</ele>
        <time>2013-04-22T07:46:34Z</time>
      </trkpt>
      <trkpt lat="42.68484" lon="1.46719">
        <ele>1980.45</ele>
        <time>2013-04-22T07:46:46Z</time>
      </trkpt>
      <trkpt lat="42.68483" lon="1.46725">
        <ele>1983.82</ele>
        <time>2013-04-22T07:46:59Z</time>
      </trkpt>
      <trkpt lat="42.6848" lon="1.46728">
        <ele>1986.7</ele>
        <time>2013-04-22T07:47:15Z</time>
      </trkpt>
      <trkpt lat="42.68482" lon="1.4673">
        <ele>1991.03</ele>
        <time>2013-04-22T07:47:26Z</time>
      </trkpt>
      <trkpt lat="42.68483" lon="1.46735">
        <ele>1992.95</ele>
        <time>2013-04-22T07:47:39Z</time>
      </trkpt>
      <trkpt lat="42.68482" lon="1.46739">
        <ele>1994.87</ele>
        <time>2013-04-22T07:47:52Z</time>
      </trkpt>
      <trkpt lat="42.68481" lon="1.46749">
        <ele>1995.35</ele>
        <time>2013-04-22T07:48:07Z</time>
      </trkpt>
      <trkpt lat="42.68482" lon="1.46748">
        <ele>1997.76</ele>
        <time>2013-04-22T07:48:18Z</time>
      </trkpt>
      <trkpt lat="42.68482" lon="1.46753">
        <ele>2004.97</ele>
        <time>2013-04-22T07:48:31Z</time>
      </trkpt>
      <trkpt lat="42.68482" lon="1.46761">
        <ele>2008.33</ele>
        <time>2013-04-22T07:48:47Z</time>
      </trkpt>
      <trkpt lat="42.6848" lon="1.46767">
        <ele>2008.33</ele>
        <time>2013-04-22T07:49:01Z</time>
      </trkpt>
      <trkpt lat="42.68482" lon="1.46768">
        <ele>2009.77</ele>
        <time>2013-04-22T07:49:16Z</time>
      </trkpt>
      <trkpt lat="42.68482" lon="1.46774">
        <ele>2012.18</ele>
        <time>2013-04-22T07:49:32Z</time>
      </trkpt>
      <trkpt lat="42.68482" lon="1.46778">
        <ele>2017.94</ele>
        <time>2013-04-22T07:49:47Z</time>
      </trkpt>
      <trkpt lat="42.68481" lon="1.46781">
        <ele>2021.79</ele>
        <time>2013-04-22T07:49:59Z</time>
      </trkpt>
      <trkpt lat="42.68483" lon="1.46789">
        <ele>2023.71</ele>
        <time>2013-04-22T07:50:15Z</time>
      </trkpt>
      <trkpt lat="42.68483" lon="1.46796">
        <ele>2027.08</ele>
        <time>2013-04-22T07:50:31Z</time>
      </trkpt>
      <trkpt lat="42.68483" lon="1.46802">
        <ele>2025.15</ele>
        <time>2013-04-22T07:50:48Z</time>
      </trkpt>
      <trkpt lat="42.68482" lon="1.46805">
        <ele>2026.6</ele>
        <time>2013-04-22T07:51:01Z</time>
      </trkpt>
      <trkpt lat="42.68482" lon="1.46808">
        <ele>2029</ele>
        <time>2013-04-22T07:51:13Z</time>
      </trkpt>
      <trkpt lat="42.68484" lon="1.46809">
        <ele>2031.4</ele>
        <time>2013-04-22T07:51:29Z</time>
      </trkpt>
      <trkpt lat="42.68484" lon="1.46812">
        <ele>2031.88</ele>
        <time>2013-04-22T07:51:40Z</time>
      </trkpt>
      <trkpt lat="42.68485" lon="1.46814">
        <ele>2033.33</ele>
        <time>2013-04-22T07:51:57Z</time>
      </trkpt>
      <trkpt lat="42.68484" lon="1.46826">
        <ele>2034.29</ele>
        <time>2013-04-22T07:52:27Z</time>
      </trkpt>
      <trkpt lat="42.68481" lon="1.46827">
        <ele>2036.21</ele>
        <time>2013-04-22T07:52:50Z</time>
      </trkpt>
      <trkpt lat="42.68483" lon="1.46824">
        <ele>2034.29</ele>
        <time>2013-04-22T07:53:05Z</time>
      </trkpt>
      <trkpt lat="42.68485" lon="1.46817">
        <ele>2032.36</ele>
        <time>2013-04-22T07:53:27Z</time>
      </trkpt>
      <trkpt lat="42.68486" lon="1.46814">
        <ele>2027.56</ele>
        <time>2013-04-22T07:53:41Z</time>
      </trkpt>
      <trkpt lat="42.68488" lon="1.46816">
        <ele>2024.19</ele>
        <time>2013-04-22T07:53:55Z</time>
      </trkpt>
      <trkpt lat="42.68486" lon="1.46812">
        <ele>2024.67</ele>
        <time>2013-04-22T07:54:32Z</time>
      </trkpt>
      <trkpt lat="42.68486" lon="1.46812">
        <ele>2024.19</ele>
        <time>2013-04-22T07:54:58Z</time>
      </trkpt>
      <trkpt lat="42.68485" lon="1.46815">
        <ele>2028.04</ele>
        <time>2013-04-22T07:55:30Z</time>
      </trkpt>
      <trkpt lat="42.68486" lon="1.46811">
        <ele>2027.56</ele>
        <time>2013-04-22T07:56:02Z</time>
      </trkpt>
      <trkpt lat="42.68485" lon="1.46811">
        <ele>2028.04</ele>
        <time>2013-04-22T07:56:28Z</time>
      </trkpt>
      <trkpt lat="42.68485" lon="1.46812">
        <ele>2028.04</ele>
        <time>2013-04-22T07:56:41Z</time>
      </trkpt>
      <trkpt lat="42.68487" lon="1.46812">
        <ele>2026.6</ele>
        <time>2013-04-22T07:57:20Z</time>
      </trkpt>
      <trkpt lat="42.68484" lon="1.46817">
        <ele>2033.81</ele>
        <time>2013-04-22T07:57:53Z</time>
      </trkpt>
      <trkpt lat="42.68484" lon="1.46817">
        <ele>2032.84</ele>
        <time>2013-04-22T07:58:26Z</time>
      </trkpt>
      <trkpt lat="42.68485" lon="1.46813">
        <ele>2033.81</ele>
        <time>2013-04-22T07:58:50Z</time>
      </trkpt>
      <trkpt lat="42.68483" lon="1.46813">
        <ele>2031.88</ele>
        <time>2013-04-22T07:59:07Z</time>
      </trkpt>
      <trkpt lat="42.6848" lon="1.46815">
        <ele>2032.36</ele>
        <time>2013-04-22T07:59:22Z</time>
      </trkpt>
      <trkpt lat="42.68473" lon="1.46818">
        <ele>2031.88</ele>
        <time>2013-04-22T07:59:36Z</time>
      </trkpt>
      <trkpt lat="42.68468" lon="1.4682">
        <ele>2033.33</ele>
        <time>2013-04-22T07:59:49Z</time>
      </trkpt>
      <trkpt lat="42.68463" lon="1.46821">
        <ele>2034.77</ele>
        <time>2013-04-22T08:00:08Z</time>
      </trkpt>
      <trkpt lat="42.6846" lon="1.46825">
        <ele>2036.69</ele>
        <time>2013-04-22T08:00:23Z</time>
      </trkpt>
      <trkpt lat="42.68455" lon="1.46826">
        <ele>2040.05</ele>
        <time>2013-04-22T08:00:38Z</time>
      </trkpt>
      <trkpt lat="42.68449" lon="1.46827">
        <ele>2042.94</ele>
        <time>2013-04-22T08:00:51Z</time>
      </trkpt>
      <trkpt lat="42.68444" lon="1.46829">
        <ele>2044.38</ele>
        <time>2013-04-22T08:01:05Z</time>
      </trkpt>
      <trkpt lat="42.68439" lon="1.46826">
        <ele>2042.94</ele>
        <time>2013-04-22T08:01:18Z</time>
      </trkpt>
      <trkpt lat="42.6844" lon="1.4682">
        <ele>2039.09</ele>
        <time>2013-04-22T08:01:30Z</time>
      </trkpt>
      <trkpt lat="42.68438" lon="1.46819">
        <ele>2040.05</ele>
        <time>2013-04-22T08:01:42Z</time>
      </trkpt>
      <trkpt lat="42.68437" lon="1.46815">
        <ele>2035.73</ele>
        <time>2013-04-22T08:02:02Z</time>
      </trkpt>
      <trkpt lat="42.68435" lon="1.46814">
        <ele>2036.21</ele>
        <time>2013-04-22T08:02:20Z</time>
      </trkpt>
      <trkpt lat="42.68439" lon="1.46823">
        <ele>2036.21</ele>
        <time>2013-04-22T08:02:32Z</time>
      </trkpt>
      <trkpt lat="42.68438" lon="1.46814">
        <ele>2036.21</ele>
        <time>2013-04-22T08:02:45Z</time>
      </trkpt>
      <trkpt lat="42.68441" lon="1.46817">
        <ele>2037.65</ele>
        <time>2013-04-22T08:03:01Z</time>
      </trkpt>
      <trkpt lat="42.68439" lon="1.46817">
        <ele>2034.29</ele>
        <time>2013-04-22T08:03:11Z</time>
      </trkpt>
      <trkpt lat="42.68444" lon="1.46816">
        <ele>2030.92</ele>
        <time>2013-04-22T08:03:39Z</time>
      </trkpt>
      <trkpt lat="42.68445" lon="1.46815">
        <ele>2038.61</ele>
        <time>2013-04-22T08:04:06Z</time>
      </trkpt>
      <trkpt lat="42.68441" lon="1.4682">
        <ele>2046.78</ele>
        <time>2013-04-22T08:04:39Z</time>
      </trkpt>
      <trkpt lat="42.6844" lon="1.46822">
        <ele>2041.5</ele>
        <time>2013-04-22T08:04:59Z</time>
      </trkpt>
      <trkpt lat="42.6844" lon="1.4682">
        <ele>2041.5</ele>
        <time>2013-04-22T08:05:12Z</time>
      </trkpt>
      <trkpt lat="42.68438" lon="1.46817">
        <ele>2043.9</ele>
        <time>2013-04-22T08:05:28Z</time>
      </trkpt>
      <trkpt lat="42.68439" lon="1.46817">
        <ele>2042.46</ele>
        <time>2013-04-22T08:05:46Z</time>
      </trkpt>
      <trkpt lat="42.68439" lon="1.46822">
        <ele>2042.46</ele>
        <time>2013-04-22T08:06:04Z</time>
      </trkpt>
      <trkpt lat="42.6844" lon="1.46821">
        <ele>2043.9</ele>
        <time>2013-04-22T08:06:12Z</time>
      </trkpt>
      <trkpt lat="42.68439" lon="1.46822">
        <ele>2043.9</ele>
        <time>2013-04-22T08:06:15Z</time>
      </trkpt>
      <trkpt lat="42.68435" lon="1.46825">
        <ele>2044.38</ele>
        <time>2013-04-22T08:06:19Z</time>
      </trkpt>
      <trkpt lat="42.68416" lon="1.46838">
        <ele>2043.9</ele>
        <time>2013-04-22T08:06:36Z</time>
      </trkpt>
      <trkpt lat="42.68404" lon="1.46839">
        <ele>2046.78</ele>
        <time>2013-04-22T08:06:49Z</time>
      </trkpt>
      <trkpt lat="42.68402" lon="1.46841">
        <ele>2046.78</ele>
        <time>2013-04-22T08:07:09Z</time>
      </trkpt>
      <trkpt lat="42.68398" lon="1.4684">
        <ele>2044.86</ele>
        <time>2013-04-22T08:07:31Z</time>
      </trkpt>
      <trkpt lat="42.68386" lon="1.46837">
        <ele>2047.75</ele>
        <time>2013-04-22T08:07:47Z</time>
      </trkpt>
      <trkpt lat="42.68372" lon="1.46834">
        <ele>2045.82</ele>
        <time>2013-04-22T08:08:01Z</time>
      </trkpt>
      <trkpt lat="42.68369" lon="1.4683">
        <ele>2044.86</ele>
        <time>2013-04-22T08:08:06Z</time>
      </trkpt>
      <trkpt lat="42.68367" lon="1.46827">
        <ele>2043.42</ele>
        <time>2013-04-22T08:08:19Z</time>
      </trkpt>
      <trkpt lat="42.68367" lon="1.46828">
        <ele>2042.46</ele>
        <time>2013-04-22T08:08:35Z</time>
      </trkpt>
      <trkpt lat="42.68368" lon="1.46831">
        <ele>2045.34</ele>
        <time>2013-04-22T08:08:57Z</time>
      </trkpt>
      <trkpt lat="42.68365" lon="1.46834">
        <ele>2046.78</ele>
        <time>2013-04-22T08:09:18Z</time>
      </trkpt>
      <trkpt lat="42.68367" lon="1.46832">
        <ele>2045.34</ele>
        <time>2013-04-22T08:09:45Z</time>
      </trkpt>
      <trkpt lat="42.6837" lon="1.46834">
        <ele>2046.3</ele>
        <time>2013-04-22T08:10:15Z</time>
      </trkpt>
      <trkpt lat="42.68369" lon="1.46839">
        <ele>2048.71</ele>
        <time>2013-04-22T08:10:38Z</time>
      </trkpt>
      <trkpt lat="42.68366" lon="1.46827">
        <ele>2047.75</ele>
        <time>2013-04-22T08:11:10Z</time>
      </trkpt>
      <trkpt lat="42.68368" lon="1.46825">
        <ele>2048.71</ele>
        <time>2013-04-22T08:11:26Z</time>
      </trkpt>
      <trkpt lat="42.68363" lon="1.46824">
        <ele>2053.99</ele>
        <time>2013-04-22T08:11:49Z</time>
      </trkpt>
      <trkpt lat="42.68362" lon="1.46821">
        <ele>2058.8</ele>
        <time>2013-04-22T08:12:19Z</time>
      </trkpt>
      <trkpt lat="42.68364" lon="1.4682">
        <ele>2062.17</ele>
        <time>2013-04-22T08:12:49Z</time>
      </trkpt>
      <trkpt lat="42.68365" lon="1.46825">
        <ele>2063.13</ele>
        <time>2013-04-22T08:13:35Z</time>
      </trkpt>
      <trkpt lat="42.68366" lon="1.46827">
        <ele>2061.68</ele>
        <time>2013-04-22T08:13:53Z</time>
      </trkpt>
      <trkpt lat="42.68367" lon="1.46827">
        <ele>2057.84</ele>
        <time>2013-04-22T08:14:09Z</time>
      </trkpt>
      <trkpt lat="42.68368" lon="1.46826">
        <ele>2053.99</ele>
        <time>2013-04-22T08:14:27Z</time>
      </trkpt>
      <trkpt lat="42.68368" lon="1.46827">
        <ele>2052.55</ele>
        <time>2013-04-22T08:14:41Z</time>
      </trkpt>
      <trkpt lat="42.68372" lon="1.46829">
        <ele>2050.63</ele>
        <time>2013-04-22T08:15:03Z</time>
      </trkpt>
      <trkpt lat="42.6837" lon="1.46831">
        <ele>2048.71</ele>
        <time>2013-04-22T08:15:16Z</time>
      </trkpt>
      <trkpt lat="42.6837" lon="1.4683">
        <ele>2048.71</ele>
        <time>2013-04-22T08:15:26Z</time>
      </trkpt>
      <trkpt lat="42.68367" lon="1.4683">
        <ele>2046.78</ele>
        <time>2013-04-22T08:15:38Z</time>
      </trkpt>
      <trkpt lat="42.68366" lon="1.46831">
        <ele>2045.82</ele>
        <time>2013-04-22T08:15:48Z</time>
      </trkpt>
      <trkpt lat="42.68367" lon="1.4683">
        <ele>2045.82</ele>
        <time>2013-04-22T08:16:04Z</time>
      </trkpt>
      <trkpt lat="42.68369" lon="1.46828">
        <ele>2045.34</ele>
        <time>2013-04-22T08:16:14Z</time>
      </trkpt>
      <trkpt lat="42.68368" lon="1.46827">
        <ele>2045.82</ele>
        <time>2013-04-22T08:16:28Z</time>
      </trkpt>
      <trkpt lat="42.68366" lon="1.46827">
        <ele>2041.98</ele>
        <time>2013-04-22T08:16:48Z</time>
      </trkpt>
      <trkpt lat="42.68366" lon="1.46831">
        <ele>2041.5</ele>
        <time>2013-04-22T08:17:15Z</time>
      </trkpt>
      <trkpt lat="42.68365" lon="1.4683">
        <ele>2043.42</ele>
        <time>2013-04-22T08:17:46Z</time>
      </trkpt>
      <trkpt lat="42.68364" lon="1.46831">
        <ele>2039.09</ele>
        <time>2013-04-22T08:18:25Z</time>
      </trkpt>
      <trkpt lat="42.68366" lon="1.4683">
        <ele>2041.98</ele>
        <time>2013-04-22T08:19:00Z</time>
      </trkpt>
      <trkpt lat="42.68366" lon="1.46829">
        <ele>2043.9</ele>
        <time>2013-04-22T08:19:33Z</time>
      </trkpt>
      <trkpt lat="42.68364" lon="1.46829">
        <ele>2047.75</ele>
        <time>2013-04-22T08:20:01Z</time>
      </trkpt>
      <trkpt lat="42.68365" lon="1.46831">
        <ele>2048.23</ele>
        <time>2013-04-22T08:20:40Z</time>
      </trkpt>
      <trkpt lat="42.68365" lon="1.46826">
        <ele>2045.34</ele>
        <time>2013-04-22T08:20:53Z</time>
      </trkpt>
      <trkpt lat="42.68366" lon="1.46826">
        <ele>2042.94</ele>
        <time>2013-04-22T08:21:11Z</time>
      </trkpt>
      <trkpt lat="42.68366" lon="1.46828">
        <ele>2040.54</ele>
        <time>2013-04-22T08:21:30Z</time>
      </trkpt>
      <trkpt lat="42.68362" lon="1.46824">
        <ele>2039.57</ele>
        <time>2013-04-22T08:21:39Z</time>
      </trkpt>
      <trkpt lat="42.68361" lon="1.46822">
        <ele>2039.09</ele>
        <time>2013-04-22T08:21:41Z</time>
      </trkpt>
      <trkpt lat="42.68359" lon="1.46816">
        <ele>2037.65</ele>
        <time>2013-04-22T08:21:45Z</time>
      </trkpt>
      <trkpt lat="42.68357" lon="1.46803">
        <ele>2037.65</ele>
        <time>2013-04-22T08:22:00Z</time>
      </trkpt>
      <trkpt lat="42.68356" lon="1.46792">
        <ele>2039.09</ele>
        <time>2013-04-22T08:22:10Z</time>
      </trkpt>
      <trkpt lat="42.6835" lon="1.46789">
        <ele>2038.13</ele>
        <time>2013-04-22T08:22:22Z</time>
      </trkpt>
      <trkpt lat="42.68343" lon="1.46788">
        <ele>2041.5</ele>
        <time>2013-04-22T08:22:33Z</time>
      </trkpt>
      <trkpt lat="42.68335" lon="1.46783">
        <ele>2044.38</ele>
        <time>2013-04-22T08:22:46Z</time>
      </trkpt>
      <trkpt lat="42.68331" lon="1.4678">
        <ele>2046.3</ele>
        <time>2013-04-22T08:22:53Z</time>
      </trkpt>
      <trkpt lat="42.68321" lon="1.4677">
        <ele>2047.26</ele>
        <time>2013-04-22T08:23:08Z</time>
      </trkpt>
      <trkpt lat="42.68315" lon="1.46763">
        <ele>2051.59</ele>
        <time>2013-04-22T08:23:20Z</time>
      </trkpt>
      <trkpt lat="42.68307" lon="1.46755">
        <ele>2053.99</ele>
        <time>2013-04-22T08:23:32Z</time>
      </trkpt>
      <trkpt lat="42.68299" lon="1.46747">
        <ele>2055.92</ele>
        <time>2013-04-22T08:23:45Z</time>
      </trkpt>
      <trkpt lat="42.6829" lon="1.46742">
        <ele>2062.17</ele>
        <time>2013-04-22T08:24:00Z</time>
      </trkpt>
      <trkpt lat="42.68284" lon="1.46741">
        <ele>2066.49</ele>
        <time>2013-04-22T08:24:16Z</time>
      </trkpt>
      <trkpt lat="42.68277" lon="1.46737">
        <ele>2068.41</ele>
        <time>2013-04-22T08:24:28Z</time>
      </trkpt>
      <trkpt lat="42.6827" lon="1.46734">
        <ele>2070.34</ele>
        <time>2013-04-22T08:24:43Z</time>
      </trkpt>
      <trkpt lat="42.68264" lon="1.46731">
        <ele>2070.34</ele>
        <time>2013-04-22T08:24:55Z</time>
      </trkpt>
      <trkpt lat="42.68258" lon="1.46728">
        <ele>2073.22</ele>
        <time>2013-04-22T08:25:07Z</time>
      </trkpt>
      <trkpt lat="42.68252" lon="1.46726">
        <ele>2074.66</ele>
        <time>2013-04-22T08:25:20Z</time>
      </trkpt>
      <trkpt lat="42.68248" lon="1.46721">
        <ele>2073.7</ele>
        <time>2013-04-22T08:25:34Z</time>
      </trkpt>
      <trkpt lat="42.6824" lon="1.46716">
        <ele>2075.14</ele>
        <time>2013-04-22T08:25:47Z</time>
      </trkpt>
      <trkpt lat="42.68232" lon="1.46712">
        <ele>2075.62</ele>
        <time>2013-04-22T08:25:58Z</time>
      </trkpt>
      <trkpt lat="42.6822" lon="1.46713">
        <ele>2077.55</ele>
        <time>2013-04-22T08:26:12Z</time>
      </trkpt>
      <trkpt lat="42.68211" lon="1.46715">
        <ele>2078.51</ele>
        <time>2013-04-22T08:26:25Z</time>
      </trkpt>
      <trkpt lat="42.68207" lon="1.46715">
        <ele>2078.03</ele>
        <time>2013-04-22T08:26:36Z</time>
      </trkpt>
      <trkpt lat="42.682" lon="1.46717">
        <ele>2079.95</ele>
        <time>2013-04-22T08:26:45Z</time>
      </trkpt>
      <trkpt lat="42.68189" lon="1.46727">
        <ele>2079.95</ele>
        <time>2013-04-22T08:26:58Z</time>
      </trkpt>
      <trkpt lat="42.68183" lon="1.46739">
        <ele>2078.03</ele>
        <time>2013-04-22T08:27:11Z</time>
      </trkpt>
      <trkpt lat="42.68175" lon="1.46743">
        <ele>2077.07</ele>
        <time>2013-04-22T08:27:22Z</time>
      </trkpt>
      <trkpt lat="42.68172" lon="1.46747">
        <ele>2078.03</ele>
        <time>2013-04-22T08:27:26Z</time>
      </trkpt>
      <trkpt lat="42.68162" lon="1.46753">
        <ele>2078.03</ele>
        <time>2013-04-22T08:27:38Z</time>
      </trkpt>
      <trkpt lat="42.68159" lon="1.46756">
        <ele>2076.59</ele>
        <time>2013-04-22T08:27:45Z</time>
      </trkpt>
      <trkpt lat="42.68154" lon="1.46758">
        <ele>2075.62</ele>
        <time>2013-04-22T08:27:58Z</time>
      </trkpt>
      <trkpt lat="42.68153" lon="1.46759">
        <ele>2072.74</ele>
        <time>2013-04-22T08:28:09Z</time>
      </trkpt>
      <trkpt lat="42.68154" lon="1.46762">
        <ele>2075.62</ele>
        <time>2013-04-22T08:28:40Z</time>
      </trkpt>
      <trkpt lat="42.68154" lon="1.46764">
        <ele>2072.74</ele>
        <time>2013-04-22T08:29:07Z</time>
      </trkpt>
      <trkpt lat="42.68155" lon="1.46764">
        <ele>2072.74</ele>
        <time>2013-04-22T08:29:40Z</time>
      </trkpt>
      <trkpt lat="42.68158" lon="1.46762">
        <ele>2070.82</ele>
        <time>2013-04-22T08:30:04Z</time>
      </trkpt>
      <trkpt lat="42.68155" lon="1.46759">
        <ele>2070.34</ele>
        <time>2013-04-22T08:30:15Z</time>
      </trkpt>
      <trkpt lat="42.68156" lon="1.46761">
        <ele>2072.26</ele>
        <time>2013-04-22T08:30:33Z</time>
      </trkpt>
      <trkpt lat="42.68155" lon="1.46762">
        <ele>2072.74</ele>
        <time>2013-04-22T08:30:51Z</time>
      </trkpt>
      <trkpt lat="42.68154" lon="1.46763">
        <ele>2073.7</ele>
        <time>2013-04-22T08:31:03Z</time>
      </trkpt>
      <trkpt lat="42.68152" lon="1.46762">
        <ele>2073.22</ele>
        <time>2013-04-22T08:31:32Z</time>
      </trkpt>
      <trkpt lat="42.6816" lon="1.46762">
        <ele>2073.7</ele>
        <time>2013-04-22T08:31:58Z</time>
      </trkpt>
      <trkpt lat="42.68169" lon="1.46764">
        <ele>2066.49</ele>
        <time>2013-04-22T08:32:13Z</time>
      </trkpt>
      <trkpt lat="42.6816" lon="1.46767">
        <ele>2070.34</ele>
        <time>2013-04-22T08:32:33Z</time>
      </trkpt>
      <trkpt lat="42.68154" lon="1.46768">
        <ele>2069.86</ele>
        <time>2013-04-22T08:32:37Z</time>
      </trkpt>
      <trkpt lat="42.68139" lon="1.46766">
        <ele>2073.22</ele>
        <time>2013-04-22T08:32:50Z</time>
      </trkpt>
      <trkpt lat="42.68131" lon="1.4677">
        <ele>2077.07</ele>
        <time>2013-04-22T08:33:03Z</time>
      </trkpt>
      <trkpt lat="42.68122" lon="1.46775">
        <ele>2079.95</ele>
        <time>2013-04-22T08:33:16Z</time>
      </trkpt>
      <trkpt lat="42.68112" lon="1.46779">
        <ele>2082.83</ele>
        <time>2013-04-22T08:33:31Z</time>
      </trkpt>
      <trkpt lat="42.681" lon="1.46777">
        <ele>2085.72</ele>
        <time>2013-04-22T08:33:45Z</time>
      </trkpt>
      <trkpt lat="42.6809" lon="1.46771">
        <ele>2087.64</ele>
        <time>2013-04-22T08:34:02Z</time>
      </trkpt>
      <trkpt lat="42.68082" lon="1.46767">
        <ele>2090.52</ele>
        <time>2013-04-22T08:34:17Z</time>
      </trkpt>
      <trkpt lat="42.68075" lon="1.46767">
        <ele>2091.97</ele>
        <time>2013-04-22T08:34:31Z</time>
      </trkpt>
      <trkpt lat="42.68072" lon="1.4677">
        <ele>2092.93</ele>
        <time>2013-04-22T08:34:46Z</time>
      </trkpt>
      <trkpt lat="42.68067" lon="1.46772">
        <ele>2093.89</ele>
        <time>2013-04-22T08:35:01Z</time>
      </trkpt>
      <trkpt lat="42.68061" lon="1.46777">
        <ele>2096.77</ele>
        <time>2013-04-22T08:35:14Z</time>
      </trkpt>
      <trkpt lat="42.68059" lon="1.46782">
        <ele>2100.14</ele>
        <time>2013-04-22T08:35:31Z</time>
      </trkpt>
      <trkpt lat="42.68055" lon="1.46787">
        <ele>2103.5</ele>
        <time>2013-04-22T08:35:43Z</time>
      </trkpt>
      <trkpt lat="42.6805" lon="1.46795">
        <ele>2105.42</ele>
        <time>2013-04-22T08:36:00Z</time>
      </trkpt>
      <trkpt lat="42.68048" lon="1.46791">
        <ele>2102.54</ele>
        <time>2013-04-22T08:36:14Z</time>
      </trkpt>
      <trkpt lat="42.68048" lon="1.46794">
        <ele>2104.46</ele>
        <time>2013-04-22T08:36:25Z</time>
      </trkpt>
      <trkpt lat="42.68046" lon="1.46797">
        <ele>2103.98</ele>
        <time>2013-04-22T08:36:43Z</time>
      </trkpt>
      <trkpt lat="42.68043" lon="1.46804">
        <ele>2107.83</ele>
        <time>2013-04-22T08:36:57Z</time>
      </trkpt>
      <trkpt lat="42.68039" lon="1.46812">
        <ele>2110.23</ele>
        <time>2013-04-22T08:37:11Z</time>
      </trkpt>
      <trkpt lat="42.68035" lon="1.4682">
        <ele>2113.12</ele>
        <time>2013-04-22T08:37:26Z</time>
      </trkpt>
      <trkpt lat="42.68031" lon="1.46825">
        <ele>2113.12</ele>
        <time>2013-04-22T08:37:40Z</time>
      </trkpt>
      <trkpt lat="42.6803" lon="1.4683">
        <ele>2113.12</ele>
        <time>2013-04-22T08:37:54Z</time>
      </trkpt>
      <trkpt lat="42.68027" lon="1.46834">
        <ele>2115.52</ele>
        <time>2013-04-22T08:38:08Z</time>
      </trkpt>
      <trkpt lat="42.68025" lon="1.46832">
        <ele>2115.04</ele>
        <time>2013-04-22T08:38:23Z</time>
      </trkpt>
      <trkpt lat="42.68025" lon="1.46834">
        <ele>2115.04</ele>
        <time>2013-04-22T08:38:42Z</time>
      </trkpt>
      <trkpt lat="42.68024" lon="1.46834">
        <ele>2111.67</ele>
        <time>2013-04-22T08:39:01Z</time>
      </trkpt>
      <trkpt lat="42.68025" lon="1.46834">
        <ele>2113.12</ele>
        <time>2013-04-22T08:39:23Z</time>
      </trkpt>
      <trkpt lat="42.68024" lon="1.46834">
        <ele>2112.63</ele>
        <time>2013-04-22T08:39:45Z</time>
      </trkpt>
      <trkpt lat="42.68022" lon="1.46839">
        <ele>2117.92</ele>
        <time>2013-04-22T08:40:01Z</time>
      </trkpt>
      <trkpt lat="42.68019" lon="1.4685">
        <ele>2121.77</ele>
        <time>2013-04-22T08:40:15Z</time>
      </trkpt>
      <trkpt lat="42.68018" lon="1.46855">
        <ele>2123.69</ele>
        <time>2013-04-22T08:40:31Z</time>
      </trkpt>
      <trkpt lat="42.68018" lon="1.46854">
        <ele>2124.17</ele>
        <time>2013-04-22T08:40:52Z</time>
      </trkpt>
      <trkpt lat="42.68017" lon="1.46857">
        <ele>2124.17</ele>
        <time>2013-04-22T08:40:56Z</time>
      </trkpt>
      <trkpt lat="42.68013" lon="1.46867">
        <ele>2122.25</ele>
        <time>2013-04-22T08:41:09Z</time>
      </trkpt>
      <trkpt lat="42.68013" lon="1.4687">
        <ele>2122.25</ele>
        <time>2013-04-22T08:41:12Z</time>
      </trkpt>
      <trkpt lat="42.68013" lon="1.46886">
        <ele>2122.73</ele>
        <time>2013-04-22T08:41:27Z</time>
      </trkpt>
      <trkpt lat="42.68011" lon="1.469">
        <ele>2123.21</ele>
        <time>2013-04-22T08:41:42Z</time>
      </trkpt>
      <trkpt lat="42.6801" lon="1.46909">
        <ele>2127.05</ele>
        <time>2013-04-22T08:41:56Z</time>
      </trkpt>
      <trkpt lat="42.6801" lon="1.46925">
        <ele>2125.13</ele>
        <time>2013-04-22T08:42:14Z</time>
      </trkpt>
      <trkpt lat="42.68011" lon="1.4694">
        <ele>2128.02</ele>
        <time>2013-04-22T08:42:32Z</time>
      </trkpt>
      <trkpt lat="42.68012" lon="1.46952">
        <ele>2130.42</ele>
        <time>2013-04-22T08:42:51Z</time>
      </trkpt>
      <trkpt lat="42.68015" lon="1.4696">
        <ele>2134.26</ele>
        <time>2013-04-22T08:43:06Z</time>
      </trkpt>
      <trkpt lat="42.68015" lon="1.46973">
        <ele>2139.55</ele>
        <time>2013-04-22T08:43:22Z</time>
      </trkpt>
      <trkpt lat="42.68015" lon="1.46982">
        <ele>2142.92</ele>
        <time>2013-04-22T08:43:37Z</time>
      </trkpt>
      <trkpt lat="42.68018" lon="1.4699">
        <ele>2144.36</ele>
        <time>2013-04-22T08:43:52Z</time>
      </trkpt>
      <trkpt lat="42.68015" lon="1.46997">
        <ele>2146.76</ele>
        <time>2013-04-22T08:44:06Z</time>
      </trkpt>
      <trkpt lat="42.68014" lon="1.46998">
        <ele>2147.24</ele>
        <time>2013-04-22T08:44:18Z</time>
      </trkpt>
      <trkpt lat="42.68012" lon="1.46998">
        <ele>2140.51</ele>
        <time>2013-04-22T08:44:38Z</time>
      </trkpt>
      <trkpt lat="42.68014" lon="1.46998">
        <ele>2148.2</ele>
        <time>2013-04-22T08:45:04Z</time>
      </trkpt>
      <trkpt lat="42.68013" lon="1.46999">
        <ele>2146.28</ele>
        <time>2013-04-22T08:45:25Z</time>
      </trkpt>
      <trkpt lat="42.68016" lon="1.47014">
        <ele>2148.2</ele>
        <time>2013-04-22T08:45:41Z</time>
      </trkpt>
      <trkpt lat="42.68016" lon="1.47031">
        <ele>2147.72</ele>
        <time>2013-04-22T08:45:57Z</time>
      </trkpt>
      <trkpt lat="42.68021" lon="1.47037">
        <ele>2149.16</ele>
        <time>2013-04-22T08:46:13Z</time>
      </trkpt>
      <trkpt lat="42.68022" lon="1.47046">
        <ele>2146.76</ele>
        <time>2013-04-22T08:46:27Z</time>
      </trkpt>
      <trkpt lat="42.68025" lon="1.47049">
        <ele>2146.76</ele>
        <time>2013-04-22T08:46:32Z</time>
      </trkpt>
      <trkpt lat="42.68033" lon="1.47063">
        <ele>2147.72</ele>
        <time>2013-04-22T08:46:47Z</time>
      </trkpt>
      <trkpt lat="42.68034" lon="1.47072">
        <ele>2150.13</ele>
        <time>2013-04-22T08:46:59Z</time>
      </trkpt>
      <trkpt lat="42.68032" lon="1.47081">
        <ele>2153.01</ele>
        <time>2013-04-22T08:47:11Z</time>
      </trkpt>
      <trkpt lat="42.68032" lon="1.47084">
        <ele>2155.41</ele>
        <time>2013-04-22T08:47:29Z</time>
      </trkpt>
      <trkpt lat="42.6803" lon="1.47089">
        <ele>2157.34</ele>
        <time>2013-04-22T08:47:50Z</time>
      </trkpt>
      <trkpt lat="42.68033" lon="1.47082">
        <ele>2159.26</ele>
        <time>2013-04-22T08:48:24Z</time>
      </trkpt>
      <trkpt lat="42.68035" lon="1.47077">
        <ele>2157.82</ele>
        <time>2013-04-22T08:48:50Z</time>
      </trkpt>
      <trkpt lat="42.68035" lon="1.47079">
        <ele>2156.86</ele>
        <time>2013-04-22T08:49:10Z</time>
      </trkpt>
      <trkpt lat="42.68036" lon="1.47087">
        <ele>2158.3</ele>
        <time>2013-04-22T08:49:24Z</time>
      </trkpt>
      <trkpt lat="42.68038" lon="1.47099">
        <ele>2160.22</ele>
        <time>2013-04-22T08:49:39Z</time>
      </trkpt>
      <trkpt lat="42.6804" lon="1.47107">
        <ele>2163.1</ele>
        <time>2013-04-22T08:49:51Z</time>
      </trkpt>
      <trkpt lat="42.6804" lon="1.47106">
        <ele>2164.06</ele>
        <time>2013-04-22T08:50:11Z</time>
      </trkpt>
      <trkpt lat="42.68042" lon="1.47109">
        <ele>2163.58</ele>
        <time>2013-04-22T08:50:26Z</time>
      </trkpt>
      <trkpt lat="42.6804" lon="1.47108">
        <ele>2163.58</ele>
        <time>2013-04-22T08:50:49Z</time>
      </trkpt>
      <trkpt lat="42.68039" lon="1.47109">
        <ele>2165.99</ele>
        <time>2013-04-22T08:51:09Z</time>
      </trkpt>
      <trkpt lat="42.6804" lon="1.4711">
        <ele>2168.39</ele>
        <time>2013-04-22T08:51:27Z</time>
      </trkpt>
      <trkpt lat="42.68039" lon="1.47107">
        <ele>2164.55</ele>
        <time>2013-04-22T08:51:46Z</time>
      </trkpt>
      <trkpt lat="42.68037" lon="1.47112">
        <ele>2165.51</ele>
        <time>2013-04-22T08:52:05Z</time>
      </trkpt>
      <trkpt lat="42.6804" lon="1.47115">
        <ele>2166.95</ele>
        <time>2013-04-22T08:52:34Z</time>
      </trkpt>
      <trkpt lat="42.6804" lon="1.47116">
        <ele>2161.66</ele>
        <time>2013-04-22T08:52:56Z</time>
      </trkpt>
      <trkpt lat="42.68039" lon="1.47113">
        <ele>2161.18</ele>
        <time>2013-04-22T08:53:12Z</time>
      </trkpt>
      <trkpt lat="42.68036" lon="1.47107">
        <ele>2162.14</ele>
        <time>2013-04-22T08:53:34Z</time>
      </trkpt>
      <trkpt lat="42.68037" lon="1.47106">
        <ele>2162.62</ele>
        <time>2013-04-22T08:53:57Z</time>
      </trkpt>
      <trkpt lat="42.68036" lon="1.47108">
        <ele>2158.78</ele>
        <time>2013-04-22T08:54:17Z</time>
      </trkpt>
      <trkpt lat="42.68037" lon="1.47111">
        <ele>2167.91</ele>
        <time>2013-04-22T08:54:40Z</time>
      </trkpt>
      <trkpt lat="42.68037" lon="1.47111">
        <ele>2171.27</ele>
        <time>2013-04-22T08:54:58Z</time>
      </trkpt>
      <trkpt lat="42.68036" lon="1.4711">
        <ele>2170.31</ele>
        <time>2013-04-22T08:55:21Z</time>
      </trkpt>
      <trkpt lat="42.68033" lon="1.47109">
        <ele>2172.24</ele>
        <time>2013-04-22T08:55:45Z</time>
      </trkpt>
      <trkpt lat="42.68036" lon="1.47111">
        <ele>2168.87</ele>
        <time>2013-04-22T08:56:10Z</time>
      </trkpt>
      <trkpt lat="42.68033" lon="1.47112">
        <ele>2168.39</ele>
        <time>2013-04-22T08:56:28Z</time>
      </trkpt>
      <trkpt lat="42.68034" lon="1.47113">
        <ele>2170.79</ele>
        <time>2013-04-22T08:56:44Z</time>
      </trkpt>
      <trkpt lat="42.68037" lon="1.4711">
        <ele>2171.27</ele>
        <time>2013-04-22T08:57:05Z</time>
      </trkpt>
      <trkpt lat="42.68037" lon="1.47109">
        <ele>2168.39</ele>
        <time>2013-04-22T08:57:24Z</time>
      </trkpt>
      <trkpt lat="42.68038" lon="1.47106">
        <ele>2169.83</ele>
        <time>2013-04-22T08:57:42Z</time>
      </trkpt>
      <trkpt lat="42.68038" lon="1.47108">
        <ele>2166.95</ele>
        <time>2013-04-22T08:58:10Z</time>
      </trkpt>
      <trkpt lat="42.68038" lon="1.47108">
        <ele>2167.91</ele>
        <time>2013-04-22T08:58:35Z</time>
      </trkpt>
      <trkpt lat="42.68038" lon="1.4711">
        <ele>2166.95</ele>
        <time>2013-04-22T08:58:59Z</time>
      </trkpt>
      <trkpt lat="42.68042" lon="1.47113">
        <ele>2166.95</ele>
        <time>2013-04-22T08:59:14Z</time>
      </trkpt>
      <trkpt lat="42.68046" lon="1.47118">
        <ele>2167.91</ele>
        <time>2013-04-22T08:59:29Z</time>
      </trkpt>
      <trkpt lat="42.68055" lon="1.47127">
        <ele>2171.27</ele>
        <time>2013-04-22T08:59:41Z</time>
      </trkpt>
      <trkpt lat="42.68062" lon="1.47133">
        <ele>2175.6</ele>
        <time>2013-04-22T08:59:53Z</time>
      </trkpt>
      <trkpt lat="42.68072" lon="1.47145">
        <ele>2179.93</ele>
        <time>2013-04-22T09:00:09Z</time>
      </trkpt>
      <trkpt lat="42.68078" lon="1.47159">
        <ele>2183.29</ele>
        <time>2013-04-22T09:00:24Z</time>
      </trkpt>
      <trkpt lat="42.68076" lon="1.47173">
        <ele>2184.25</ele>
        <time>2013-04-22T09:00:39Z</time>
      </trkpt>
      <trkpt lat="42.68078" lon="1.47185">
        <ele>2187.14</ele>
        <time>2013-04-22T09:00:52Z</time>
      </trkpt>
      <trkpt lat="42.68083" lon="1.472">
        <ele>2188.58</ele>
        <time>2013-04-22T09:01:09Z</time>
      </trkpt>
      <trkpt lat="42.68085" lon="1.47215">
        <ele>2189.06</ele>
        <time>2013-04-22T09:01:24Z</time>
      </trkpt>
      <trkpt lat="42.68083" lon="1.47228">
        <ele>2189.06</ele>
        <time>2013-04-22T09:01:39Z</time>
      </trkpt>
      <trkpt lat="42.68082" lon="1.4724">
        <ele>2188.58</ele>
        <time>2013-04-22T09:01:57Z</time>
      </trkpt>
      <trkpt lat="42.68082" lon="1.47256">
        <ele>2191.46</ele>
        <time>2013-04-22T09:02:15Z</time>
      </trkpt>
      <trkpt lat="42.68083" lon="1.47264">
        <ele>2191.94</ele>
        <time>2013-04-22T09:02:22Z</time>
      </trkpt>
      <trkpt lat="42.68083" lon="1.47268">
        <ele>2191.46</ele>
        <time>2013-04-22T09:02:25Z</time>
      </trkpt>
      <trkpt lat="42.68082" lon="1.4728">
        <ele>2192.9</ele>
        <time>2013-04-22T09:02:39Z</time>
      </trkpt>
      <trkpt lat="42.68085" lon="1.47297">
        <ele>2194.35</ele>
        <time>2013-04-22T09:02:53Z</time>
      </trkpt>
      <trkpt lat="42.68085" lon="1.4731">
        <ele>2196.75</ele>
        <time>2013-04-22T09:03:08Z</time>
      </trkpt>
      <trkpt lat="42.68086" lon="1.47319">
        <ele>2200.11</ele>
        <time>2013-04-22T09:03:23Z</time>
      </trkpt>
      <trkpt lat="42.68085" lon="1.47329">
        <ele>2202.04</ele>
        <time>2013-04-22T09:03:40Z</time>
      </trkpt>
      <trkpt lat="42.68084" lon="1.47335">
        <ele>2208.29</ele>
        <time>2013-04-22T09:03:57Z</time>
      </trkpt>
      <trkpt lat="42.68082" lon="1.47341">
        <ele>2211.65</ele>
        <time>2013-04-22T09:04:11Z</time>
      </trkpt>
      <trkpt lat="42.68081" lon="1.47346">
        <ele>2216.46</ele>
        <time>2013-04-22T09:04:28Z</time>
      </trkpt>
      <trkpt lat="42.6808" lon="1.47353">
        <ele>2220.3</ele>
        <time>2013-04-22T09:04:45Z</time>
      </trkpt>
      <trkpt lat="42.68079" lon="1.47359">
        <ele>2223.67</ele>
        <time>2013-04-22T09:05:00Z</time>
      </trkpt>
      <trkpt lat="42.68078" lon="1.47365">
        <ele>2226.07</ele>
        <time>2013-04-22T09:05:16Z</time>
      </trkpt>
      <trkpt lat="42.68076" lon="1.4737">
        <ele>2227.99</ele>
        <time>2013-04-22T09:05:30Z</time>
      </trkpt>
      <trkpt lat="42.68077" lon="1.47372">
        <ele>2229.43</ele>
        <time>2013-04-22T09:05:42Z</time>
      </trkpt>
      <trkpt lat="42.68077" lon="1.47377">
        <ele>2231.84</ele>
        <time>2013-04-22T09:05:57Z</time>
      </trkpt>
      <trkpt lat="42.68077" lon="1.47384">
        <ele>2236.16</ele>
        <time>2013-04-22T09:06:11Z</time>
      </trkpt>
      <trkpt lat="42.68076" lon="1.47389">
        <ele>2237.13</ele>
        <time>2013-04-22T09:06:26Z</time>
      </trkpt>
      <trkpt lat="42.68074" lon="1.47393">
        <ele>2238.09</ele>
        <time>2013-04-22T09:06:42Z</time>
      </trkpt>
      <trkpt lat="42.68071" lon="1.47399">
        <ele>2240.97</ele>
        <time>2013-04-22T09:07:00Z</time>
      </trkpt>
      <trkpt lat="42.6807" lon="1.474">
        <ele>2243.37</ele>
        <time>2013-04-22T09:07:13Z</time>
      </trkpt>
      <trkpt lat="42.6807" lon="1.47403">
        <ele>2243.85</ele>
        <time>2013-04-22T09:07:25Z</time>
      </trkpt>
      <trkpt lat="42.6807" lon="1.47407">
        <ele>2246.74</ele>
        <time>2013-04-22T09:07:40Z</time>
      </trkpt>
      <trkpt lat="42.68068" lon="1.47412">
        <ele>2248.66</ele>
        <time>2013-04-22T09:07:55Z</time>
      </trkpt>
      <trkpt lat="42.68065" lon="1.47416">
        <ele>2252.03</ele>
        <time>2013-04-22T09:08:11Z</time>
      </trkpt>
      <trkpt lat="42.68067" lon="1.47414">
        <ele>2254.43</ele>
        <time>2013-04-22T09:08:29Z</time>
      </trkpt>
      <trkpt lat="42.68066" lon="1.4742">
        <ele>2255.87</ele>
        <time>2013-04-22T09:08:57Z</time>
      </trkpt>
      <trkpt lat="42.68067" lon="1.47419">
        <ele>2255.87</ele>
        <time>2013-04-22T09:09:14Z</time>
      </trkpt>
      <trkpt lat="42.68063" lon="1.47424">
        <ele>2257.31</ele>
        <time>2013-04-22T09:09:30Z</time>
      </trkpt>
      <trkpt lat="42.68058" lon="1.47425">
        <ele>2260.68</ele>
        <time>2013-04-22T09:09:45Z</time>
      </trkpt>
      <trkpt lat="42.68053" lon="1.47428">
        <ele>2262.6</ele>
        <time>2013-04-22T09:09:57Z</time>
      </trkpt>
      <trkpt lat="42.68045" lon="1.47427">
        <ele>2265.96</ele>
        <time>2013-04-22T09:10:12Z</time>
      </trkpt>
      <trkpt lat="42.68043" lon="1.47425">
        <ele>2267.89</ele>
        <time>2013-04-22T09:10:28Z</time>
      </trkpt>
      <trkpt lat="42.68037" lon="1.47421">
        <ele>2266.45</ele>
        <time>2013-04-22T09:10:45Z</time>
      </trkpt>
      <trkpt lat="42.68033" lon="1.47418">
        <ele>2268.37</ele>
        <time>2013-04-22T09:10:59Z</time>
      </trkpt>
      <trkpt lat="42.68032" lon="1.4742">
        <ele>2265.96</ele>
        <time>2013-04-22T09:11:34Z</time>
      </trkpt>
      <trkpt lat="42.68033" lon="1.47421">
        <ele>2263.56</ele>
        <time>2013-04-22T09:12:02Z</time>
      </trkpt>
      <trkpt lat="42.68027" lon="1.47419">
        <ele>2262.12</ele>
        <time>2013-04-22T09:12:20Z</time>
      </trkpt>
      <trkpt lat="42.68016" lon="1.47413">
        <ele>2262.6</ele>
        <time>2013-04-22T09:12:37Z</time>
      </trkpt>
      <trkpt lat="42.68013" lon="1.47409">
        <ele>2264.04</ele>
        <time>2013-04-22T09:12:56Z</time>
      </trkpt>
      <trkpt lat="42.68014" lon="1.4741">
        <ele>2263.56</ele>
        <time>2013-04-22T09:13:17Z</time>
      </trkpt>
      <trkpt lat="42.68013" lon="1.47408">
        <ele>2264.04</ele>
        <time>2013-04-22T09:13:43Z</time>
      </trkpt>
      <trkpt lat="42.68013" lon="1.4741">
        <ele>2263.08</ele>
        <time>2013-04-22T09:14:03Z</time>
      </trkpt>
      <trkpt lat="42.68012" lon="1.47409">
        <ele>2264.04</ele>
        <time>2013-04-22T09:14:22Z</time>
      </trkpt>
      <trkpt lat="42.68013" lon="1.4741">
        <ele>2263.08</ele>
        <time>2013-04-22T09:14:51Z</time>
      </trkpt>
      <trkpt lat="42.68013" lon="1.47409">
        <ele>2264.04</ele>
        <time>2013-04-22T09:15:15Z</time>
      </trkpt>
      <trkpt lat="42.68013" lon="1.47407">
        <ele>2265.48</ele>
        <time>2013-04-22T09:15:37Z</time>
      </trkpt>
      <trkpt lat="42.68005" lon="1.47403">
        <ele>2265</ele>
        <time>2013-04-22T09:15:55Z</time>
      </trkpt>
      <trkpt lat="42.67998" lon="1.47397">
        <ele>2264.52</ele>
        <time>2013-04-22T09:16:07Z</time>
      </trkpt>
      <trkpt lat="42.67993" lon="1.47395">
        <ele>2262.6</ele>
        <time>2013-04-22T09:16:21Z</time>
      </trkpt>
      <trkpt lat="42.6799" lon="1.47395">
        <ele>2261.64</ele>
        <time>2013-04-22T09:16:38Z</time>
      </trkpt>
      <trkpt lat="42.67984" lon="1.47394">
        <ele>2263.08</ele>
        <time>2013-04-22T09:16:57Z</time>
      </trkpt>
      <trkpt lat="42.67979" lon="1.47392">
        <ele>2265.48</ele>
        <time>2013-04-22T09:17:09Z</time>
      </trkpt>
      <trkpt lat="42.67977" lon="1.4739">
        <ele>2267.89</ele>
        <time>2013-04-22T09:17:20Z</time>
      </trkpt>
      <trkpt lat="42.67972" lon="1.4739">
        <ele>2269.33</ele>
        <time>2013-04-22T09:17:32Z</time>
      </trkpt>
      <trkpt lat="42.67967" lon="1.47393">
        <ele>2271.73</ele>
        <time>2013-04-22T09:17:47Z</time>
      </trkpt>
      <trkpt lat="42.67963" lon="1.47394">
        <ele>2274.62</ele>
        <time>2013-04-22T09:18:00Z</time>
      </trkpt>
      <trkpt lat="42.67957" lon="1.47397">
        <ele>2277.98</ele>
        <time>2013-04-22T09:18:16Z</time>
      </trkpt>
      <trkpt lat="42.67956" lon="1.474">
        <ele>2277.98</ele>
        <time>2013-04-22T09:18:34Z</time>
      </trkpt>
      <trkpt lat="42.67956" lon="1.47398">
        <ele>2277.5</ele>
        <time>2013-04-22T09:18:48Z</time>
      </trkpt>
      <trkpt lat="42.67953" lon="1.47398">
        <ele>2280.87</ele>
        <time>2013-04-22T09:19:22Z</time>
      </trkpt>
      <trkpt lat="42.67955" lon="1.47396">
        <ele>2280.87</ele>
        <time>2013-04-22T09:19:53Z</time>
      </trkpt>
      <trkpt lat="42.67955" lon="1.47397">
        <ele>2281.35</ele>
        <time>2013-04-22T09:20:26Z</time>
      </trkpt>
      <trkpt lat="42.67955" lon="1.47399">
        <ele>2278.46</ele>
        <time>2013-04-22T09:20:54Z</time>
      </trkpt>
      <trkpt lat="42.67954" lon="1.47398">
        <ele>2280.87</ele>
        <time>2013-04-22T09:21:04Z</time>
      </trkpt>
      <trkpt lat="42.67952" lon="1.47396">
        <ele>2282.31</ele>
        <time>2013-04-22T09:21:29Z</time>
      </trkpt>
      <trkpt lat="42.67951" lon="1.47395">
        <ele>2281.83</ele>
        <time>2013-04-22T09:21:52Z</time>
      </trkpt>
      <trkpt lat="42.67951" lon="1.47391">
        <ele>2286.63</ele>
        <time>2013-04-22T09:22:22Z</time>
      </trkpt>
      <trkpt lat="42.6795" lon="1.47395">
        <ele>2286.15</ele>
        <time>2013-04-22T09:22:36Z</time>
      </trkpt>
      <trkpt lat="42.67947" lon="1.47398">
        <ele>2286.63</ele>
        <time>2013-04-22T09:22:48Z</time>
      </trkpt>
      <trkpt lat="42.67942" lon="1.47402">
        <ele>2289.04</ele>
        <time>2013-04-22T09:23:04Z</time>
      </trkpt>
      <trkpt lat="42.67938" lon="1.47403">
        <ele>2291.44</ele>
        <time>2013-04-22T09:23:18Z</time>
      </trkpt>
      <trkpt lat="42.67934" lon="1.47406">
        <ele>2292.88</ele>
        <time>2013-04-22T09:23:30Z</time>
      </trkpt>
      <trkpt lat="42.67931" lon="1.47407">
        <ele>2294.32</ele>
        <time>2013-04-22T09:23:41Z</time>
      </trkpt>
      <trkpt lat="42.67928" lon="1.47411">
        <ele>2295.28</ele>
        <time>2013-04-22T09:24:08Z</time>
      </trkpt>
      <trkpt lat="42.67926" lon="1.47412">
        <ele>2296.73</ele>
        <time>2013-04-22T09:24:19Z</time>
      </trkpt>
      <trkpt lat="42.67921" lon="1.47415">
        <ele>2299.61</ele>
        <time>2013-04-22T09:24:31Z</time>
      </trkpt>
      <trkpt lat="42.67915" lon="1.47421">
        <ele>2302.98</ele>
        <time>2013-04-22T09:24:46Z</time>
      </trkpt>
      <trkpt lat="42.6791" lon="1.47428">
        <ele>2304.42</ele>
        <time>2013-04-22T09:25:00Z</time>
      </trkpt>
      <trkpt lat="42.67905" lon="1.47431">
        <ele>2304.9</ele>
        <time>2013-04-22T09:25:13Z</time>
      </trkpt>
      <trkpt lat="42.67901" lon="1.47435">
        <ele>2304.42</ele>
        <time>2013-04-22T09:25:22Z</time>
      </trkpt>
      <trkpt lat="42.67898" lon="1.4744">
        <ele>2302.98</ele>
        <time>2013-04-22T09:25:37Z</time>
      </trkpt>
      <trkpt lat="42.67893" lon="1.47446">
        <ele>2301.53</ele>
        <time>2013-04-22T09:25:48Z</time>
      </trkpt>
      <trkpt lat="42.67889" lon="1.47448">
        <ele>2302.49</ele>
        <time>2013-04-22T09:26:10Z</time>
      </trkpt>
      <trkpt lat="42.67888" lon="1.47447">
        <ele>2303.94</ele>
        <time>2013-04-22T09:26:32Z</time>
      </trkpt>
      <trkpt lat="42.67889" lon="1.47446">
        <ele>2302.01</ele>
        <time>2013-04-22T09:26:51Z</time>
      </trkpt>
      <trkpt lat="42.67886" lon="1.47448">
        <ele>2301.53</ele>
        <time>2013-04-22T09:27:00Z</time>
      </trkpt>
      <trkpt lat="42.67883" lon="1.47449">
        <ele>2302.01</ele>
        <time>2013-04-22T09:27:16Z</time>
      </trkpt>
      <trkpt lat="42.67881" lon="1.47451">
        <ele>2300.09</ele>
        <time>2013-04-22T09:27:21Z</time>
      </trkpt>
      <trkpt lat="42.67873" lon="1.47456">
        <ele>2297.69</ele>
        <time>2013-04-22T09:27:34Z</time>
      </trkpt>
      <trkpt lat="42.67871" lon="1.47461">
        <ele>2297.21</ele>
        <time>2013-04-22T09:27:39Z</time>
      </trkpt>
      <trkpt lat="42.67863" lon="1.47463">
        <ele>2300.09</ele>
        <time>2013-04-22T09:27:52Z</time>
      </trkpt>
      <trkpt lat="42.67863" lon="1.47463">
        <ele>2298.65</ele>
        <time>2013-04-22T09:28:11Z</time>
      </trkpt>
      <trkpt lat="42.67857" lon="1.47468">
        <ele>2298.65</ele>
        <time>2013-04-22T09:28:36Z</time>
      </trkpt>
      <trkpt lat="42.67855" lon="1.47469">
        <ele>2293.84</ele>
        <time>2013-04-22T09:29:14Z</time>
      </trkpt>
      <trkpt lat="42.67854" lon="1.4747">
        <ele>2289.52</ele>
        <time>2013-04-22T09:29:58Z</time>
      </trkpt>
      <trkpt lat="42.67855" lon="1.47471">
        <ele>2289.52</ele>
        <time>2013-04-22T09:30:43Z</time>
      </trkpt>
      <trkpt lat="42.67854" lon="1.47472">
        <ele>2287.11</ele>
        <time>2013-04-22T09:31:28Z</time>
      </trkpt>
      <trkpt lat="42.67855" lon="1.47472">
        <ele>2289.04</ele>
        <time>2013-04-22T09:32:17Z</time>
      </trkpt>
      <trkpt lat="42.67855" lon="1.47471">
        <ele>2289.04</ele>
        <time>2013-04-22T09:33:07Z</time>
      </trkpt>
      <trkpt lat="42.67853" lon="1.47473">
        <ele>2289.04</ele>
        <time>2013-04-22T09:33:51Z</time>
      </trkpt>
      <trkpt lat="42.67857" lon="1.47469">
        <ele>2290.96</ele>
        <time>2013-04-22T09:34:28Z</time>
      </trkpt>
      <trkpt lat="42.67863" lon="1.47466">
        <ele>2293.84</ele>
        <time>2013-04-22T09:35:07Z</time>
      </trkpt>
      <trkpt lat="42.67863" lon="1.47466">
        <ele>2294.8</ele>
        <time>2013-04-22T09:35:50Z</time>
      </trkpt>
      <trkpt lat="42.67863" lon="1.47464">
        <ele>2295.77</ele>
        <time>2013-04-22T09:36:26Z</time>
      </trkpt>
      <trkpt lat="42.67863" lon="1.47468">
        <ele>2297.69</ele>
        <time>2013-04-22T09:36:59Z</time>
      </trkpt>
      <trkpt lat="42.67862" lon="1.47464">
        <ele>2293.36</ele>
        <time>2013-04-22T09:37:39Z</time>
      </trkpt>
      <trkpt lat="42.67864" lon="1.47464">
        <ele>2293.84</ele>
        <time>2013-04-22T09:37:55Z</time>
      </trkpt>
      <trkpt lat="42.67863" lon="1.47467">
        <ele>2295.28</ele>
        <time>2013-04-22T09:38:28Z</time>
      </trkpt>
      <trkpt lat="42.67863" lon="1.4746">
        <ele>2291.44</ele>
        <time>2013-04-22T09:38:57Z</time>
      </trkpt>
      <trkpt lat="42.67863" lon="1.47465">
        <ele>2291.44</ele>
        <time>2013-04-22T09:39:25Z</time>
      </trkpt>
      <trkpt lat="42.67863" lon="1.47463">
        <ele>2292.4</ele>
        <time>2013-04-22T09:39:57Z</time>
      </trkpt>
      <trkpt lat="42.67862" lon="1.47462">
        <ele>2293.36</ele>
        <time>2013-04-22T09:40:31Z</time>
      </trkpt>
      <trkpt lat="42.67862" lon="1.47461">
        <ele>2298.17</ele>
        <time>2013-04-22T09:41:11Z</time>
      </trkpt>
      <trkpt lat="42.67862" lon="1.47462">
        <ele>2295.77</ele>
        <time>2013-04-22T09:41:39Z</time>
      </trkpt>
      <trkpt lat="42.67862" lon="1.47462">
        <ele>2292.88</ele>
        <time>2013-04-22T09:42:13Z</time>
      </trkpt>
      <trkpt lat="42.67862" lon="1.47466">
        <ele>2289.52</ele>
        <time>2013-04-22T09:42:43Z</time>
      </trkpt>
      <trkpt lat="42.67861" lon="1.47463">
        <ele>2288.08</ele>
        <time>2013-04-22T09:43:17Z</time>
      </trkpt>
      <trkpt lat="42.67862" lon="1.47461">
        <ele>2294.32</ele>
        <time>2013-04-22T09:43:50Z</time>
      </trkpt>
      <trkpt lat="42.67867" lon="1.47464">
        <ele>2295.28</ele>
        <time>2013-04-22T09:44:20Z</time>
      </trkpt>
      <trkpt lat="42.67862" lon="1.47464">
        <ele>2297.69</ele>
        <time>2013-04-22T09:44:51Z</time>
      </trkpt>
      <trkpt lat="42.67863" lon="1.47464">
        <ele>2299.61</ele>
        <time>2013-04-22T09:45:10Z</time>
      </trkpt>
      <trkpt lat="42.67865" lon="1.47462">
        <ele>2302.49</ele>
        <time>2013-04-22T09:45:35Z</time>
      </trkpt>
      <trkpt lat="42.67864" lon="1.47458">
        <ele>2303.46</ele>
        <time>2013-04-22T09:46:02Z</time>
      </trkpt>
      <trkpt lat="42.67864" lon="1.47459">
        <ele>2302.98</ele>
        <time>2013-04-22T09:46:27Z</time>
      </trkpt>
      <trkpt lat="42.67864" lon="1.47461">
        <ele>2303.94</ele>
        <time>2013-04-22T09:46:55Z</time>
      </trkpt>
      <trkpt lat="42.6786" lon="1.47459">
        <ele>2306.34</ele>
        <time>2013-04-22T09:47:21Z</time>
      </trkpt>
      <trkpt lat="42.67855" lon="1.47464">
        <ele>2302.01</ele>
        <time>2013-04-22T09:47:52Z</time>
      </trkpt>
      <trkpt lat="42.67859" lon="1.47463">
        <ele>2301.05</ele>
        <time>2013-04-22T09:48:15Z</time>
      </trkpt>
      <trkpt lat="42.67862" lon="1.47467">
        <ele>2298.17</ele>
        <time>2013-04-22T09:48:28Z</time>
      </trkpt>
      <trkpt lat="42.67863" lon="1.47467">
        <ele>2300.09</ele>
        <time>2013-04-22T09:48:40Z</time>
      </trkpt>
      <trkpt lat="42.67865" lon="1.47465">
        <ele>2299.13</ele>
        <time>2013-04-22T09:48:55Z</time>
      </trkpt>
      <trkpt lat="42.67862" lon="1.47465">
        <ele>2296.73</ele>
        <time>2013-04-22T09:48:59Z</time>
      </trkpt>
      <trkpt lat="42.67866" lon="1.47463">
        <ele>2297.21</ele>
        <time>2013-04-22T09:49:05Z</time>
      </trkpt>
      <trkpt lat="42.67867" lon="1.47456">
        <ele>2297.69</ele>
        <time>2013-04-22T09:49:15Z</time>
      </trkpt>
      <trkpt lat="42.6787" lon="1.47456">
        <ele>2297.69</ele>
        <time>2013-04-22T09:49:29Z</time>
      </trkpt>
      <trkpt lat="42.6787" lon="1.47455">
        <ele>2296.25</ele>
        <time>2013-04-22T09:49:55Z</time>
      </trkpt>
      <trkpt lat="42.67871" lon="1.47458">
        <ele>2296.25</ele>
        <time>2013-04-22T09:50:26Z</time>
      </trkpt>
      <trkpt lat="42.6787" lon="1.47456">
        <ele>2298.17</ele>
        <time>2013-04-22T09:50:52Z</time>
      </trkpt>
      <trkpt lat="42.6787" lon="1.47455">
        <ele>2297.69</ele>
        <time>2013-04-22T09:50:53Z</time>
      </trkpt>
      <trkpt lat="42.67869" lon="1.47439">
        <ele>2297.21</ele>
        <time>2013-04-22T09:51:01Z</time>
      </trkpt>
      <trkpt lat="42.67866" lon="1.47431">
        <ele>2297.69</ele>
        <time>2013-04-22T09:51:05Z</time>
      </trkpt>
      <trkpt lat="42.67858" lon="1.47415">
        <ele>2295.28</ele>
        <time>2013-04-22T09:51:18Z</time>
      </trkpt>
      <trkpt lat="42.67848" lon="1.47401">
        <ele>2295.28</ele>
        <time>2013-04-22T09:51:31Z</time>
      </trkpt>
      <trkpt lat="42.67843" lon="1.47392">
        <ele>2293.36</ele>
        <time>2013-04-22T09:51:43Z</time>
      </trkpt>
      <trkpt lat="42.67838" lon="1.47385">
        <ele>2292.88</ele>
        <time>2013-04-22T09:51:50Z</time>
      </trkpt>
      <trkpt lat="42.67829" lon="1.47374">
        <ele>2294.32</ele>
        <time>2013-04-22T09:52:03Z</time>
      </trkpt>
      <trkpt lat="42.67826" lon="1.47369">
        <ele>2294.32</ele>
        <time>2013-04-22T09:52:09Z</time>
      </trkpt>
      <trkpt lat="42.67824" lon="1.47356">
        <ele>2298.65</ele>
        <time>2013-04-22T09:52:21Z</time>
      </trkpt>
      <trkpt lat="42.67825" lon="1.47348">
        <ele>2302.01</ele>
        <time>2013-04-22T09:52:32Z</time>
      </trkpt>
      <trkpt lat="42.67824" lon="1.47349">
        <ele>2302.98</ele>
        <time>2013-04-22T09:52:59Z</time>
      </trkpt>
      <trkpt lat="42.67824" lon="1.47343">
        <ele>2302.98</ele>
        <time>2013-04-22T09:53:12Z</time>
      </trkpt>
      <trkpt lat="42.67824" lon="1.4734">
        <ele>2303.46</ele>
        <time>2013-04-22T09:53:14Z</time>
      </trkpt>
      <trkpt lat="42.67821" lon="1.47318">
        <ele>2302.49</ele>
        <time>2013-04-22T09:53:23Z</time>
      </trkpt>
      <trkpt lat="42.6782" lon="1.47306">
        <ele>2303.94</ele>
        <time>2013-04-22T09:53:34Z</time>
      </trkpt>
      <trkpt lat="42.67809" lon="1.47308">
        <ele>2303.94</ele>
        <time>2013-04-22T09:53:47Z</time>
      </trkpt>
      <trkpt lat="42.6781" lon="1.47308">
        <ele>2298.65</ele>
        <time>2013-04-22T09:54:07Z</time>
      </trkpt>
      <trkpt lat="42.6781" lon="1.47308">
        <ele>2297.69</ele>
        <time>2013-04-22T09:54:34Z</time>
      </trkpt>
      <trkpt lat="42.67798" lon="1.47303">
        <ele>2295.77</ele>
        <time>2013-04-22T09:54:42Z</time>
      </trkpt>
      <trkpt lat="42.67786" lon="1.47299">
        <ele>2293.36</ele>
        <time>2013-04-22T09:54:51Z</time>
      </trkpt>
      <trkpt lat="42.67785" lon="1.47298">
        <ele>2292.88</ele>
        <time>2013-04-22T09:54:53Z</time>
      </trkpt>
      <trkpt lat="42.67782" lon="1.47288">
        <ele>2292.4</ele>
        <time>2013-04-22T09:55:05Z</time>
      </trkpt>
      <trkpt lat="42.6778" lon="1.47288">
        <ele>2293.36</ele>
        <time>2013-04-22T09:55:23Z</time>
      </trkpt>
      <trkpt lat="42.67782" lon="1.47287">
        <ele>2296.25</ele>
        <time>2013-04-22T09:55:57Z</time>
      </trkpt>
      <trkpt lat="42.67781" lon="1.47286">
        <ele>2295.77</ele>
        <time>2013-04-22T09:55:59Z</time>
      </trkpt>
      <trkpt lat="42.67772" lon="1.47279">
        <ele>2293.36</ele>
        <time>2013-04-22T09:56:04Z</time>
      </trkpt>
      <trkpt lat="42.67759" lon="1.47267">
        <ele>2290.96</ele>
        <time>2013-04-22T09:56:12Z</time>
      </trkpt>
      <trkpt lat="42.67758" lon="1.47267">
        <ele>2290.48</ele>
        <time>2013-04-22T09:56:13Z</time>
      </trkpt>
      <trkpt lat="42.67748" lon="1.47253">
        <ele>2289.04</ele>
        <time>2013-04-22T09:56:21Z</time>
      </trkpt>
      <trkpt lat="42.67728" lon="1.47237">
        <ele>2288.56</ele>
        <time>2013-04-22T09:56:28Z</time>
      </trkpt>
      <trkpt lat="42.67724" lon="1.47235">
        <ele>2290</ele>
        <time>2013-04-22T09:56:39Z</time>
      </trkpt>
      <trkpt lat="42.67722" lon="1.47234">
        <ele>2289.52</ele>
        <time>2013-04-22T09:56:50Z</time>
      </trkpt>
      <trkpt lat="42.67715" lon="1.47224">
        <ele>2290</ele>
        <time>2013-04-22T09:57:02Z</time>
      </trkpt>
      <trkpt lat="42.67712" lon="1.47218">
        <ele>2290</ele>
        <time>2013-04-22T09:57:13Z</time>
      </trkpt>
      <trkpt lat="42.67708" lon="1.47215">
        <ele>2290.96</ele>
        <time>2013-04-22T09:57:19Z</time>
      </trkpt>
      <trkpt lat="42.67704" lon="1.47209">
        <ele>2291.44</ele>
        <time>2013-04-22T09:57:29Z</time>
      </trkpt>
      <trkpt lat="42.67701" lon="1.47205">
        <ele>2292.4</ele>
        <time>2013-04-22T09:57:34Z</time>
      </trkpt>
      <trkpt lat="42.67698" lon="1.47195">
        <ele>2295.28</ele>
        <time>2013-04-22T09:57:45Z</time>
      </trkpt>
      <trkpt lat="42.67696" lon="1.47191">
        <ele>2295.77</ele>
        <time>2013-04-22T09:57:49Z</time>
      </trkpt>
      <trkpt lat="42.67692" lon="1.47181">
        <ele>2298.17</ele>
        <time>2013-04-22T09:58:00Z</time>
      </trkpt>
      <trkpt lat="42.67686" lon="1.47173">
        <ele>2299.61</ele>
        <time>2013-04-22T09:58:11Z</time>
      </trkpt>
      <trkpt lat="42.67676" lon="1.47169">
        <ele>2300.09</ele>
        <time>2013-04-22T09:58:24Z</time>
      </trkpt>
      <trkpt lat="42.67667" lon="1.47167">
        <ele>2301.53</ele>
        <time>2013-04-22T09:58:34Z</time>
      </trkpt>
      <trkpt lat="42.67659" lon="1.47162">
        <ele>2302.01</ele>
        <time>2013-04-22T09:58:47Z</time>
      </trkpt>
      <trkpt lat="42.67646" lon="1.47152">
        <ele>2302.01</ele>
        <time>2013-04-22T09:59:01Z</time>
      </trkpt>
      <trkpt lat="42.67639" lon="1.47149">
        <ele>2304.9</ele>
        <time>2013-04-22T09:59:13Z</time>
      </trkpt>
      <trkpt lat="42.67633" lon="1.47146">
        <ele>2307.78</ele>
        <time>2013-04-22T09:59:25Z</time>
      </trkpt>
      <trkpt lat="42.67625" lon="1.47145">
        <ele>2311.15</ele>
        <time>2013-04-22T09:59:38Z</time>
      </trkpt>
      <trkpt lat="42.67617" lon="1.47144">
        <ele>2314.51</ele>
        <time>2013-04-22T09:59:50Z</time>
      </trkpt>
      <trkpt lat="42.67614" lon="1.47144">
        <ele>2315.47</ele>
        <time>2013-04-22T09:59:54Z</time>
      </trkpt>
      <trkpt lat="42.67613" lon="1.47138">
        <ele>2315.47</ele>
        <time>2013-04-22T10:00:04Z</time>
      </trkpt>
      <trkpt lat="42.67613" lon="1.47137">
        <ele>2314.99</ele>
        <time>2013-04-22T10:00:26Z</time>
      </trkpt>
      <trkpt lat="42.67612" lon="1.47139">
        <ele>2314.99</ele>
        <time>2013-04-22T10:00:51Z</time>
      </trkpt>
      <trkpt lat="42.67612" lon="1.47137">
        <ele>2315.47</ele>
        <time>2013-04-22T10:01:08Z</time>
      </trkpt>
      <trkpt lat="42.67611" lon="1.47138">
        <ele>2317.4</ele>
        <time>2013-04-22T10:01:30Z</time>
      </trkpt>
      <trkpt lat="42.67609" lon="1.47139">
        <ele>2316.91</ele>
        <time>2013-04-22T10:01:33Z</time>
      </trkpt>
      <trkpt lat="42.67605" lon="1.47136">
        <ele>2316.43</ele>
        <time>2013-04-22T10:01:36Z</time>
      </trkpt>
      <trkpt lat="42.67601" lon="1.47133">
        <ele>2315.47</ele>
        <time>2013-04-22T10:01:40Z</time>
      </trkpt>
      <trkpt lat="42.67596" lon="1.4713">
        <ele>2314.99</ele>
        <time>2013-04-22T10:01:44Z</time>
      </trkpt>
      <trkpt lat="42.67593" lon="1.47127">
        <ele>2314.03</ele>
        <time>2013-04-22T10:01:47Z</time>
      </trkpt>
      <trkpt lat="42.67587" lon="1.47123">
        <ele>2313.07</ele>
        <time>2013-04-22T10:01:51Z</time>
      </trkpt>
      <trkpt lat="42.67584" lon="1.47121">
        <ele>2312.11</ele>
        <time>2013-04-22T10:01:55Z</time>
      </trkpt>
      <trkpt lat="42.67566" lon="1.47118">
        <ele>2310.19</ele>
        <time>2013-04-22T10:02:08Z</time>
      </trkpt>
      <trkpt lat="42.67559" lon="1.47119">
        <ele>2310.67</ele>
        <time>2013-04-22T10:02:16Z</time>
      </trkpt>
      <trkpt lat="42.67552" lon="1.47124">
        <ele>2311.15</ele>
        <time>2013-04-22T10:02:23Z</time>
      </trkpt>
      <trkpt lat="42.67541" lon="1.4713">
        <ele>2310.67</ele>
        <time>2013-04-22T10:02:35Z</time>
      </trkpt>
      <trkpt lat="42.67539" lon="1.47131">
        <ele>2312.11</ele>
        <time>2013-04-22T10:02:50Z</time>
      </trkpt>
      <trkpt lat="42.67538" lon="1.4713">
        <ele>2312.11</ele>
        <time>2013-04-22T10:03:13Z</time>
      </trkpt>
      <trkpt lat="42.67533" lon="1.47135">
        <ele>2313.55</ele>
        <time>2013-04-22T10:03:27Z</time>
      </trkpt>
      <trkpt lat="42.67532" lon="1.47135">
        <ele>2313.55</ele>
        <time>2013-04-22T10:03:28Z</time>
      </trkpt>
      <trkpt lat="42.67521" lon="1.4713">
        <ele>2314.51</ele>
        <time>2013-04-22T10:03:40Z</time>
      </trkpt>
      <trkpt lat="42.67521" lon="1.47127">
        <ele>2314.99</ele>
        <time>2013-04-22T10:03:43Z</time>
      </trkpt>
      <trkpt lat="42.67518" lon="1.47113">
        <ele>2317.88</ele>
        <time>2013-04-22T10:03:57Z</time>
      </trkpt>
      <trkpt lat="42.67517" lon="1.47112">
        <ele>2317.88</ele>
        <time>2013-04-22T10:03:59Z</time>
      </trkpt>
      <trkpt lat="42.6751" lon="1.47105">
        <ele>2317.4</ele>
        <time>2013-04-22T10:04:10Z</time>
      </trkpt>
      <trkpt lat="42.67506" lon="1.47102">
        <ele>2317.88</ele>
        <time>2013-04-22T10:04:16Z</time>
      </trkpt>
      <trkpt lat="42.67497" lon="1.47101">
        <ele>2320.76</ele>
        <time>2013-04-22T10:04:29Z</time>
      </trkpt>
      <trkpt lat="42.6749" lon="1.47103">
        <ele>2324.12</ele>
        <time>2013-04-22T10:04:41Z</time>
      </trkpt>
      <trkpt lat="42.67482" lon="1.47108">
        <ele>2326.53</ele>
        <time>2013-04-22T10:04:54Z</time>
      </trkpt>
      <trkpt lat="42.67476" lon="1.47112">
        <ele>2327.97</ele>
        <time>2013-04-22T10:05:06Z</time>
      </trkpt>
      <trkpt lat="42.67473" lon="1.47118">
        <ele>2330.85</ele>
        <time>2013-04-22T10:05:20Z</time>
      </trkpt>
      <trkpt lat="42.67468" lon="1.47123">
        <ele>2330.85</ele>
        <time>2013-04-22T10:05:36Z</time>
      </trkpt>
      <trkpt lat="42.67465" lon="1.4713">
        <ele>2331.33</ele>
        <time>2013-04-22T10:05:52Z</time>
      </trkpt>
      <trkpt lat="42.67461" lon="1.47136">
        <ele>2333.74</ele>
        <time>2013-04-22T10:06:05Z</time>
      </trkpt>
      <trkpt lat="42.67457" lon="1.47141">
        <ele>2335.66</ele>
        <time>2013-04-22T10:06:19Z</time>
      </trkpt>
      <trkpt lat="42.67456" lon="1.47146">
        <ele>2337.1</ele>
        <time>2013-04-22T10:06:31Z</time>
      </trkpt>
      <trkpt lat="42.67455" lon="1.47151">
        <ele>2338.06</ele>
        <time>2013-04-22T10:06:44Z</time>
      </trkpt>
      <trkpt lat="42.67454" lon="1.47154">
        <ele>2340.47</ele>
        <time>2013-04-22T10:06:57Z</time>
      </trkpt>
      <trkpt lat="42.67456" lon="1.47156">
        <ele>2341.43</ele>
        <time>2013-04-22T10:07:08Z</time>
      </trkpt>
      <trkpt lat="42.67461" lon="1.47158">
        <ele>2338.54</ele>
        <time>2013-04-22T10:07:22Z</time>
      </trkpt>
      <trkpt lat="42.67462" lon="1.47159">
        <ele>2337.58</ele>
        <time>2013-04-22T10:07:27Z</time>
      </trkpt>
      <trkpt lat="42.67465" lon="1.47161">
        <ele>2333.74</ele>
        <time>2013-04-22T10:07:39Z</time>
      </trkpt>
      <trkpt lat="42.67465" lon="1.47164">
        <ele>2332.78</ele>
        <time>2013-04-22T10:07:53Z</time>
      </trkpt>
      <trkpt lat="42.67467" lon="1.47169">
        <ele>2332.78</ele>
        <time>2013-04-22T10:08:06Z</time>
      </trkpt>
      <trkpt lat="42.67467" lon="1.47175">
        <ele>2332.3</ele>
        <time>2013-04-22T10:08:19Z</time>
      </trkpt>
      <trkpt lat="42.67467" lon="1.47177">
        <ele>2333.26</ele>
        <time>2013-04-22T10:08:34Z</time>
      </trkpt>
      <trkpt lat="42.67467" lon="1.47183">
        <ele>2334.22</ele>
        <time>2013-04-22T10:08:48Z</time>
      </trkpt>
      <trkpt lat="42.67465" lon="1.47189">
        <ele>2335.18</ele>
        <time>2013-04-22T10:09:02Z</time>
      </trkpt>
      <trkpt lat="42.67462" lon="1.47196">
        <ele>2335.18</ele>
        <time>2013-04-22T10:09:16Z</time>
      </trkpt>
      <trkpt lat="42.6746" lon="1.47199">
        <ele>2338.06</ele>
        <time>2013-04-22T10:09:29Z</time>
      </trkpt>
      <trkpt lat="42.67459" lon="1.47205">
        <ele>2338.06</ele>
        <time>2013-04-22T10:09:42Z</time>
      </trkpt>
      <trkpt lat="42.67459" lon="1.47209">
        <ele>2338.54</ele>
        <time>2013-04-22T10:09:55Z</time>
      </trkpt>
      <trkpt lat="42.67457" lon="1.47208">
        <ele>2339.99</ele>
        <time>2013-04-22T10:10:14Z</time>
      </trkpt>
      <trkpt lat="42.67457" lon="1.4721">
        <ele>2340.47</ele>
        <time>2013-04-22T10:10:35Z</time>
      </trkpt>
      <trkpt lat="42.67453" lon="1.47211">
        <ele>2338.06</ele>
        <time>2013-04-22T10:10:55Z</time>
      </trkpt>
      <trkpt lat="42.67453" lon="1.4721">
        <ele>2336.62</ele>
        <time>2013-04-22T10:11:10Z</time>
      </trkpt>
      <trkpt lat="42.67454" lon="1.4721">
        <ele>2337.58</ele>
        <time>2013-04-22T10:11:27Z</time>
      </trkpt>
      <trkpt lat="42.67452" lon="1.47209">
        <ele>2337.1</ele>
        <time>2013-04-22T10:11:55Z</time>
      </trkpt>
      <trkpt lat="42.67452" lon="1.4721">
        <ele>2337.58</ele>
        <time>2013-04-22T10:12:26Z</time>
      </trkpt>
      <trkpt lat="42.6745" lon="1.47207">
        <ele>2340.47</ele>
        <time>2013-04-22T10:12:59Z</time>
      </trkpt>
      <trkpt lat="42.67451" lon="1.47207">
        <ele>2343.35</ele>
        <time>2013-04-22T10:13:26Z</time>
      </trkpt>
      <trkpt lat="42.67455" lon="1.47206">
        <ele>2342.87</ele>
        <time>2013-04-22T10:13:44Z</time>
      </trkpt>
      <trkpt lat="42.67456" lon="1.47207">
        <ele>2341.91</ele>
        <time>2013-04-22T10:13:57Z</time>
      </trkpt>
      <trkpt lat="42.67455" lon="1.47208">
        <ele>2339.99</ele>
        <time>2013-04-22T10:14:17Z</time>
      </trkpt>
      <trkpt lat="42.67455" lon="1.47206">
        <ele>2341.91</ele>
        <time>2013-04-22T10:14:39Z</time>
      </trkpt>
      <trkpt lat="42.67457" lon="1.47207">
        <ele>2339.99</ele>
        <time>2013-04-22T10:14:57Z</time>
      </trkpt>
      <trkpt lat="42.67457" lon="1.47212">
        <ele>2339.02</ele>
        <time>2013-04-22T10:15:15Z</time>
      </trkpt>
      <trkpt lat="42.67454" lon="1.47217">
        <ele>2340.95</ele>
        <time>2013-04-22T10:15:28Z</time>
      </trkpt>
      <trkpt lat="42.67453" lon="1.47225">
        <ele>2342.39</ele>
        <time>2013-04-22T10:15:41Z</time>
      </trkpt>
      <trkpt lat="42.67449" lon="1.47232">
        <ele>2343.83</ele>
        <time>2013-04-22T10:15:54Z</time>
      </trkpt>
      <trkpt lat="42.67449" lon="1.47231">
        <ele>2347.2</ele>
        <time>2013-04-22T10:16:08Z</time>
      </trkpt>
      <trkpt lat="42.67447" lon="1.47231">
        <ele>2348.64</ele>
        <time>2013-04-22T10:16:25Z</time>
      </trkpt>
      <trkpt lat="42.67448" lon="1.4724">
        <ele>2352.48</ele>
        <time>2013-04-22T10:16:39Z</time>
      </trkpt>
      <trkpt lat="42.67447" lon="1.47242">
        <ele>2353.44</ele>
        <time>2013-04-22T10:16:43Z</time>
      </trkpt>
      <trkpt lat="42.67447" lon="1.4725">
        <ele>2354.89</ele>
        <time>2013-04-22T10:16:57Z</time>
      </trkpt>
      <trkpt lat="42.67445" lon="1.47249">
        <ele>2353.44</ele>
        <time>2013-04-22T10:17:12Z</time>
      </trkpt>
      <trkpt lat="42.6744" lon="1.47244">
        <ele>2352.96</ele>
        <time>2013-04-22T10:17:25Z</time>
      </trkpt>
      <trkpt lat="42.67437" lon="1.47242">
        <ele>2353.44</ele>
        <time>2013-04-22T10:17:39Z</time>
      </trkpt>
      <trkpt lat="42.67434" lon="1.47239">
        <ele>2357.29</ele>
        <time>2013-04-22T10:17:51Z</time>
      </trkpt>
      <trkpt lat="42.67429" lon="1.47236">
        <ele>2357.77</ele>
        <time>2013-04-22T10:18:03Z</time>
      </trkpt>
      <trkpt lat="42.67424" lon="1.47229">
        <ele>2359.21</ele>
        <time>2013-04-22T10:18:16Z</time>
      </trkpt>
      <trkpt lat="42.67425" lon="1.47226">
        <ele>2361.14</ele>
        <time>2013-04-22T10:18:30Z</time>
      </trkpt>
      <trkpt lat="42.67422" lon="1.47223">
        <ele>2360.65</ele>
        <time>2013-04-22T10:18:40Z</time>
      </trkpt>
      <trkpt lat="42.67422" lon="1.4722">
        <ele>2361.14</ele>
        <time>2013-04-22T10:18:50Z</time>
      </trkpt>
      <trkpt lat="42.67422" lon="1.47216">
        <ele>2358.73</ele>
        <time>2013-04-22T10:19:03Z</time>
      </trkpt>
      <trkpt lat="42.67428" lon="1.47215">
        <ele>2361.62</ele>
        <time>2013-04-22T10:19:20Z</time>
      </trkpt>
      <trkpt lat="42.67425" lon="1.47216">
        <ele>2362.1</ele>
        <time>2013-04-22T10:19:41Z</time>
      </trkpt>
      <trkpt lat="42.67428" lon="1.47214">
        <ele>2363.06</ele>
        <time>2013-04-22T10:19:56Z</time>
      </trkpt>
      <trkpt lat="42.67436" lon="1.47215">
        <ele>2366.42</ele>
        <time>2013-04-22T10:20:21Z</time>
      </trkpt>
      <trkpt lat="42.67434" lon="1.47216">
        <ele>2364.02</ele>
        <time>2013-04-22T10:20:48Z</time>
      </trkpt>
      <trkpt lat="42.6743" lon="1.47218">
        <ele>2365.94</ele>
        <time>2013-04-22T10:21:09Z</time>
      </trkpt>
      <trkpt lat="42.67429" lon="1.47217">
        <ele>2368.83</ele>
        <time>2013-04-22T10:21:44Z</time>
      </trkpt>
      <trkpt lat="42.67429" lon="1.47217">
        <ele>2370.75</ele>
        <time>2013-04-22T10:21:58Z</time>
      </trkpt>
      <trkpt lat="42.67427" lon="1.47215">
        <ele>2370.27</ele>
        <time>2013-04-22T10:22:15Z</time>
      </trkpt>
      <trkpt lat="42.67424" lon="1.4721">
        <ele>2370.75</ele>
        <time>2013-04-22T10:22:33Z</time>
      </trkpt>
      <trkpt lat="42.67424" lon="1.4721">
        <ele>2371.71</ele>
        <time>2013-04-22T10:22:46Z</time>
      </trkpt>
      <trkpt lat="42.6742" lon="1.47204">
        <ele>2372.67</ele>
        <time>2013-04-22T10:23:03Z</time>
      </trkpt>
      <trkpt lat="42.67418" lon="1.47197">
        <ele>2372.67</ele>
        <time>2013-04-22T10:23:17Z</time>
      </trkpt>
      <trkpt lat="42.67417" lon="1.47188">
        <ele>2375.55</ele>
        <time>2013-04-22T10:23:33Z</time>
      </trkpt>
      <trkpt lat="42.67416" lon="1.47184">
        <ele>2377</ele>
        <time>2013-04-22T10:23:46Z</time>
      </trkpt>
      <trkpt lat="42.67413" lon="1.47188">
        <ele>2377</ele>
        <time>2013-04-22T10:24:00Z</time>
      </trkpt>
      <trkpt lat="42.67411" lon="1.47185">
        <ele>2376.04</ele>
        <time>2013-04-22T10:24:15Z</time>
      </trkpt>
      <trkpt lat="42.6741" lon="1.4718">
        <ele>2376.52</ele>
        <time>2013-04-22T10:24:27Z</time>
      </trkpt>
      <trkpt lat="42.6741" lon="1.47184">
        <ele>2376.04</ele>
        <time>2013-04-22T10:24:39Z</time>
      </trkpt>
      <trkpt lat="42.67407" lon="1.47188">
        <ele>2376.52</ele>
        <time>2013-04-22T10:24:51Z</time>
      </trkpt>
      <trkpt lat="42.67407" lon="1.47188">
        <ele>2376.52</ele>
        <time>2013-04-22T10:24:53Z</time>
      </trkpt>
      <trkpt lat="42.67407" lon="1.47183">
        <ele>2376.04</ele>
        <time>2013-04-22T10:25:06Z</time>
      </trkpt>
      <trkpt lat="42.67404" lon="1.47176">
        <ele>2377.48</ele>
        <time>2013-04-22T10:25:18Z</time>
      </trkpt>
      <trkpt lat="42.67403" lon="1.4717">
        <ele>2379.4</ele>
        <time>2013-04-22T10:25:30Z</time>
      </trkpt>
      <trkpt lat="42.67401" lon="1.47172">
        <ele>2379.88</ele>
        <time>2013-04-22T10:25:43Z</time>
      </trkpt>
      <trkpt lat="42.67397" lon="1.47176">
        <ele>2379.88</ele>
        <time>2013-04-22T10:25:53Z</time>
      </trkpt>
      <trkpt lat="42.67394" lon="1.47182">
        <ele>2378.92</ele>
        <time>2013-04-22T10:26:06Z</time>
      </trkpt>
      <trkpt lat="42.6739" lon="1.47188">
        <ele>2377</ele>
        <time>2013-04-22T10:26:18Z</time>
      </trkpt>
      <trkpt lat="42.67389" lon="1.47189">
        <ele>2376.04</ele>
        <time>2013-04-22T10:26:33Z</time>
      </trkpt>
      <trkpt lat="42.67383" lon="1.47198">
        <ele>2377</ele>
        <time>2013-04-22T10:26:45Z</time>
      </trkpt>
      <trkpt lat="42.67378" lon="1.47201">
        <ele>2378.92</ele>
        <time>2013-04-22T10:26:59Z</time>
      </trkpt>
      <trkpt lat="42.67377" lon="1.47204">
        <ele>2383.73</ele>
        <time>2013-04-22T10:27:12Z</time>
      </trkpt>
      <trkpt lat="42.67375" lon="1.47207">
        <ele>2384.69</ele>
        <time>2013-04-22T10:27:16Z</time>
      </trkpt>
      <trkpt lat="42.67371" lon="1.47217">
        <ele>2386.61</ele>
        <time>2013-04-22T10:27:27Z</time>
      </trkpt>
      <trkpt lat="42.67368" lon="1.47232">
        <ele>2389.49</ele>
        <time>2013-04-22T10:27:39Z</time>
      </trkpt>
      <trkpt lat="42.67366" lon="1.4724">
        <ele>2391.42</ele>
        <time>2013-04-22T10:27:46Z</time>
      </trkpt>
      <trkpt lat="42.67363" lon="1.47243">
        <ele>2391.42</ele>
        <time>2013-04-22T10:27:52Z</time>
      </trkpt>
      <trkpt lat="42.67363" lon="1.47261">
        <ele>2395.26</ele>
        <time>2013-04-22T10:28:05Z</time>
      </trkpt>
      <trkpt lat="42.67364" lon="1.47279">
        <ele>2396.22</ele>
        <time>2013-04-22T10:28:17Z</time>
      </trkpt>
      <trkpt lat="42.67363" lon="1.47295">
        <ele>2396.7</ele>
        <time>2013-04-22T10:28:31Z</time>
      </trkpt>
      <trkpt lat="42.67363" lon="1.47296">
        <ele>2397.18</ele>
        <time>2013-04-22T10:28:32Z</time>
      </trkpt>
      <trkpt lat="42.67365" lon="1.47306">
        <ele>2399.59</ele>
        <time>2013-04-22T10:28:44Z</time>
      </trkpt>
      <trkpt lat="42.67367" lon="1.47317">
        <ele>2403.43</ele>
        <time>2013-04-22T10:28:56Z</time>
      </trkpt>
      <trkpt lat="42.67373" lon="1.47314">
        <ele>2407.28</ele>
        <time>2013-04-22T10:29:11Z</time>
      </trkpt>
      <trkpt lat="42.67372" lon="1.47316">
        <ele>2407.76</ele>
        <time>2013-04-22T10:29:12Z</time>
      </trkpt>
      <trkpt lat="42.67368" lon="1.47321">
        <ele>2406.8</ele>
        <time>2013-04-22T10:29:22Z</time>
      </trkpt>
      <trkpt lat="42.67367" lon="1.47307">
        <ele>2403.91</ele>
        <time>2013-04-22T10:29:39Z</time>
      </trkpt>
      <trkpt lat="42.67371" lon="1.47307">
        <ele>2401.51</ele>
        <time>2013-04-22T10:29:48Z</time>
      </trkpt>
      <trkpt lat="42.67371" lon="1.473">
        <ele>2401.51</ele>
        <time>2013-04-22T10:30:03Z</time>
      </trkpt>
      <trkpt lat="42.67368" lon="1.47303">
        <ele>2401.51</ele>
        <time>2013-04-22T10:30:18Z</time>
      </trkpt>
      <trkpt lat="42.67364" lon="1.47307">
        <ele>2398.15</ele>
        <time>2013-04-22T10:30:45Z</time>
      </trkpt>
      <trkpt lat="42.67367" lon="1.4731">
        <ele>2396.22</ele>
        <time>2013-04-22T10:31:03Z</time>
      </trkpt>
      <trkpt lat="42.67369" lon="1.47308">
        <ele>2394.78</ele>
        <time>2013-04-22T10:31:30Z</time>
      </trkpt>
      <trkpt lat="42.67363" lon="1.47308">
        <ele>2390.94</ele>
        <time>2013-04-22T10:31:52Z</time>
      </trkpt>
      <trkpt lat="42.67359" lon="1.47309">
        <ele>2383.73</ele>
        <time>2013-04-22T10:32:18Z</time>
      </trkpt>
      <trkpt lat="42.67365" lon="1.47311">
        <ele>2383.73</ele>
        <time>2013-04-22T10:32:47Z</time>
      </trkpt>
      <trkpt lat="42.67363" lon="1.47309">
        <ele>2382.28</ele>
        <time>2013-04-22T10:33:11Z</time>
      </trkpt>
      <trkpt lat="42.67368" lon="1.47313">
        <ele>2379.88</ele>
        <time>2013-04-22T10:33:26Z</time>
      </trkpt>
      <trkpt lat="42.67365" lon="1.47311">
        <ele>2381.8</ele>
        <time>2013-04-22T10:33:52Z</time>
      </trkpt>
      <trkpt lat="42.67364" lon="1.47302">
        <ele>2375.07</ele>
        <time>2013-04-22T10:34:20Z</time>
      </trkpt>
      <trkpt lat="42.67365" lon="1.47316">
        <ele>2373.15</ele>
        <time>2013-04-22T10:34:45Z</time>
      </trkpt>
      <trkpt lat="42.67369" lon="1.47315">
        <ele>2375.55</ele>
        <time>2013-04-22T10:35:07Z</time>
      </trkpt>
      <trkpt lat="42.6737" lon="1.47315">
        <ele>2384.21</ele>
        <time>2013-04-22T10:35:39Z</time>
      </trkpt>
      <trkpt lat="42.67366" lon="1.47323">
        <ele>2384.69</ele>
        <time>2013-04-22T10:35:56Z</time>
      </trkpt>
      <trkpt lat="42.67369" lon="1.47321">
        <ele>2386.61</ele>
        <time>2013-04-22T10:36:13Z</time>
      </trkpt>
      <trkpt lat="42.67372" lon="1.47312">
        <ele>2395.26</ele>
        <time>2013-04-22T10:36:42Z</time>
      </trkpt>
      <trkpt lat="42.67373" lon="1.47309">
        <ele>2406.32</ele>
        <time>2013-04-22T10:37:10Z</time>
      </trkpt>
      <trkpt lat="42.67375" lon="1.47308">
        <ele>2403.91</ele>
        <time>2013-04-22T10:37:39Z</time>
      </trkpt>
      <trkpt lat="42.67373" lon="1.47309">
        <ele>2402.95</ele>
        <time>2013-04-22T10:38:03Z</time>
      </trkpt>
      <trkpt lat="42.67374" lon="1.47309">
        <ele>2400.07</ele>
        <time>2013-04-22T10:38:36Z</time>
      </trkpt>
      <trkpt lat="42.67373" lon="1.47313">
        <ele>2402.47</ele>
        <time>2013-04-22T10:38:59Z</time>
      </trkpt>
      <trkpt lat="42.67373" lon="1.47312">
        <ele>2401.03</ele>
        <time>2013-04-22T10:39:14Z</time>
      </trkpt>
      <trkpt lat="42.67372" lon="1.47313">
        <ele>2403.43</ele>
        <time>2013-04-22T10:39:37Z</time>
      </trkpt>
      <trkpt lat="42.67368" lon="1.47323">
        <ele>2404.88</ele>
        <time>2013-04-22T10:39:51Z</time>
      </trkpt>
      <trkpt lat="42.67367" lon="1.47329">
        <ele>2404.39</ele>
        <time>2013-04-22T10:39:57Z</time>
      </trkpt>
      <trkpt lat="42.67365" lon="1.4734">
        <ele>2403.43</ele>
        <time>2013-04-22T10:40:09Z</time>
      </trkpt>
      <trkpt lat="42.67364" lon="1.47344">
        <ele>2403.43</ele>
        <time>2013-04-22T10:40:11Z</time>
      </trkpt>
      <trkpt lat="42.67359" lon="1.47357">
        <ele>2403.43</ele>
        <time>2013-04-22T10:40:26Z</time>
      </trkpt>
      <trkpt lat="42.67356" lon="1.47365">
        <ele>2401.03</ele>
        <time>2013-04-22T10:40:40Z</time>
      </trkpt>
      <trkpt lat="42.67353" lon="1.47376">
        <ele>2401.51</ele>
        <time>2013-04-22T10:40:54Z</time>
      </trkpt>
      <trkpt lat="42.6735" lon="1.47387">
        <ele>2403.91</ele>
        <time>2013-04-22T10:41:07Z</time>
      </trkpt>
      <trkpt lat="42.67347" lon="1.47394">
        <ele>2405.84</ele>
        <time>2013-04-22T10:41:18Z</time>
      </trkpt>
      <trkpt lat="42.67343" lon="1.47402">
        <ele>2407.76</ele>
        <time>2013-04-22T10:41:31Z</time>
      </trkpt>
      <trkpt lat="42.67336" lon="1.47394">
        <ele>2408.24</ele>
        <time>2013-04-22T10:41:45Z</time>
      </trkpt>
      <trkpt lat="42.67331" lon="1.47387">
        <ele>2413.53</ele>
        <time>2013-04-22T10:41:56Z</time>
      </trkpt>
      <trkpt lat="42.67328" lon="1.47392">
        <ele>2417.85</ele>
        <time>2013-04-22T10:42:08Z</time>
      </trkpt>
      <trkpt lat="42.67326" lon="1.474">
        <ele>2418.33</ele>
        <time>2013-04-22T10:42:22Z</time>
      </trkpt>
      <trkpt lat="42.67328" lon="1.47412">
        <ele>2419.78</ele>
        <time>2013-04-22T10:42:36Z</time>
      </trkpt>
      <trkpt lat="42.67329" lon="1.47424">
        <ele>2420.74</ele>
        <time>2013-04-22T10:42:50Z</time>
      </trkpt>
      <trkpt lat="42.67324" lon="1.47431">
        <ele>2422.66</ele>
        <time>2013-04-22T10:43:01Z</time>
      </trkpt>
      <trkpt lat="42.67318" lon="1.47438">
        <ele>2424.1</ele>
        <time>2013-04-22T10:43:14Z</time>
      </trkpt>
      <trkpt lat="42.67311" lon="1.47444">
        <ele>2425.54</ele>
        <time>2013-04-22T10:43:26Z</time>
      </trkpt>
      <trkpt lat="42.67305" lon="1.47447">
        <ele>2427.95</ele>
        <time>2013-04-22T10:43:36Z</time>
      </trkpt>
      <trkpt lat="42.67302" lon="1.4745">
        <ele>2429.39</ele>
        <time>2013-04-22T10:43:41Z</time>
      </trkpt>
      <trkpt lat="42.67293" lon="1.4745">
        <ele>2432.75</ele>
        <time>2013-04-22T10:43:52Z</time>
      </trkpt>
      <trkpt lat="42.67284" lon="1.4745">
        <ele>2436.6</ele>
        <time>2013-04-22T10:44:04Z</time>
      </trkpt>
      <trkpt lat="42.67277" lon="1.47449">
        <ele>2437.08</ele>
        <time>2013-04-22T10:44:15Z</time>
      </trkpt>
      <trkpt lat="42.67266" lon="1.47448">
        <ele>2439.96</ele>
        <time>2013-04-22T10:44:28Z</time>
      </trkpt>
      <trkpt lat="42.67257" lon="1.47445">
        <ele>2442.37</ele>
        <time>2013-04-22T10:44:41Z</time>
      </trkpt>
      <trkpt lat="42.67249" lon="1.47441">
        <ele>2442.85</ele>
        <time>2013-04-22T10:44:54Z</time>
      </trkpt>
      <trkpt lat="42.67243" lon="1.47438">
        <ele>2442.37</ele>
        <time>2013-04-22T10:45:07Z</time>
      </trkpt>
      <trkpt lat="42.67235" lon="1.47436">
        <ele>2443.33</ele>
        <time>2013-04-22T10:45:20Z</time>
      </trkpt>
      <trkpt lat="42.67226" lon="1.47433">
        <ele>2444.77</ele>
        <time>2013-04-22T10:45:37Z</time>
      </trkpt>
      <trkpt lat="42.6722" lon="1.47431">
        <ele>2448.13</ele>
        <time>2013-04-22T10:45:51Z</time>
      </trkpt>
      <trkpt lat="42.67213" lon="1.4743">
        <ele>2447.65</ele>
        <time>2013-04-22T10:46:04Z</time>
      </trkpt>
      <trkpt lat="42.67205" lon="1.47429">
        <ele>2449.58</ele>
        <time>2013-04-22T10:46:13Z</time>
      </trkpt>
      <trkpt lat="42.672" lon="1.47429">
        <ele>2452.94</ele>
        <time>2013-04-22T10:46:24Z</time>
      </trkpt>
      <trkpt lat="42.672" lon="1.47432">
        <ele>2458.23</ele>
        <time>2013-04-22T10:46:48Z</time>
      </trkpt>
      <trkpt lat="42.67198" lon="1.4743">
        <ele>2458.71</ele>
        <time>2013-04-22T10:47:15Z</time>
      </trkpt>
      <trkpt lat="42.67197" lon="1.47428">
        <ele>2459.67</ele>
        <time>2013-04-22T10:47:36Z</time>
      </trkpt>
      <trkpt lat="42.67193" lon="1.47428">
        <ele>2459.67</ele>
        <time>2013-04-22T10:47:42Z</time>
      </trkpt>
      <trkpt lat="42.67187" lon="1.47426">
        <ele>2456.79</ele>
        <time>2013-04-22T10:47:57Z</time>
      </trkpt>
      <trkpt lat="42.67187" lon="1.47426">
        <ele>2456.31</ele>
        <time>2013-04-22T10:48:17Z</time>
      </trkpt>
      <trkpt lat="42.6719" lon="1.47426">
        <ele>2461.11</ele>
        <time>2013-04-22T10:48:28Z</time>
      </trkpt>
      <trkpt lat="42.67193" lon="1.47423">
        <ele>2463.04</ele>
        <time>2013-04-22T10:48:41Z</time>
      </trkpt>
      <trkpt lat="42.6719" lon="1.47418">
        <ele>2462.55</ele>
        <time>2013-04-22T10:48:53Z</time>
      </trkpt>
      <trkpt lat="42.67195" lon="1.47415">
        <ele>2462.55</ele>
        <time>2013-04-22T10:49:04Z</time>
      </trkpt>
      <trkpt lat="42.67192" lon="1.47408">
        <ele>2464.96</ele>
        <time>2013-04-22T10:49:16Z</time>
      </trkpt>
      <trkpt lat="42.6719" lon="1.47402">
        <ele>2467.84</ele>
        <time>2013-04-22T10:49:27Z</time>
      </trkpt>
      <trkpt lat="42.67189" lon="1.474">
        <ele>2468.32</ele>
        <time>2013-04-22T10:49:32Z</time>
      </trkpt>
      <trkpt lat="42.67192" lon="1.47396">
        <ele>2468.32</ele>
        <time>2013-04-22T10:49:42Z</time>
      </trkpt>
      <trkpt lat="42.67194" lon="1.47389">
        <ele>2470.24</ele>
        <time>2013-04-22T10:49:54Z</time>
      </trkpt>
      <trkpt lat="42.67191" lon="1.47388">
        <ele>2473.13</ele>
        <time>2013-04-22T10:50:07Z</time>
      </trkpt>
      <trkpt lat="42.67181" lon="1.47383">
        <ele>2477.94</ele>
        <time>2013-04-22T10:50:20Z</time>
      </trkpt>
      <trkpt lat="42.67176" lon="1.47379">
        <ele>2477.94</ele>
        <time>2013-04-22T10:50:34Z</time>
      </trkpt>
      <trkpt lat="42.67177" lon="1.47378">
        <ele>2476.49</ele>
        <time>2013-04-22T10:50:49Z</time>
      </trkpt>
      <trkpt lat="42.67174" lon="1.47377">
        <ele>2477.94</ele>
        <time>2013-04-22T10:51:02Z</time>
      </trkpt>
      <trkpt lat="42.67174" lon="1.47379">
        <ele>2476.49</ele>
        <time>2013-04-22T10:51:25Z</time>
      </trkpt>
      <trkpt lat="42.67174" lon="1.47376">
        <ele>2480.34</ele>
        <time>2013-04-22T10:51:39Z</time>
      </trkpt>
      <trkpt lat="42.67174" lon="1.47377">
        <ele>2481.78</ele>
        <time>2013-04-22T10:51:49Z</time>
      </trkpt>
      <trkpt lat="42.67176" lon="1.47383">
        <ele>2481.78</ele>
        <time>2013-04-22T10:52:21Z</time>
      </trkpt>
      <trkpt lat="42.67176" lon="1.47382">
        <ele>2484.66</ele>
        <time>2013-04-22T10:52:53Z</time>
      </trkpt>
      <trkpt lat="42.67178" lon="1.47382">
        <ele>2483.22</ele>
        <time>2013-04-22T10:53:18Z</time>
      </trkpt>
      <trkpt lat="42.67179" lon="1.4738">
        <ele>2477.94</ele>
        <time>2013-04-22T10:53:46Z</time>
      </trkpt>
      <trkpt lat="42.67178" lon="1.4738">
        <ele>2476.49</ele>
        <time>2013-04-22T10:54:09Z</time>
      </trkpt>
      <trkpt lat="42.67176" lon="1.47382">
        <ele>2476.01</ele>
        <time>2013-04-22T10:54:42Z</time>
      </trkpt>
      <trkpt lat="42.6718" lon="1.47385">
        <ele>2473.13</ele>
        <time>2013-04-22T10:54:57Z</time>
      </trkpt>
      <trkpt lat="42.67182" lon="1.47382">
        <ele>2469.28</ele>
        <time>2013-04-22T10:55:33Z</time>
      </trkpt>
      <trkpt lat="42.6719" lon="1.47376">
        <ele>2467.84</ele>
        <time>2013-04-22T10:56:18Z</time>
      </trkpt>
      <trkpt lat="42.67187" lon="1.47381">
        <ele>2465.44</ele>
        <time>2013-04-22T10:56:54Z</time>
      </trkpt>
      <trkpt lat="42.67183" lon="1.47381">
        <ele>2469.28</ele>
        <time>2013-04-22T10:57:24Z</time>
      </trkpt>
      <trkpt lat="42.67183" lon="1.47383">
        <ele>2467.36</ele>
        <time>2013-04-22T10:57:53Z</time>
      </trkpt>
      <trkpt lat="42.67183" lon="1.47383">
        <ele>2465.92</ele>
        <time>2013-04-22T10:58:16Z</time>
      </trkpt>
      <trkpt lat="42.67179" lon="1.47378">
        <ele>2473.61</ele>
        <time>2013-04-22T10:58:28Z</time>
      </trkpt>
      <trkpt lat="42.67178" lon="1.47377">
        <ele>2473.61</ele>
        <time>2013-04-22T10:58:41Z</time>
      </trkpt>
      <trkpt lat="42.67175" lon="1.47379">
        <ele>2470.73</ele>
        <time>2013-04-22T10:59:01Z</time>
      </trkpt>
      <trkpt lat="42.67175" lon="1.47375">
        <ele>2474.09</ele>
        <time>2013-04-22T10:59:12Z</time>
      </trkpt>
      <trkpt lat="42.67177" lon="1.47366">
        <ele>2472.65</ele>
        <time>2013-04-22T10:59:24Z</time>
      </trkpt>
      <trkpt lat="42.67177" lon="1.47364">
        <ele>2472.65</ele>
        <time>2013-04-22T10:59:25Z</time>
      </trkpt>
      <trkpt lat="42.67181" lon="1.4735">
        <ele>2472.17</ele>
        <time>2013-04-22T10:59:38Z</time>
      </trkpt>
      <trkpt lat="42.6718" lon="1.47335">
        <ele>2474.57</ele>
        <time>2013-04-22T10:59:50Z</time>
      </trkpt>
      <trkpt lat="42.67179" lon="1.47323">
        <ele>2475.05</ele>
        <time>2013-04-22T11:00:02Z</time>
      </trkpt>
      <trkpt lat="42.67179" lon="1.47318">
        <ele>2476.49</ele>
        <time>2013-04-22T11:00:13Z</time>
      </trkpt>
      <trkpt lat="42.67179" lon="1.47317">
        <ele>2477.94</ele>
        <time>2013-04-22T11:00:15Z</time>
      </trkpt>
      <trkpt lat="42.67178" lon="1.47308">
        <ele>2481.3</ele>
        <time>2013-04-22T11:00:28Z</time>
      </trkpt>
      <trkpt lat="42.67177" lon="1.473">
        <ele>2483.7</ele>
        <time>2013-04-22T11:00:40Z</time>
      </trkpt>
      <trkpt lat="42.67177" lon="1.47292">
        <ele>2484.66</ele>
        <time>2013-04-22T11:00:50Z</time>
      </trkpt>
      <trkpt lat="42.6718" lon="1.47283">
        <ele>2488.51</ele>
        <time>2013-04-22T11:01:04Z</time>
      </trkpt>
      <trkpt lat="42.67181" lon="1.47277">
        <ele>2496.2</ele>
        <time>2013-04-22T11:01:17Z</time>
      </trkpt>
      <trkpt lat="42.67181" lon="1.4727">
        <ele>2501.01</ele>
        <time>2013-04-22T11:01:29Z</time>
      </trkpt>
      <trkpt lat="42.67183" lon="1.47266">
        <ele>2501.01</ele>
        <time>2013-04-22T11:01:41Z</time>
      </trkpt>
      <trkpt lat="42.67184" lon="1.47262">
        <ele>2503.41</ele>
        <time>2013-04-22T11:01:51Z</time>
      </trkpt>
      <trkpt lat="42.67186" lon="1.47259">
        <ele>2506.29</ele>
        <time>2013-04-22T11:02:05Z</time>
      </trkpt>
      <trkpt lat="42.67186" lon="1.47253">
        <ele>2508.7</ele>
        <time>2013-04-22T11:02:19Z</time>
      </trkpt>
      <trkpt lat="42.67184" lon="1.47245">
        <ele>2508.7</ele>
        <time>2013-04-22T11:02:31Z</time>
      </trkpt>
      <trkpt lat="42.67184" lon="1.47242">
        <ele>2510.14</ele>
        <time>2013-04-22T11:02:40Z</time>
      </trkpt>
      <trkpt lat="42.67191" lon="1.47241">
        <ele>2512.54</ele>
        <time>2013-04-22T11:02:51Z</time>
      </trkpt>
      <trkpt lat="42.67192" lon="1.47242">
        <ele>2514.95</ele>
        <time>2013-04-22T11:03:04Z</time>
      </trkpt>
      <trkpt lat="42.67197" lon="1.47239">
        <ele>2517.35</ele>
        <time>2013-04-22T11:03:16Z</time>
      </trkpt>
      <trkpt lat="42.67195" lon="1.47236">
        <ele>2519.75</ele>
        <time>2013-04-22T11:03:30Z</time>
      </trkpt>
      <trkpt lat="42.6719" lon="1.4723">
        <ele>2519.75</ele>
        <time>2013-04-22T11:03:45Z</time>
      </trkpt>
      <trkpt lat="42.67188" lon="1.47223">
        <ele>2520.23</ele>
        <time>2013-04-22T11:04:00Z</time>
      </trkpt>
      <trkpt lat="42.67186" lon="1.47227">
        <ele>2521.68</ele>
        <time>2013-04-22T11:04:18Z</time>
      </trkpt>
      <trkpt lat="42.67188" lon="1.47226">
        <ele>2522.64</ele>
        <time>2013-04-22T11:04:32Z</time>
      </trkpt>
      <trkpt lat="42.67192" lon="1.47226">
        <ele>2523.6</ele>
        <time>2013-04-22T11:04:46Z</time>
      </trkpt>
      <trkpt lat="42.67194" lon="1.47226">
        <ele>2525.52</ele>
        <time>2013-04-22T11:05:04Z</time>
      </trkpt>
      <trkpt lat="42.67194" lon="1.47226">
        <ele>2526.48</ele>
        <time>2013-04-22T11:05:19Z</time>
      </trkpt>
      <trkpt lat="42.67196" lon="1.47225">
        <ele>2526.48</ele>
        <time>2013-04-22T11:05:34Z</time>
      </trkpt>
      <trkpt lat="42.67197" lon="1.47223">
        <ele>2529.37</ele>
        <time>2013-04-22T11:05:48Z</time>
      </trkpt>
      <trkpt lat="42.67198" lon="1.47224">
        <ele>2529.37</ele>
        <time>2013-04-22T11:06:01Z</time>
      </trkpt>
      <trkpt lat="42.67198" lon="1.47225">
        <ele>2528.89</ele>
        <time>2013-04-22T11:06:20Z</time>
      </trkpt>
      <trkpt lat="42.67196" lon="1.47225">
        <ele>2533.21</ele>
        <time>2013-04-22T11:06:40Z</time>
      </trkpt>
      <trkpt lat="42.67195" lon="1.47227">
        <ele>2531.29</ele>
        <time>2013-04-22T11:07:00Z</time>
      </trkpt>
      <trkpt lat="42.67198" lon="1.47224">
        <ele>2530.81</ele>
        <time>2013-04-22T11:07:15Z</time>
      </trkpt>
      <trkpt lat="42.67198" lon="1.47223">
        <ele>2530.33</ele>
        <time>2013-04-22T11:07:27Z</time>
      </trkpt>
      <trkpt lat="42.67197" lon="1.47223">
        <ele>2526.96</ele>
        <time>2013-04-22T11:07:47Z</time>
      </trkpt>
      <trkpt lat="42.67196" lon="1.47219">
        <ele>2525.52</ele>
        <time>2013-04-22T11:08:21Z</time>
      </trkpt>
      <trkpt lat="42.67197" lon="1.47225">
        <ele>2527.92</ele>
        <time>2013-04-22T11:08:53Z</time>
      </trkpt>
      <trkpt lat="42.67196" lon="1.47227">
        <ele>2529.85</ele>
        <time>2013-04-22T11:09:26Z</time>
      </trkpt>
      <trkpt lat="42.67197" lon="1.47226">
        <ele>2532.73</ele>
        <time>2013-04-22T11:09:59Z</time>
      </trkpt>
      <trkpt lat="42.67195" lon="1.47226">
        <ele>2534.17</ele>
        <time>2013-04-22T11:10:32Z</time>
      </trkpt>
      <trkpt lat="42.67197" lon="1.47227">
        <ele>2529.85</ele>
        <time>2013-04-22T11:11:04Z</time>
      </trkpt>
      <trkpt lat="42.67195" lon="1.47227">
        <ele>2526</ele>
        <time>2013-04-22T11:11:25Z</time>
      </trkpt>
      <trkpt lat="42.67193" lon="1.47227">
        <ele>2521.68</ele>
        <time>2013-04-22T11:11:56Z</time>
      </trkpt>
      <trkpt lat="42.67192" lon="1.47227">
        <ele>2519.27</ele>
        <time>2013-04-22T11:12:26Z</time>
      </trkpt>
      <trkpt lat="42.67196" lon="1.47228">
        <ele>2517.83</ele>
        <time>2013-04-22T11:12:54Z</time>
      </trkpt>
      <trkpt lat="42.67197" lon="1.47223">
        <ele>2521.68</ele>
        <time>2013-04-22T11:13:25Z</time>
      </trkpt>
      <trkpt lat="42.67197" lon="1.47224">
        <ele>2527.44</ele>
        <time>2013-04-22T11:13:39Z</time>
      </trkpt>
      <trkpt lat="42.67194" lon="1.47226">
        <ele>2528.4</ele>
        <time>2013-04-22T11:14:08Z</time>
      </trkpt>
      <trkpt lat="42.67195" lon="1.47226">
        <ele>2529.85</ele>
        <time>2013-04-22T11:14:38Z</time>
      </trkpt>
      <trkpt lat="42.67195" lon="1.47227">
        <ele>2530.33</ele>
        <time>2013-04-22T11:15:12Z</time>
      </trkpt>
      <trkpt lat="42.67194" lon="1.47227">
        <ele>2534.17</ele>
        <time>2013-04-22T11:15:45Z</time>
      </trkpt>
      <trkpt lat="42.67194" lon="1.47228">
        <ele>2536.58</ele>
        <time>2013-04-22T11:16:14Z</time>
      </trkpt>
      <trkpt lat="42.67195" lon="1.47227">
        <ele>2538.5</ele>
        <time>2013-04-22T11:16:45Z</time>
      </trkpt>
      <trkpt lat="42.67196" lon="1.47227">
        <ele>2539.94</ele>
        <time>2013-04-22T11:17:15Z</time>
      </trkpt>
      <trkpt lat="42.67195" lon="1.47225">
        <ele>2536.58</ele>
        <time>2013-04-22T11:17:51Z</time>
      </trkpt>
      <trkpt lat="42.67199" lon="1.47225">
        <ele>2535.61</ele>
        <time>2013-04-22T11:18:18Z</time>
      </trkpt>
      <trkpt lat="42.67196" lon="1.47226">
        <ele>2532.73</ele>
        <time>2013-04-22T11:18:49Z</time>
      </trkpt>
      <trkpt lat="42.67196" lon="1.47226">
        <ele>2530.33</ele>
        <time>2013-04-22T11:19:22Z</time>
      </trkpt>
      <trkpt lat="42.67196" lon="1.47228">
        <ele>2532.25</ele>
        <time>2013-04-22T11:19:57Z</time>
      </trkpt>
      <trkpt lat="42.67198" lon="1.47224">
        <ele>2535.61</ele>
        <time>2013-04-22T11:20:33Z</time>
      </trkpt>
      <trkpt lat="42.67199" lon="1.47225">
        <ele>2537.06</ele>
        <time>2013-04-22T11:21:01Z</time>
      </trkpt>
      <trkpt lat="42.67199" lon="1.47227">
        <ele>2537.06</ele>
        <time>2013-04-22T11:21:39Z</time>
      </trkpt>
      <trkpt lat="42.67198" lon="1.47229">
        <ele>2539.94</ele>
        <time>2013-04-22T11:22:20Z</time>
      </trkpt>
      <trkpt lat="42.67198" lon="1.47226">
        <ele>2538.5</ele>
        <time>2013-04-22T11:22:52Z</time>
      </trkpt>
      <trkpt lat="42.67196" lon="1.47227">
        <ele>2535.61</ele>
        <time>2013-04-22T11:23:06Z</time>
      </trkpt>
      <trkpt lat="42.67197" lon="1.47227">
        <ele>2531.29</ele>
        <time>2013-04-22T11:23:27Z</time>
      </trkpt>
      <trkpt lat="42.67198" lon="1.47228">
        <ele>2527.92</ele>
        <time>2013-04-22T11:23:50Z</time>
      </trkpt>
      <trkpt lat="42.67195" lon="1.47228">
        <ele>2529.37</ele>
        <time>2013-04-22T11:24:17Z</time>
      </trkpt>
      <trkpt lat="42.67198" lon="1.47225">
        <ele>2530.81</ele>
        <time>2013-04-22T11:24:33Z</time>
      </trkpt>
      <trkpt lat="42.672" lon="1.47222">
        <ele>2530.81</ele>
        <time>2013-04-22T11:24:46Z</time>
      </trkpt>
      <trkpt lat="42.67199" lon="1.47217">
        <ele>2532.25</ele>
        <time>2013-04-22T11:25:00Z</time>
      </trkpt>
      <trkpt lat="42.67199" lon="1.47215">
        <ele>2532.73</ele>
        <time>2013-04-22T11:25:14Z</time>
      </trkpt>
      <trkpt lat="42.67202" lon="1.47211">
        <ele>2535.13</ele>
        <time>2013-04-22T11:25:28Z</time>
      </trkpt>
      <trkpt lat="42.67201" lon="1.47212">
        <ele>2535.61</ele>
        <time>2013-04-22T11:25:42Z</time>
      </trkpt>
      <trkpt lat="42.67201" lon="1.47211">
        <ele>2537.54</ele>
        <time>2013-04-22T11:25:53Z</time>
      </trkpt>
      <trkpt lat="42.67199" lon="1.47209">
        <ele>2537.54</ele>
        <time>2013-04-22T11:26:06Z</time>
      </trkpt>
      <trkpt lat="42.67199" lon="1.47209">
        <ele>2536.58</ele>
        <time>2013-04-22T11:26:19Z</time>
      </trkpt>
      <trkpt lat="42.67199" lon="1.4721">
        <ele>2537.54</ele>
        <time>2013-04-22T11:26:35Z</time>
      </trkpt>
      <trkpt lat="42.67199" lon="1.47208">
        <ele>2538.5</ele>
        <time>2013-04-22T11:26:54Z</time>
      </trkpt>
      <trkpt lat="42.67202" lon="1.47208">
        <ele>2538.02</ele>
        <time>2013-04-22T11:27:12Z</time>
      </trkpt>
      <trkpt lat="42.672" lon="1.47208">
        <ele>2538.02</ele>
        <time>2013-04-22T11:27:28Z</time>
      </trkpt>
      <trkpt lat="42.672" lon="1.47208">
        <ele>2538.98</ele>
        <time>2013-04-22T11:27:42Z</time>
      </trkpt>
      <trkpt lat="42.67198" lon="1.47208">
        <ele>2540.42</ele>
        <time>2013-04-22T11:27:56Z</time>
      </trkpt>
      <trkpt lat="42.67196" lon="1.47207">
        <ele>2539.94</ele>
        <time>2013-04-22T11:28:09Z</time>
      </trkpt>
      <trkpt lat="42.67198" lon="1.47207">
        <ele>2541.38</ele>
        <time>2013-04-22T11:28:23Z</time>
      </trkpt>
      <trkpt lat="42.67198" lon="1.47205">
        <ele>2543.31</ele>
        <time>2013-04-22T11:28:41Z</time>
      </trkpt>
      <trkpt lat="42.67198" lon="1.47205">
        <ele>2541.38</ele>
        <time>2013-04-22T11:29:02Z</time>
      </trkpt>
      <trkpt lat="42.67196" lon="1.47204">
        <ele>2544.27</ele>
        <time>2013-04-22T11:29:17Z</time>
      </trkpt>
      <trkpt lat="42.67197" lon="1.47204">
        <ele>2545.23</ele>
        <time>2013-04-22T11:29:31Z</time>
      </trkpt>
      <trkpt lat="42.67198" lon="1.47201">
        <ele>2546.19</ele>
        <time>2013-04-22T11:29:43Z</time>
      </trkpt>
      <trkpt lat="42.672" lon="1.472">
        <ele>2546.19</ele>
        <time>2013-04-22T11:29:56Z</time>
      </trkpt>
      <trkpt lat="42.67202" lon="1.47202">
        <ele>2547.15</ele>
        <time>2013-04-22T11:30:10Z</time>
      </trkpt>
      <trkpt lat="42.67199" lon="1.47204">
        <ele>2547.63</ele>
        <time>2013-04-22T11:30:39Z</time>
      </trkpt>
      <trkpt lat="42.67203" lon="1.472">
        <ele>2550.51</ele>
        <time>2013-04-22T11:31:03Z</time>
      </trkpt>
      <trkpt lat="42.67203" lon="1.47199">
        <ele>2553.4</ele>
        <time>2013-04-22T11:31:18Z</time>
      </trkpt>
      <trkpt lat="42.67202" lon="1.472">
        <ele>2554.84</ele>
        <time>2013-04-22T11:31:31Z</time>
      </trkpt>
      <trkpt lat="42.67201" lon="1.47198">
        <ele>2555.32</ele>
        <time>2013-04-22T11:31:42Z</time>
      </trkpt>
      <trkpt lat="42.67201" lon="1.47202">
        <ele>2554.36</ele>
        <time>2013-04-22T11:32:03Z</time>
      </trkpt>
      <trkpt lat="42.672" lon="1.47201">
        <ele>2551.96</ele>
        <time>2013-04-22T11:32:20Z</time>
      </trkpt>
      <trkpt lat="42.67199" lon="1.47198">
        <ele>2544.75</ele>
        <time>2013-04-22T11:32:44Z</time>
      </trkpt>
      <trkpt lat="42.672" lon="1.47197">
        <ele>2545.23</ele>
        <time>2013-04-22T11:33:00Z</time>
      </trkpt>
      <trkpt lat="42.67201" lon="1.472">
        <ele>2545.71</ele>
        <time>2013-04-22T11:33:18Z</time>
      </trkpt>
      <trkpt lat="42.67202" lon="1.47198">
        <ele>2545.23</ele>
        <time>2013-04-22T11:33:38Z</time>
      </trkpt>
      <trkpt lat="42.67202" lon="1.47201">
        <ele>2544.27</ele>
        <time>2013-04-22T11:33:59Z</time>
      </trkpt>
      <trkpt lat="42.67205" lon="1.47198">
        <ele>2542.34</ele>
        <time>2013-04-22T11:34:18Z</time>
      </trkpt>
      <trkpt lat="42.67201" lon="1.47197">
        <ele>2538.98</ele>
        <time>2013-04-22T11:34:33Z</time>
      </trkpt>
      <trkpt lat="42.672" lon="1.47197">
        <ele>2538.02</ele>
        <time>2013-04-22T11:34:46Z</time>
      </trkpt>
      <trkpt lat="42.67198" lon="1.47195">
        <ele>2534.17</ele>
        <time>2013-04-22T11:35:00Z</time>
      </trkpt>
      <trkpt lat="42.67198" lon="1.47197">
        <ele>2533.21</ele>
        <time>2013-04-22T11:35:15Z</time>
      </trkpt>
      <trkpt lat="42.67199" lon="1.472">
        <ele>2532.73</ele>
        <time>2013-04-22T11:35:31Z</time>
      </trkpt>
      <trkpt lat="42.67202" lon="1.47201">
        <ele>2533.69</ele>
        <time>2013-04-22T11:35:50Z</time>
      </trkpt>
      <trkpt lat="42.67202" lon="1.47202">
        <ele>2534.17</ele>
        <time>2013-04-22T11:36:08Z</time>
      </trkpt>
      <trkpt lat="42.67201" lon="1.47203">
        <ele>2533.21</ele>
        <time>2013-04-22T11:36:23Z</time>
      </trkpt>
      <trkpt lat="42.672" lon="1.47204">
        <ele>2532.73</ele>
        <time>2013-04-22T11:36:39Z</time>
      </trkpt>
      <trkpt lat="42.67201" lon="1.47207">
        <ele>2531.29</ele>
        <time>2013-04-22T11:36:56Z</time>
      </trkpt>
      <trkpt lat="42.67202" lon="1.47208">
        <ele>2531.77</ele>
        <time>2013-04-22T11:37:11Z</time>
      </trkpt>
      <trkpt lat="42.67203" lon="1.47212">
        <ele>2528.89</ele>
        <time>2013-04-22T11:37:30Z</time>
      </trkpt>
      <trkpt lat="42.67198" lon="1.47211">
        <ele>2525.52</ele>
        <time>2013-04-22T11:37:41Z</time>
      </trkpt>
      <trkpt lat="42.67201" lon="1.47214">
        <ele>2522.16</ele>
        <time>2013-04-22T11:37:55Z</time>
      </trkpt>
      <trkpt lat="42.67201" lon="1.47216">
        <ele>2520.71</ele>
        <time>2013-04-22T11:38:11Z</time>
      </trkpt>
      <trkpt lat="42.67199" lon="1.47218">
        <ele>2518.79</ele>
        <time>2013-04-22T11:38:21Z</time>
      </trkpt>
      <trkpt lat="42.672" lon="1.47218">
        <ele>2516.87</ele>
        <time>2013-04-22T11:38:32Z</time>
      </trkpt>
      <trkpt lat="42.67204" lon="1.47219">
        <ele>2513.98</ele>
        <time>2013-04-22T11:38:49Z</time>
      </trkpt>
      <trkpt lat="42.67206" lon="1.4722">
        <ele>2511.1</ele>
        <time>2013-04-22T11:39:05Z</time>
      </trkpt>
      <trkpt lat="42.67206" lon="1.47219">
        <ele>2512.06</ele>
        <time>2013-04-22T11:39:23Z</time>
      </trkpt>
      <trkpt lat="42.67206" lon="1.4722">
        <ele>2515.43</ele>
        <time>2013-04-22T11:39:40Z</time>
      </trkpt>
      <trkpt lat="42.67205" lon="1.47223">
        <ele>2520.23</ele>
        <time>2013-04-22T11:39:55Z</time>
      </trkpt>
      <trkpt lat="42.67204" lon="1.47224">
        <ele>2522.64</ele>
        <time>2013-04-22T11:40:12Z</time>
      </trkpt>
      <trkpt lat="42.67204" lon="1.47227">
        <ele>2521.68</ele>
        <time>2013-04-22T11:40:44Z</time>
      </trkpt>
      <trkpt lat="42.67204" lon="1.47227">
        <ele>2518.79</ele>
        <time>2013-04-22T11:41:24Z</time>
      </trkpt>
      <trkpt lat="42.67204" lon="1.47226">
        <ele>2519.27</ele>
        <time>2013-04-22T11:42:01Z</time>
      </trkpt>
      <trkpt lat="42.67205" lon="1.47226">
        <ele>2516.87</ele>
        <time>2013-04-22T11:42:41Z</time>
      </trkpt>
      <trkpt lat="42.67204" lon="1.47221">
        <ele>2515.43</ele>
        <time>2013-04-22T11:43:15Z</time>
      </trkpt>
      <trkpt lat="42.67204" lon="1.47221">
        <ele>2516.87</ele>
        <time>2013-04-22T11:43:45Z</time>
      </trkpt>
      <trkpt lat="42.67204" lon="1.47222">
        <ele>2518.31</ele>
        <time>2013-04-22T11:44:08Z</time>
      </trkpt>
      <trkpt lat="42.67202" lon="1.47219">
        <ele>2518.79</ele>
        <time>2013-04-22T11:44:35Z</time>
      </trkpt>
      <trkpt lat="42.67203" lon="1.47219">
        <ele>2517.35</ele>
        <time>2013-04-22T11:45:17Z</time>
      </trkpt>
      <trkpt lat="42.67202" lon="1.47216">
        <ele>2513.98</ele>
        <time>2013-04-22T11:45:55Z</time>
      </trkpt>
      <trkpt lat="42.67203" lon="1.47221">
        <ele>2516.87</ele>
        <time>2013-04-22T11:46:19Z</time>
      </trkpt>
      <trkpt lat="42.67203" lon="1.47224">
        <ele>2520.23</ele>
        <time>2013-04-22T11:46:44Z</time>
      </trkpt>
      <trkpt lat="42.67202" lon="1.4722">
        <ele>2518.79</ele>
        <time>2013-04-22T11:47:09Z</time>
      </trkpt>
      <trkpt lat="42.67202" lon="1.47222">
        <ele>2520.23</ele>
        <time>2013-04-22T11:47:39Z</time>
      </trkpt>
      <trkpt lat="42.67203" lon="1.47219">
        <ele>2519.75</ele>
        <time>2013-04-22T11:48:01Z</time>
      </trkpt>
      <trkpt lat="42.67204" lon="1.47221">
        <ele>2521.19</ele>
        <time>2013-04-22T11:48:09Z</time>
      </trkpt>
      <trkpt lat="42.67203" lon="1.47222">
        <ele>2520.23</ele>
        <time>2013-04-22T11:48:21Z</time>
      </trkpt>
      <trkpt lat="42.67203" lon="1.47223">
        <ele>2519.75</ele>
        <time>2013-04-22T11:48:41Z</time>
      </trkpt>
      <trkpt lat="42.67203" lon="1.47224">
        <ele>2522.64</ele>
        <time>2013-04-22T11:48:55Z</time>
      </trkpt>
      <trkpt lat="42.67204" lon="1.47225">
        <ele>2523.6</ele>
        <time>2013-04-22T11:49:04Z</time>
      </trkpt>
      <trkpt lat="42.67203" lon="1.47221">
        <ele>2522.64</ele>
        <time>2013-04-22T11:49:21Z</time>
      </trkpt>
      <trkpt lat="42.67204" lon="1.47221">
        <ele>2518.79</ele>
        <time>2013-04-22T11:49:41Z</time>
      </trkpt>
      <trkpt lat="42.67204" lon="1.47221">
        <ele>2516.39</ele>
        <time>2013-04-22T11:49:58Z</time>
      </trkpt>
      <trkpt lat="42.67204" lon="1.4722">
        <ele>2516.39</ele>
        <time>2013-04-22T11:50:11Z</time>
      </trkpt>
      <trkpt lat="42.67204" lon="1.47218">
        <ele>2516.87</ele>
        <time>2013-04-22T11:50:33Z</time>
      </trkpt>
      <trkpt lat="42.67204" lon="1.47222">
        <ele>2517.35</ele>
        <time>2013-04-22T11:50:47Z</time>
      </trkpt>
      <trkpt lat="42.67206" lon="1.47221">
        <ele>2515.91</ele>
        <time>2013-04-22T11:50:59Z</time>
      </trkpt>
      <trkpt lat="42.67205" lon="1.47224">
        <ele>2515.43</ele>
        <time>2013-04-22T11:51:14Z</time>
      </trkpt>
      <trkpt lat="42.67195" lon="1.47228">
        <ele>2515.43</ele>
        <time>2013-04-22T11:51:24Z</time>
      </trkpt>
      <trkpt lat="42.67195" lon="1.47229">
        <ele>2515.43</ele>
        <time>2013-04-22T11:51:26Z</time>
      </trkpt>
      <trkpt lat="42.67192" lon="1.47228">
        <ele>2513.98</ele>
        <time>2013-04-22T11:51:28Z</time>
      </trkpt>
      <trkpt lat="42.67186" lon="1.47243">
        <ele>2511.58</ele>
        <time>2013-04-22T11:51:33Z</time>
      </trkpt>
      <trkpt lat="42.67176" lon="1.47271">
        <ele>2504.37</ele>
        <time>2013-04-22T11:51:40Z</time>
      </trkpt>
      <trkpt lat="42.67177" lon="1.47277">
        <ele>2499.57</ele>
        <time>2013-04-22T11:51:46Z</time>
      </trkpt>
      <trkpt lat="42.67178" lon="1.47277">
        <ele>2497.64</ele>
        <time>2013-04-22T11:51:49Z</time>
      </trkpt>
      <trkpt lat="42.67177" lon="1.47303">
        <ele>2492.36</ele>
        <time>2013-04-22T11:51:56Z</time>
      </trkpt>
      <trkpt lat="42.67179" lon="1.47342">
        <ele>2487.07</ele>
        <time>2013-04-22T11:52:01Z</time>
      </trkpt>
      <trkpt lat="42.67184" lon="1.47368">
        <ele>2483.22</ele>
        <time>2013-04-22T11:52:06Z</time>
      </trkpt>
      <trkpt lat="42.6719" lon="1.47366">
        <ele>2479.86</ele>
        <time>2013-04-22T11:52:17Z</time>
      </trkpt>
      <trkpt lat="42.6719" lon="1.47366">
        <ele>2479.86</ele>
        <time>2013-04-22T11:52:31Z</time>
      </trkpt>
      <trkpt lat="42.67191" lon="1.47364">
        <ele>2480.34</ele>
        <time>2013-04-22T11:52:49Z</time>
      </trkpt>
      <trkpt lat="42.67192" lon="1.47366">
        <ele>2478.9</ele>
        <time>2013-04-22T11:53:02Z</time>
      </trkpt>
      <trkpt lat="42.67193" lon="1.47364">
        <ele>2476.97</ele>
        <time>2013-04-22T11:53:38Z</time>
      </trkpt>
      <trkpt lat="42.6719" lon="1.47365">
        <ele>2477.45</ele>
        <time>2013-04-22T11:54:22Z</time>
      </trkpt>
      <trkpt lat="42.6719" lon="1.47365">
        <ele>2476.97</ele>
        <time>2013-04-22T11:54:58Z</time>
      </trkpt>
      <trkpt lat="42.6719" lon="1.47365">
        <ele>2477.45</ele>
        <time>2013-04-22T11:55:45Z</time>
      </trkpt>
      <trkpt lat="42.67191" lon="1.47365">
        <ele>2477.45</ele>
        <time>2013-04-22T11:56:25Z</time>
      </trkpt>
      <trkpt lat="42.67191" lon="1.47365">
        <ele>2477.94</ele>
        <time>2013-04-22T11:57:07Z</time>
      </trkpt>
      <trkpt lat="42.67193" lon="1.47365">
        <ele>2478.42</ele>
        <time>2013-04-22T11:57:21Z</time>
      </trkpt>
      <trkpt lat="42.67195" lon="1.47366">
        <ele>2480.34</ele>
        <time>2013-04-22T11:57:42Z</time>
      </trkpt>
      <trkpt lat="42.67198" lon="1.47366">
        <ele>2482.74</ele>
        <time>2013-04-22T11:58:11Z</time>
      </trkpt>
      <trkpt lat="42.67198" lon="1.47367">
        <ele>2483.7</ele>
        <time>2013-04-22T11:58:42Z</time>
      </trkpt>
      <trkpt lat="42.67199" lon="1.47367">
        <ele>2484.18</ele>
        <time>2013-04-22T11:59:04Z</time>
      </trkpt>
      <trkpt lat="42.67196" lon="1.4737">
        <ele>2484.66</ele>
        <time>2013-04-22T11:59:42Z</time>
      </trkpt>
      <trkpt lat="42.67194" lon="1.4737">
        <ele>2485.63</ele>
        <time>2013-04-22T12:00:27Z</time>
      </trkpt>
      <trkpt lat="42.67194" lon="1.4737">
        <ele>2486.59</ele>
        <time>2013-04-22T12:01:07Z</time>
      </trkpt>
      <trkpt lat="42.67195" lon="1.47371">
        <ele>2487.07</ele>
        <time>2013-04-22T12:01:53Z</time>
      </trkpt>
      <trkpt lat="42.67193" lon="1.47371">
        <ele>2488.03</ele>
        <time>2013-04-22T12:02:30Z</time>
      </trkpt>
      <trkpt lat="42.67195" lon="1.4737">
        <ele>2488.03</ele>
        <time>2013-04-22T12:03:07Z</time>
      </trkpt>
      <trkpt lat="42.67196" lon="1.47371">
        <ele>2487.55</ele>
        <time>2013-04-22T12:03:51Z</time>
      </trkpt>
      <trkpt lat="42.67195" lon="1.4737">
        <ele>2488.03</ele>
        <time>2013-04-22T12:04:25Z</time>
      </trkpt>
      <trkpt lat="42.67195" lon="1.47374">
        <ele>2486.11</ele>
        <time>2013-04-22T12:05:03Z</time>
      </trkpt>
      <trkpt lat="42.67195" lon="1.47374">
        <ele>2485.15</ele>
        <time>2013-04-22T12:05:46Z</time>
      </trkpt>
      <trkpt lat="42.67193" lon="1.47374">
        <ele>2489.47</ele>
        <time>2013-04-22T12:06:31Z</time>
      </trkpt>
      <trkpt lat="42.67195" lon="1.47373">
        <ele>2493.32</ele>
        <time>2013-04-22T12:07:09Z</time>
      </trkpt>
      <trkpt lat="42.67195" lon="1.47371">
        <ele>2495.24</ele>
        <time>2013-04-22T12:07:50Z</time>
      </trkpt>
      <trkpt lat="42.67195" lon="1.47371">
        <ele>2495.24</ele>
        <time>2013-04-22T12:08:26Z</time>
      </trkpt>
      <trkpt lat="42.67195" lon="1.47371">
        <ele>2495.72</ele>
        <time>2013-04-22T12:09:07Z</time>
      </trkpt>
      <trkpt lat="42.67191" lon="1.4737">
        <ele>2494.76</ele>
        <time>2013-04-22T12:09:41Z</time>
      </trkpt>
      <trkpt lat="42.6719" lon="1.47371">
        <ele>2493.32</ele>
        <time>2013-04-22T12:10:16Z</time>
      </trkpt>
      <trkpt lat="42.67189" lon="1.4737">
        <ele>2492.36</ele>
        <time>2013-04-22T12:10:47Z</time>
      </trkpt>
      <trkpt lat="42.67188" lon="1.47371">
        <ele>2491.87</ele>
        <time>2013-04-22T12:11:27Z</time>
      </trkpt>
      <trkpt lat="42.67188" lon="1.4737">
        <ele>2491.87</ele>
        <time>2013-04-22T12:12:02Z</time>
      </trkpt>
      <trkpt lat="42.67189" lon="1.4737">
        <ele>2492.36</ele>
        <time>2013-04-22T12:12:31Z</time>
      </trkpt>
      <trkpt lat="42.67189" lon="1.4737">
        <ele>2491.39</ele>
        <time>2013-04-22T12:13:09Z</time>
      </trkpt>
      <trkpt lat="42.67188" lon="1.47371">
        <ele>2490.91</ele>
        <time>2013-04-22T12:13:50Z</time>
      </trkpt>
      <trkpt lat="42.67189" lon="1.47371">
        <ele>2490.91</ele>
        <time>2013-04-22T12:14:27Z</time>
      </trkpt>
      <trkpt lat="42.67188" lon="1.47371">
        <ele>2490.43</ele>
        <time>2013-04-22T12:15:07Z</time>
      </trkpt>
      <trkpt lat="42.67189" lon="1.47369">
        <ele>2489.95</ele>
        <time>2013-04-22T12:15:46Z</time>
      </trkpt>
      <trkpt lat="42.67189" lon="1.47369">
        <ele>2490.43</ele>
        <time>2013-04-22T12:16:15Z</time>
      </trkpt>
      <trkpt lat="42.67188" lon="1.4737">
        <ele>2489.47</ele>
        <time>2013-04-22T12:16:45Z</time>
      </trkpt>
      <trkpt lat="42.67189" lon="1.47369">
        <ele>2489.47</ele>
        <time>2013-04-22T12:17:14Z</time>
      </trkpt>
      <trkpt lat="42.6719" lon="1.47369">
        <ele>2489.47</ele>
        <time>2013-04-22T12:17:50Z</time>
      </trkpt>
      <trkpt lat="42.67189" lon="1.47368">
        <ele>2489.47</ele>
        <time>2013-04-22T12:18:21Z</time>
      </trkpt>
      <trkpt lat="42.67189" lon="1.47369">
        <ele>2489.95</ele>
        <time>2013-04-22T12:18:51Z</time>
      </trkpt>
      <trkpt lat="42.67189" lon="1.47369">
        <ele>2488.99</ele>
        <time>2013-04-22T12:19:20Z</time>
      </trkpt>
      <trkpt lat="42.67189" lon="1.47368">
        <ele>2488.03</ele>
        <time>2013-04-22T12:19:49Z</time>
      </trkpt>
      <trkpt lat="42.67188" lon="1.47368">
        <ele>2489.47</ele>
        <time>2013-04-22T12:20:20Z</time>
      </trkpt>
      <trkpt lat="42.6719" lon="1.47369">
        <ele>2490.43</ele>
        <time>2013-04-22T12:20:51Z</time>
      </trkpt>
      <trkpt lat="42.67191" lon="1.47367">
        <ele>2489.95</ele>
        <time>2013-04-22T12:21:20Z</time>
      </trkpt>
      <trkpt lat="42.67191" lon="1.47369">
        <ele>2491.87</ele>
        <time>2013-04-22T12:21:56Z</time>
      </trkpt>
      <trkpt lat="42.67192" lon="1.47366">
        <ele>2488.99</ele>
        <time>2013-04-22T12:22:34Z</time>
      </trkpt>
      <trkpt lat="42.67191" lon="1.47365">
        <ele>2486.11</ele>
        <time>2013-04-22T12:23:12Z</time>
      </trkpt>
      <trkpt lat="42.67192" lon="1.47366">
        <ele>2483.22</ele>
        <time>2013-04-22T12:23:47Z</time>
      </trkpt>
      <trkpt lat="42.67193" lon="1.47366">
        <ele>2480.34</ele>
        <time>2013-04-22T12:24:28Z</time>
      </trkpt>
      <trkpt lat="42.67192" lon="1.47367">
        <ele>2479.86</ele>
        <time>2013-04-22T12:24:58Z</time>
      </trkpt>
      <trkpt lat="42.67192" lon="1.47369">
        <ele>2479.86</ele>
        <time>2013-04-22T12:25:36Z</time>
      </trkpt>
      <trkpt lat="42.67191" lon="1.4737">
        <ele>2480.34</ele>
        <time>2013-04-22T12:26:08Z</time>
      </trkpt>
      <trkpt lat="42.67191" lon="1.47368">
        <ele>2479.86</ele>
        <time>2013-04-22T12:26:45Z</time>
      </trkpt>
      <trkpt lat="42.6719" lon="1.47364">
        <ele>2476.49</ele>
        <time>2013-04-22T12:27:18Z</time>
      </trkpt>
      <trkpt lat="42.67191" lon="1.47364">
        <ele>2476.01</ele>
        <time>2013-04-22T12:27:40Z</time>
      </trkpt>
      <trkpt lat="42.67193" lon="1.47362">
        <ele>2476.49</ele>
        <time>2013-04-22T12:28:06Z</time>
      </trkpt>
      <trkpt lat="42.67198" lon="1.47365">
        <ele>2482.26</ele>
        <time>2013-04-22T12:28:16Z</time>
      </trkpt>
      <trkpt lat="42.672" lon="1.47366">
        <ele>2482.26</ele>
        <time>2013-04-22T12:28:32Z</time>
      </trkpt>
      <trkpt lat="42.672" lon="1.47366">
        <ele>2484.66</ele>
        <time>2013-04-22T12:28:48Z</time>
      </trkpt>
      <trkpt lat="42.67207" lon="1.47369">
        <ele>2487.55</ele>
        <time>2013-04-22T12:29:06Z</time>
      </trkpt>
      <trkpt lat="42.67209" lon="1.47369">
        <ele>2489.47</ele>
        <time>2013-04-22T12:29:30Z</time>
      </trkpt>
      <trkpt lat="42.67207" lon="1.47367">
        <ele>2489.47</ele>
        <time>2013-04-22T12:29:55Z</time>
      </trkpt>
      <trkpt lat="42.67205" lon="1.47369">
        <ele>2488.51</ele>
        <time>2013-04-22T12:30:16Z</time>
      </trkpt>
      <trkpt lat="42.67199" lon="1.47367">
        <ele>2485.15</ele>
        <time>2013-04-22T12:30:34Z</time>
      </trkpt>
      <trkpt lat="42.67203" lon="1.47365">
        <ele>2487.07</ele>
        <time>2013-04-22T12:30:47Z</time>
      </trkpt>
      <trkpt lat="42.67209" lon="1.47367">
        <ele>2490.43</ele>
        <time>2013-04-22T12:31:11Z</time>
      </trkpt>
      <trkpt lat="42.67221" lon="1.47369">
        <ele>2495.72</ele>
        <time>2013-04-22T12:31:32Z</time>
      </trkpt>
      <trkpt lat="42.67212" lon="1.47367">
        <ele>2494.28</ele>
        <time>2013-04-22T12:31:43Z</time>
      </trkpt>
      <trkpt lat="42.672" lon="1.47364">
        <ele>2488.99</ele>
        <time>2013-04-22T12:31:52Z</time>
      </trkpt>
      <trkpt lat="42.67192" lon="1.47368">
        <ele>2481.78</ele>
        <time>2013-04-22T12:32:09Z</time>
      </trkpt>
      <trkpt lat="42.6719" lon="1.47367">
        <ele>2479.86</ele>
        <time>2013-04-22T12:32:33Z</time>
      </trkpt>
      <trkpt lat="42.67191" lon="1.47367">
        <ele>2477.94</ele>
        <time>2013-04-22T12:32:44Z</time>
      </trkpt>
      <trkpt lat="42.67188" lon="1.47369">
        <ele>2475.53</ele>
        <time>2013-04-22T12:32:58Z</time>
      </trkpt>
      <trkpt lat="42.67187" lon="1.47368">
        <ele>2475.53</ele>
        <time>2013-04-22T12:33:11Z</time>
      </trkpt>
      <trkpt lat="42.67189" lon="1.47367">
        <ele>2476.49</ele>
        <time>2013-04-22T12:33:24Z</time>
      </trkpt>
      <trkpt lat="42.67186" lon="1.47364">
        <ele>2475.53</ele>
        <time>2013-04-22T12:33:31Z</time>
      </trkpt>
      <trkpt lat="42.67181" lon="1.47372">
        <ele>2476.49</ele>
        <time>2013-04-22T12:33:42Z</time>
      </trkpt>
      <trkpt lat="42.67177" lon="1.4738">
        <ele>2475.53</ele>
        <time>2013-04-22T12:33:50Z</time>
      </trkpt>
      <trkpt lat="42.67177" lon="1.47384">
        <ele>2475.05</ele>
        <time>2013-04-22T12:34:01Z</time>
      </trkpt>
      <trkpt lat="42.67189" lon="1.47399">
        <ele>2472.65</ele>
        <time>2013-04-22T12:34:09Z</time>
      </trkpt>
      <trkpt lat="42.67193" lon="1.47412">
        <ele>2472.17</ele>
        <time>2013-04-22T12:34:15Z</time>
      </trkpt>
      <trkpt lat="42.67192" lon="1.47413">
        <ele>2471.69</ele>
        <time>2013-04-22T12:34:27Z</time>
      </trkpt>
      <trkpt lat="42.67195" lon="1.47432">
        <ele>2469.28</ele>
        <time>2013-04-22T12:34:34Z</time>
      </trkpt>
      <trkpt lat="42.67197" lon="1.47433">
        <ele>2468.32</ele>
        <time>2013-04-22T12:34:46Z</time>
      </trkpt>
      <trkpt lat="42.67207" lon="1.47436">
        <ele>2464.48</ele>
        <time>2013-04-22T12:34:54Z</time>
      </trkpt>
      <trkpt lat="42.67226" lon="1.47417">
        <ele>2455.82</ele>
        <time>2013-04-22T12:35:10Z</time>
      </trkpt>
      <trkpt lat="42.67235" lon="1.47409">
        <ele>2452.46</ele>
        <time>2013-04-22T12:35:17Z</time>
      </trkpt>
      <trkpt lat="42.67251" lon="1.47421">
        <ele>2446.21</ele>
        <time>2013-04-22T12:35:24Z</time>
      </trkpt>
      <trkpt lat="42.67265" lon="1.4743">
        <ele>2440.92</ele>
        <time>2013-04-22T12:35:29Z</time>
      </trkpt>
      <trkpt lat="42.67269" lon="1.47437">
        <ele>2438.52</ele>
        <time>2013-04-22T12:35:31Z</time>
      </trkpt>
      <trkpt lat="42.67285" lon="1.47449">
        <ele>2431.79</ele>
        <time>2013-04-22T12:35:38Z</time>
      </trkpt>
      <trkpt lat="42.67301" lon="1.47456">
        <ele>2427.95</ele>
        <time>2013-04-22T12:35:43Z</time>
      </trkpt>
      <trkpt lat="42.67309" lon="1.47449">
        <ele>2426.5</ele>
        <time>2013-04-22T12:35:49Z</time>
      </trkpt>
      <trkpt lat="42.67309" lon="1.47445">
        <ele>2427.95</ele>
        <time>2013-04-22T12:36:04Z</time>
      </trkpt>
      <trkpt lat="42.67308" lon="1.47442">
        <ele>2429.87</ele>
        <time>2013-04-22T12:36:29Z</time>
      </trkpt>
      <trkpt lat="42.67306" lon="1.47443">
        <ele>2426.99</ele>
        <time>2013-04-22T12:36:53Z</time>
      </trkpt>
      <trkpt lat="42.67307" lon="1.47443">
        <ele>2426.5</ele>
        <time>2013-04-22T12:36:56Z</time>
      </trkpt>
      <trkpt lat="42.67316" lon="1.47445">
        <ele>2421.7</ele>
        <time>2013-04-22T12:37:04Z</time>
      </trkpt>
      <trkpt lat="42.67315" lon="1.47447">
        <ele>2422.18</ele>
        <time>2013-04-22T12:37:24Z</time>
      </trkpt>
      <trkpt lat="42.67316" lon="1.47444">
        <ele>2421.7</ele>
        <time>2013-04-22T12:37:49Z</time>
      </trkpt>
      <trkpt lat="42.67316" lon="1.47443">
        <ele>2419.78</ele>
        <time>2013-04-22T12:38:02Z</time>
      </trkpt>
      <trkpt lat="42.6732" lon="1.4744">
        <ele>2417.37</ele>
        <time>2013-04-22T12:38:16Z</time>
      </trkpt>
      <trkpt lat="42.67319" lon="1.47438">
        <ele>2414.97</ele>
        <time>2013-04-22T12:38:34Z</time>
      </trkpt>
      <trkpt lat="42.67321" lon="1.47439">
        <ele>2414.49</ele>
        <time>2013-04-22T12:38:38Z</time>
      </trkpt>
      <trkpt lat="42.67324" lon="1.47427">
        <ele>2411.6</ele>
        <time>2013-04-22T12:38:49Z</time>
      </trkpt>
      <trkpt lat="42.67324" lon="1.47425">
        <ele>2411.6</ele>
        <time>2013-04-22T12:38:50Z</time>
      </trkpt>
      <trkpt lat="42.67339" lon="1.47416">
        <ele>2406.32</ele>
        <time>2013-04-22T12:38:57Z</time>
      </trkpt>
      <trkpt lat="42.67346" lon="1.47404">
        <ele>2400.55</ele>
        <time>2013-04-22T12:39:02Z</time>
      </trkpt>
      <trkpt lat="42.67347" lon="1.47395">
        <ele>2399.11</ele>
        <time>2013-04-22T12:39:04Z</time>
      </trkpt>
      <trkpt lat="42.67347" lon="1.47385">
        <ele>2398.15</ele>
        <time>2013-04-22T12:39:06Z</time>
      </trkpt>
      <trkpt lat="42.67358" lon="1.47367">
        <ele>2393.34</ele>
        <time>2013-04-22T12:39:12Z</time>
      </trkpt>
      <trkpt lat="42.67358" lon="1.47361">
        <ele>2391.9</ele>
        <time>2013-04-22T12:39:14Z</time>
      </trkpt>
      <trkpt lat="42.67357" lon="1.47333">
        <ele>2389.97</ele>
        <time>2013-04-22T12:39:24Z</time>
      </trkpt>
      <trkpt lat="42.67359" lon="1.47303">
        <ele>2387.57</ele>
        <time>2013-04-22T12:39:37Z</time>
      </trkpt>
      <trkpt lat="42.67358" lon="1.47266">
        <ele>2387.09</ele>
        <time>2013-04-22T12:39:45Z</time>
      </trkpt>
      <trkpt lat="42.67361" lon="1.47248">
        <ele>2385.17</ele>
        <time>2013-04-22T12:39:55Z</time>
      </trkpt>
      <trkpt lat="42.67364" lon="1.47232">
        <ele>2383.73</ele>
        <time>2013-04-22T12:40:01Z</time>
      </trkpt>
      <trkpt lat="42.6737" lon="1.47216">
        <ele>2386.13</ele>
        <time>2013-04-22T12:40:15Z</time>
      </trkpt>
      <trkpt lat="42.6738" lon="1.4718">
        <ele>2385.65</ele>
        <time>2013-04-22T12:40:27Z</time>
      </trkpt>
      <trkpt lat="42.67386" lon="1.47172">
        <ele>2383.73</ele>
        <time>2013-04-22T12:40:37Z</time>
      </trkpt>
      <trkpt lat="42.67393" lon="1.47173">
        <ele>2376.04</ele>
        <time>2013-04-22T12:40:46Z</time>
      </trkpt>
      <trkpt lat="42.674" lon="1.47174">
        <ele>2372.67</ele>
        <time>2013-04-22T12:40:49Z</time>
      </trkpt>
      <trkpt lat="42.67397" lon="1.4718">
        <ele>2365.94</ele>
        <time>2013-04-22T12:40:59Z</time>
      </trkpt>
      <trkpt lat="42.67399" lon="1.47184">
        <ele>2365.46</ele>
        <time>2013-04-22T12:41:02Z</time>
      </trkpt>
      <trkpt lat="42.6741" lon="1.47186">
        <ele>2362.1</ele>
        <time>2013-04-22T12:41:08Z</time>
      </trkpt>
      <trkpt lat="42.67409" lon="1.47188">
        <ele>2359.69</ele>
        <time>2013-04-22T12:41:21Z</time>
      </trkpt>
      <trkpt lat="42.67411" lon="1.47197">
        <ele>2359.21</ele>
        <time>2013-04-22T12:41:26Z</time>
      </trkpt>
      <trkpt lat="42.67424" lon="1.47199">
        <ele>2352.96</ele>
        <time>2013-04-22T12:41:32Z</time>
      </trkpt>
      <trkpt lat="42.67433" lon="1.47195">
        <ele>2347.68</ele>
        <time>2013-04-22T12:41:38Z</time>
      </trkpt>
      <trkpt lat="42.67432" lon="1.47194">
        <ele>2348.16</ele>
        <time>2013-04-22T12:41:57Z</time>
      </trkpt>
      <trkpt lat="42.67435" lon="1.47188">
        <ele>2348.64</ele>
        <time>2013-04-22T12:42:05Z</time>
      </trkpt>
      <trkpt lat="42.67444" lon="1.47182">
        <ele>2343.35</ele>
        <time>2013-04-22T12:42:10Z</time>
      </trkpt>
      <trkpt lat="42.67446" lon="1.47168">
        <ele>2342.87</ele>
        <time>2013-04-22T12:42:21Z</time>
      </trkpt>
      <trkpt lat="42.67454" lon="1.47127">
        <ele>2337.58</ele>
        <time>2013-04-22T12:42:32Z</time>
      </trkpt>
      <trkpt lat="42.67462" lon="1.47115">
        <ele>2335.66</ele>
        <time>2013-04-22T12:42:37Z</time>
      </trkpt>
      <trkpt lat="42.67466" lon="1.47106">
        <ele>2333.74</ele>
        <time>2013-04-22T12:42:39Z</time>
      </trkpt>
      <trkpt lat="42.67488" lon="1.47061">
        <ele>2328.45</ele>
        <time>2013-04-22T12:42:48Z</time>
      </trkpt>
      <trkpt lat="42.675" lon="1.47039">
        <ele>2327.49</ele>
        <time>2013-04-22T12:42:57Z</time>
      </trkpt>
      <trkpt lat="42.67505" lon="1.47031">
        <ele>2325.09</ele>
        <time>2013-04-22T12:43:09Z</time>
      </trkpt>
      <trkpt lat="42.67512" lon="1.47013">
        <ele>2322.2</ele>
        <time>2013-04-22T12:43:14Z</time>
      </trkpt>
      <trkpt lat="42.67526" lon="1.47007">
        <ele>2316.91</ele>
        <time>2013-04-22T12:43:20Z</time>
      </trkpt>
      <trkpt lat="42.67533" lon="1.46999">
        <ele>2310.67</ele>
        <time>2013-04-22T12:43:25Z</time>
      </trkpt>
      <trkpt lat="42.6754" lon="1.46986">
        <ele>2305.38</ele>
        <time>2013-04-22T12:43:32Z</time>
      </trkpt>
      <trkpt lat="42.6754" lon="1.46982">
        <ele>2302.98</ele>
        <time>2013-04-22T12:43:43Z</time>
      </trkpt>
      <trkpt lat="42.6754" lon="1.46981">
        <ele>2303.46</ele>
        <time>2013-04-22T12:44:01Z</time>
      </trkpt>
      <trkpt lat="42.67549" lon="1.46974">
        <ele>2300.09</ele>
        <time>2013-04-22T12:44:07Z</time>
      </trkpt>
      <trkpt lat="42.67564" lon="1.46964">
        <ele>2291.44</ele>
        <time>2013-04-22T12:44:14Z</time>
      </trkpt>
      <trkpt lat="42.67567" lon="1.46961">
        <ele>2290.96</ele>
        <time>2013-04-22T12:44:17Z</time>
      </trkpt>
      <trkpt lat="42.67577" lon="1.46943">
        <ele>2288.08</ele>
        <time>2013-04-22T12:44:22Z</time>
      </trkpt>
      <trkpt lat="42.67593" lon="1.46932">
        <ele>2285.67</ele>
        <time>2013-04-22T12:44:28Z</time>
      </trkpt>
      <trkpt lat="42.676" lon="1.4692">
        <ele>2284.71</ele>
        <time>2013-04-22T12:44:30Z</time>
      </trkpt>
      <trkpt lat="42.67611" lon="1.46892">
        <ele>2280.87</ele>
        <time>2013-04-22T12:44:36Z</time>
      </trkpt>
      <trkpt lat="42.67613" lon="1.4688">
        <ele>2277.02</ele>
        <time>2013-04-22T12:44:48Z</time>
      </trkpt>
      <trkpt lat="42.67613" lon="1.46882">
        <ele>2271.73</ele>
        <time>2013-04-22T12:45:27Z</time>
      </trkpt>
      <trkpt lat="42.67613" lon="1.46879">
        <ele>2269.81</ele>
        <time>2013-04-22T12:45:55Z</time>
      </trkpt>
      <trkpt lat="42.67618" lon="1.46871">
        <ele>2267.41</ele>
        <time>2013-04-22T12:46:15Z</time>
      </trkpt>
      <trkpt lat="42.67621" lon="1.46865">
        <ele>2266.45</ele>
        <time>2013-04-22T12:46:18Z</time>
      </trkpt>
      <trkpt lat="42.67636" lon="1.46837">
        <ele>2266.93</ele>
        <time>2013-04-22T12:46:32Z</time>
      </trkpt>
      <trkpt lat="42.67653" lon="1.46806">
        <ele>2263.56</ele>
        <time>2013-04-22T12:46:45Z</time>
      </trkpt>
      <trkpt lat="42.67657" lon="1.46801">
        <ele>2262.6</ele>
        <time>2013-04-22T12:46:47Z</time>
      </trkpt>
      <trkpt lat="42.67668" lon="1.46803">
        <ele>2259.24</ele>
        <time>2013-04-22T12:46:51Z</time>
      </trkpt>
      <trkpt lat="42.67681" lon="1.46801">
        <ele>2255.39</ele>
        <time>2013-04-22T12:46:55Z</time>
      </trkpt>
      <trkpt lat="42.677" lon="1.46807">
        <ele>2250.1</ele>
        <time>2013-04-22T12:47:01Z</time>
      </trkpt>
      <trkpt lat="42.67709" lon="1.46812">
        <ele>2248.66</ele>
        <time>2013-04-22T12:47:04Z</time>
      </trkpt>
      <trkpt lat="42.67754" lon="1.46815">
        <ele>2245.78</ele>
        <time>2013-04-22T12:47:13Z</time>
      </trkpt>
      <trkpt lat="42.67758" lon="1.46816">
        <ele>2241.45</ele>
        <time>2013-04-22T12:47:25Z</time>
      </trkpt>
      <trkpt lat="42.67758" lon="1.46817">
        <ele>2240.97</ele>
        <time>2013-04-22T12:47:28Z</time>
      </trkpt>
      <trkpt lat="42.67757" lon="1.46817">
        <ele>2241.45</ele>
        <time>2013-04-22T12:47:45Z</time>
      </trkpt>
      <trkpt lat="42.67757" lon="1.46816">
        <ele>2241.45</ele>
        <time>2013-04-22T12:48:08Z</time>
      </trkpt>
      <trkpt lat="42.67759" lon="1.46817">
        <ele>2240.97</ele>
        <time>2013-04-22T12:48:17Z</time>
      </trkpt>
      <trkpt lat="42.67765" lon="1.46822">
        <ele>2241.45</ele>
        <time>2013-04-22T12:48:27Z</time>
      </trkpt>
      <trkpt lat="42.67767" lon="1.46821">
        <ele>2240.97</ele>
        <time>2013-04-22T12:48:34Z</time>
      </trkpt>
      <trkpt lat="42.67768" lon="1.46822">
        <ele>2240.97</ele>
        <time>2013-04-22T12:48:43Z</time>
      </trkpt>
      <trkpt lat="42.67767" lon="1.46819">
        <ele>2240.97</ele>
        <time>2013-04-22T12:48:53Z</time>
      </trkpt>
      <trkpt lat="42.67769" lon="1.4682">
        <ele>2241.93</ele>
        <time>2013-04-22T12:49:04Z</time>
      </trkpt>
      <trkpt lat="42.67769" lon="1.46818">
        <ele>2242.41</ele>
        <time>2013-04-22T12:49:18Z</time>
      </trkpt>
      <trkpt lat="42.6777" lon="1.4682">
        <ele>2245.3</ele>
        <time>2013-04-22T12:49:31Z</time>
      </trkpt>
      <trkpt lat="42.67775" lon="1.46821">
        <ele>2247.22</ele>
        <time>2013-04-22T12:49:47Z</time>
      </trkpt>
      <trkpt lat="42.67778" lon="1.4682">
        <ele>2247.22</ele>
        <time>2013-04-22T12:49:52Z</time>
      </trkpt>
      <trkpt lat="42.67787" lon="1.46811">
        <ele>2243.85</ele>
        <time>2013-04-22T12:50:07Z</time>
      </trkpt>
      <trkpt lat="42.67789" lon="1.4679">
        <ele>2241.93</ele>
        <time>2013-04-22T12:50:13Z</time>
      </trkpt>
      <trkpt lat="42.67791" lon="1.46782">
        <ele>2240.49</ele>
        <time>2013-04-22T12:50:15Z</time>
      </trkpt>
      <trkpt lat="42.67791" lon="1.46769">
        <ele>2239.53</ele>
        <time>2013-04-22T12:50:17Z</time>
      </trkpt>
      <trkpt lat="42.67803" lon="1.46744">
        <ele>2236.64</ele>
        <time>2013-04-22T12:50:27Z</time>
      </trkpt>
      <trkpt lat="42.67806" lon="1.46737">
        <ele>2235.2</ele>
        <time>2013-04-22T12:50:38Z</time>
      </trkpt>
      <trkpt lat="42.67805" lon="1.46737">
        <ele>2235.2</ele>
        <time>2013-04-22T12:51:04Z</time>
      </trkpt>
      <trkpt lat="42.67806" lon="1.46736">
        <ele>2236.16</ele>
        <time>2013-04-22T12:51:22Z</time>
      </trkpt>
      <trkpt lat="42.67807" lon="1.46737">
        <ele>2235.68</ele>
        <time>2013-04-22T12:51:40Z</time>
      </trkpt>
      <trkpt lat="42.67808" lon="1.46737">
        <ele>2235.68</ele>
        <time>2013-04-22T12:51:43Z</time>
      </trkpt>
      <trkpt lat="42.67815" lon="1.46742">
        <ele>2231.84</ele>
        <time>2013-04-22T12:51:47Z</time>
      </trkpt>
      <trkpt lat="42.67814" lon="1.46743">
        <ele>2227.51</ele>
        <time>2013-04-22T12:51:55Z</time>
      </trkpt>
      <trkpt lat="42.67816" lon="1.46737">
        <ele>2226.55</ele>
        <time>2013-04-22T12:51:59Z</time>
      </trkpt>
      <trkpt lat="42.67826" lon="1.46736">
        <ele>2220.3</ele>
        <time>2013-04-22T12:52:05Z</time>
      </trkpt>
      <trkpt lat="42.67839" lon="1.4673">
        <ele>2214.05</ele>
        <time>2013-04-22T12:52:10Z</time>
      </trkpt>
      <trkpt lat="42.67844" lon="1.46732">
        <ele>2211.17</ele>
        <time>2013-04-22T12:52:12Z</time>
      </trkpt>
      <trkpt lat="42.67851" lon="1.46733">
        <ele>2209.73</ele>
        <time>2013-04-22T12:52:14Z</time>
      </trkpt>
      <trkpt lat="42.6786" lon="1.46732">
        <ele>2208.77</ele>
        <time>2013-04-22T12:52:16Z</time>
      </trkpt>
      <trkpt lat="42.67876" lon="1.46729">
        <ele>2208.77</ele>
        <time>2013-04-22T12:52:20Z</time>
      </trkpt>
      <trkpt lat="42.67891" lon="1.46694">
        <ele>2209.25</ele>
        <time>2013-04-22T12:52:30Z</time>
      </trkpt>
      <trkpt lat="42.67918" lon="1.46687">
        <ele>2209.25</ele>
        <time>2013-04-22T12:52:36Z</time>
      </trkpt>
      <trkpt lat="42.67923" lon="1.46688">
        <ele>2209.25</ele>
        <time>2013-04-22T12:52:37Z</time>
      </trkpt>
      <trkpt lat="42.67942" lon="1.46689">
        <ele>2209.25</ele>
        <time>2013-04-22T12:52:40Z</time>
      </trkpt>
      <trkpt lat="42.67971" lon="1.46689">
        <ele>2209.25</ele>
        <time>2013-04-22T12:52:44Z</time>
      </trkpt>
      <trkpt lat="42.67977" lon="1.46682">
        <ele>2210.21</ele>
        <time>2013-04-22T12:52:46Z</time>
      </trkpt>
      <trkpt lat="42.67984" lon="1.46674">
        <ele>2210.69</ele>
        <time>2013-04-22T12:52:48Z</time>
      </trkpt>
      <trkpt lat="42.67999" lon="1.46653">
        <ele>2210.69</ele>
        <time>2013-04-22T12:52:53Z</time>
      </trkpt>
      <trkpt lat="42.68012" lon="1.46651">
        <ele>2210.69</ele>
        <time>2013-04-22T12:52:56Z</time>
      </trkpt>
      <trkpt lat="42.68026" lon="1.46652">
        <ele>2210.69</ele>
        <time>2013-04-22T12:52:58Z</time>
      </trkpt>
      <trkpt lat="42.68047" lon="1.46656">
        <ele>2211.17</ele>
        <time>2013-04-22T12:53:04Z</time>
      </trkpt>
      <trkpt lat="42.67988" lon="1.46649">
        <ele>2182.33</ele>
        <time>2013-04-22T12:53:28Z</time>
      </trkpt>
      <trkpt lat="42.67964" lon="1.46648">
        <ele>2164.55</ele>
        <time>2013-04-22T12:53:59Z</time>
      </trkpt>
      <trkpt lat="42.67962" lon="1.46647">
        <ele>2159.74</ele>
        <time>2013-04-22T12:54:20Z</time>
      </trkpt>
      <trkpt lat="42.67963" lon="1.46647">
        <ele>2159.26</ele>
        <time>2013-04-22T12:54:30Z</time>
      </trkpt>
      <trkpt lat="42.67965" lon="1.46647">
        <ele>2156.37</ele>
        <time>2013-04-22T12:54:40Z</time>
      </trkpt>
      <trkpt lat="42.67966" lon="1.46643">
        <ele>2153.49</ele>
        <time>2013-04-22T12:55:01Z</time>
      </trkpt>
      <trkpt lat="42.67971" lon="1.46638">
        <ele>2153.01</ele>
        <time>2013-04-22T12:55:03Z</time>
      </trkpt>
      <trkpt lat="42.67991" lon="1.46642">
        <ele>2149.16</ele>
        <time>2013-04-22T12:55:08Z</time>
      </trkpt>
      <trkpt lat="42.68011" lon="1.46647">
        <ele>2140.51</ele>
        <time>2013-04-22T12:55:15Z</time>
      </trkpt>
      <trkpt lat="42.68011" lon="1.46645">
        <ele>2140.03</ele>
        <time>2013-04-22T12:55:20Z</time>
      </trkpt>
      <trkpt lat="42.68018" lon="1.46651">
        <ele>2136.67</ele>
        <time>2013-04-22T12:55:27Z</time>
      </trkpt>
      <trkpt lat="42.6802" lon="1.46651">
        <ele>2135.71</ele>
        <time>2013-04-22T12:55:36Z</time>
      </trkpt>
      <trkpt lat="42.68028" lon="1.46649">
        <ele>2131.38</ele>
        <time>2013-04-22T12:55:45Z</time>
      </trkpt>
      <trkpt lat="42.68032" lon="1.46651">
        <ele>2125.61</ele>
        <time>2013-04-22T12:55:52Z</time>
      </trkpt>
      <trkpt lat="42.68039" lon="1.46647">
        <ele>2122.25</ele>
        <time>2013-04-22T12:56:00Z</time>
      </trkpt>
      <trkpt lat="42.68046" lon="1.46638">
        <ele>2120.81</ele>
        <time>2013-04-22T12:56:04Z</time>
      </trkpt>
      <trkpt lat="42.68062" lon="1.46645">
        <ele>2117.44</ele>
        <time>2013-04-22T12:56:11Z</time>
      </trkpt>
      <trkpt lat="42.68071" lon="1.46639">
        <ele>2116.96</ele>
        <time>2013-04-22T12:56:14Z</time>
      </trkpt>
      <trkpt lat="42.6809" lon="1.46626">
        <ele>2114.56</ele>
        <time>2013-04-22T12:56:25Z</time>
      </trkpt>
      <trkpt lat="42.68093" lon="1.46624">
        <ele>2113.6</ele>
        <time>2013-04-22T12:56:35Z</time>
      </trkpt>
      <trkpt lat="42.68105" lon="1.4662">
        <ele>2111.19</ele>
        <time>2013-04-22T12:56:42Z</time>
      </trkpt>
      <trkpt lat="42.68112" lon="1.46616">
        <ele>2110.71</ele>
        <time>2013-04-22T12:56:45Z</time>
      </trkpt>
      <trkpt lat="42.68142" lon="1.46618">
        <ele>2108.79</ele>
        <time>2013-04-22T12:56:52Z</time>
      </trkpt>
      <trkpt lat="42.68157" lon="1.46622">
        <ele>2106.39</ele>
        <time>2013-04-22T12:56:57Z</time>
      </trkpt>
      <trkpt lat="42.68161" lon="1.46607">
        <ele>2098.7</ele>
        <time>2013-04-22T12:57:09Z</time>
      </trkpt>
      <trkpt lat="42.68178" lon="1.466">
        <ele>2091</ele>
        <time>2013-04-22T12:57:20Z</time>
      </trkpt>
      <trkpt lat="42.68198" lon="1.46588">
        <ele>2087.64</ele>
        <time>2013-04-22T12:57:30Z</time>
      </trkpt>
      <trkpt lat="42.68206" lon="1.46584">
        <ele>2085.24</ele>
        <time>2013-04-22T12:57:40Z</time>
      </trkpt>
      <trkpt lat="42.68205" lon="1.46583">
        <ele>2083.31</ele>
        <time>2013-04-22T12:57:51Z</time>
      </trkpt>
      <trkpt lat="42.68211" lon="1.46605">
        <ele>2081.87</ele>
        <time>2013-04-22T12:57:55Z</time>
      </trkpt>
      <trkpt lat="42.68217" lon="1.46647">
        <ele>2079.95</ele>
        <time>2013-04-22T12:58:02Z</time>
      </trkpt>
      <trkpt lat="42.68215" lon="1.4665">
        <ele>2079.47</ele>
        <time>2013-04-22T12:58:07Z</time>
      </trkpt>
      <trkpt lat="42.68215" lon="1.46661">
        <ele>2080.43</ele>
        <time>2013-04-22T12:58:11Z</time>
      </trkpt>
      <trkpt lat="42.6822" lon="1.46693">
        <ele>2081.39</ele>
        <time>2013-04-22T12:58:25Z</time>
      </trkpt>
      <trkpt lat="42.68227" lon="1.46709">
        <ele>2078.99</ele>
        <time>2013-04-22T12:58:38Z</time>
      </trkpt>
      <trkpt lat="42.68228" lon="1.46713">
        <ele>2078.03</ele>
        <time>2013-04-22T12:58:39Z</time>
      </trkpt>
      <trkpt lat="42.68251" lon="1.4673">
        <ele>2069.86</ele>
        <time>2013-04-22T12:58:46Z</time>
      </trkpt>
      <trkpt lat="42.68269" lon="1.4672">
        <ele>2065.05</ele>
        <time>2013-04-22T12:58:52Z</time>
      </trkpt>
      <trkpt lat="42.68278" lon="1.46711">
        <ele>2063.13</ele>
        <time>2013-04-22T12:58:55Z</time>
      </trkpt>
      <trkpt lat="42.68295" lon="1.46696">
        <ele>2063.13</ele>
        <time>2013-04-22T12:59:02Z</time>
      </trkpt>
      <trkpt lat="42.68298" lon="1.46698">
        <ele>2063.61</ele>
        <time>2013-04-22T12:59:03Z</time>
      </trkpt>
      <trkpt lat="42.68306" lon="1.46703">
        <ele>2063.61</ele>
        <time>2013-04-22T12:59:05Z</time>
      </trkpt>
      <trkpt lat="42.68318" lon="1.46716">
        <ele>2064.09</ele>
        <time>2013-04-22T12:59:09Z</time>
      </trkpt>
      <trkpt lat="42.68338" lon="1.4675">
        <ele>2060.24</ele>
        <time>2013-04-22T12:59:19Z</time>
      </trkpt>
      <trkpt lat="42.68343" lon="1.46753">
        <ele>2059.76</ele>
        <time>2013-04-22T12:59:28Z</time>
      </trkpt>
      <trkpt lat="42.6834" lon="1.46743">
        <ele>2059.28</ele>
        <time>2013-04-22T12:59:40Z</time>
      </trkpt>
      <trkpt lat="42.68342" lon="1.46745">
        <ele>2060.72</ele>
        <time>2013-04-22T12:59:57Z</time>
      </trkpt>
      <trkpt lat="42.68345" lon="1.4675">
        <ele>2061.2</ele>
        <time>2013-04-22T13:00:10Z</time>
      </trkpt>
      <trkpt lat="42.68344" lon="1.46745">
        <ele>2061.68</ele>
        <time>2013-04-22T13:00:39Z</time>
      </trkpt>
      <trkpt lat="42.68344" lon="1.46748">
        <ele>2061.68</ele>
        <time>2013-04-22T13:00:53Z</time>
      </trkpt>
      <trkpt lat="42.68345" lon="1.46748">
        <ele>2062.17</ele>
        <time>2013-04-22T13:00:54Z</time>
      </trkpt>
      <trkpt lat="42.68342" lon="1.46755">
        <ele>2059.28</ele>
        <time>2013-04-22T13:01:10Z</time>
      </trkpt>
      <trkpt lat="42.6834" lon="1.46756">
        <ele>2056.88</ele>
        <time>2013-04-22T13:01:35Z</time>
      </trkpt>
      <trkpt lat="42.6834" lon="1.46756">
        <ele>2056.4</ele>
        <time>2013-04-22T13:01:38Z</time>
      </trkpt>
      <trkpt lat="42.68338" lon="1.46755">
        <ele>2056.4</ele>
        <time>2013-04-22T13:01:40Z</time>
      </trkpt>
      <trkpt lat="42.68349" lon="1.46774">
        <ele>2052.55</ele>
        <time>2013-04-22T13:01:47Z</time>
      </trkpt>
      <trkpt lat="42.6836" lon="1.46784">
        <ele>2045.82</ele>
        <time>2013-04-22T13:01:52Z</time>
      </trkpt>
      <trkpt lat="42.6836" lon="1.46778">
        <ele>2043.9</ele>
        <time>2013-04-22T13:02:15Z</time>
      </trkpt>
      <trkpt lat="42.68359" lon="1.4678">
        <ele>2044.86</ele>
        <time>2013-04-22T13:02:30Z</time>
      </trkpt>
      <trkpt lat="42.68361" lon="1.46785">
        <ele>2043.9</ele>
        <time>2013-04-22T13:02:55Z</time>
      </trkpt>
      <trkpt lat="42.68358" lon="1.46784">
        <ele>2043.42</ele>
        <time>2013-04-22T13:03:11Z</time>
      </trkpt>
      <trkpt lat="42.68356" lon="1.46783">
        <ele>2043.42</ele>
        <time>2013-04-22T13:03:32Z</time>
      </trkpt>
      <trkpt lat="42.68358" lon="1.46787">
        <ele>2042.46</ele>
        <time>2013-04-22T13:03:55Z</time>
      </trkpt>
      <trkpt lat="42.68362" lon="1.46787">
        <ele>2041.98</ele>
        <time>2013-04-22T13:04:01Z</time>
      </trkpt>
      <trkpt lat="42.68377" lon="1.46784">
        <ele>2037.17</ele>
        <time>2013-04-22T13:04:08Z</time>
      </trkpt>
      <trkpt lat="42.68378" lon="1.46783">
        <ele>2037.17</ele>
        <time>2013-04-22T13:04:13Z</time>
      </trkpt>
      <trkpt lat="42.68388" lon="1.46779">
        <ele>2031.4</ele>
        <time>2013-04-22T13:04:19Z</time>
      </trkpt>
      <trkpt lat="42.6839" lon="1.4677">
        <ele>2028.04</ele>
        <time>2013-04-22T13:04:30Z</time>
      </trkpt>
      <trkpt lat="42.6839" lon="1.46769">
        <ele>2028.04</ele>
        <time>2013-04-22T13:04:31Z</time>
      </trkpt>
      <trkpt lat="42.68393" lon="1.46765">
        <ele>2025.15</ele>
        <time>2013-04-22T13:04:39Z</time>
      </trkpt>
      <trkpt lat="42.68393" lon="1.46766">
        <ele>2025.15</ele>
        <time>2013-04-22T13:04:44Z</time>
      </trkpt>
      <trkpt lat="42.68394" lon="1.46774">
        <ele>2025.15</ele>
        <time>2013-04-22T13:04:54Z</time>
      </trkpt>
      <trkpt lat="42.68394" lon="1.46774">
        <ele>2025.15</ele>
        <time>2013-04-22T13:04:55Z</time>
      </trkpt>
      <trkpt lat="42.68394" lon="1.46783">
        <ele>2023.71</ele>
        <time>2013-04-22T13:05:05Z</time>
      </trkpt>
      <trkpt lat="42.68406" lon="1.46793">
        <ele>2021.79</ele>
        <time>2013-04-22T13:05:13Z</time>
      </trkpt>
      <trkpt lat="42.68417" lon="1.46797">
        <ele>2019.87</ele>
        <time>2013-04-22T13:05:24Z</time>
      </trkpt>
      <trkpt lat="42.6842" lon="1.468">
        <ele>2022.75</ele>
        <time>2013-04-22T13:05:34Z</time>
      </trkpt>
      <trkpt lat="42.6842" lon="1.46798">
        <ele>2020.83</ele>
        <time>2013-04-22T13:05:53Z</time>
      </trkpt>
      <trkpt lat="42.6842" lon="1.46798">
        <ele>2024.67</ele>
        <time>2013-04-22T13:06:23Z</time>
      </trkpt>
      <trkpt lat="42.6842" lon="1.46796">
        <ele>2023.23</ele>
        <time>2013-04-22T13:06:33Z</time>
      </trkpt>
      <trkpt lat="42.68424" lon="1.46788">
        <ele>2020.83</ele>
        <time>2013-04-22T13:06:36Z</time>
      </trkpt>
      <trkpt lat="42.68436" lon="1.46765">
        <ele>2012.66</ele>
        <time>2013-04-22T13:06:42Z</time>
      </trkpt>
      <trkpt lat="42.68441" lon="1.4676">
        <ele>2006.89</ele>
        <time>2013-04-22T13:06:45Z</time>
      </trkpt>
      <trkpt lat="42.68443" lon="1.4676">
        <ele>2003.52</ele>
        <time>2013-04-22T13:06:49Z</time>
      </trkpt>
      <trkpt lat="42.68457" lon="1.46762">
        <ele>1994.87</ele>
        <time>2013-04-22T13:06:57Z</time>
      </trkpt>
      <trkpt lat="42.68458" lon="1.46762">
        <ele>1993.91</ele>
        <time>2013-04-22T13:06:59Z</time>
      </trkpt>
      <trkpt lat="42.68459" lon="1.46738">
        <ele>1988.14</ele>
        <time>2013-04-22T13:07:05Z</time>
      </trkpt>
      <trkpt lat="42.68457" lon="1.4672">
        <ele>1979.49</ele>
        <time>2013-04-22T13:07:11Z</time>
      </trkpt>
      <trkpt lat="42.68455" lon="1.46717">
        <ele>1975.17</ele>
        <time>2013-04-22T13:07:28Z</time>
      </trkpt>
      <trkpt lat="42.68464" lon="1.46685">
        <ele>1968.92</ele>
        <time>2013-04-22T13:07:35Z</time>
      </trkpt>
      <trkpt lat="42.68464" lon="1.46685">
        <ele>1967.96</ele>
        <time>2013-04-22T13:07:36Z</time>
      </trkpt>
      <trkpt lat="42.68471" lon="1.46682">
        <ele>1962.19</ele>
        <time>2013-04-22T13:07:45Z</time>
      </trkpt>
      <trkpt lat="42.6847" lon="1.4668">
        <ele>1961.71</ele>
        <time>2013-04-22T13:07:49Z</time>
      </trkpt>
      <trkpt lat="42.68471" lon="1.46669">
        <ele>1955.94</ele>
        <time>2013-04-22T13:07:55Z</time>
      </trkpt>
      <trkpt lat="42.68473" lon="1.46647">
        <ele>1950.65</ele>
        <time>2013-04-22T13:08:00Z</time>
      </trkpt>
      <trkpt lat="42.68467" lon="1.46637">
        <ele>1948.25</ele>
        <time>2013-04-22T13:08:02Z</time>
      </trkpt>
      <trkpt lat="42.68464" lon="1.46638">
        <ele>1943.92</ele>
        <time>2013-04-22T13:08:07Z</time>
      </trkpt>
      <trkpt lat="42.68464" lon="1.46634">
        <ele>1943.44</ele>
        <time>2013-04-22T13:08:08Z</time>
      </trkpt>
      <trkpt lat="42.68466" lon="1.46626">
        <ele>1940.08</ele>
        <time>2013-04-22T13:08:10Z</time>
      </trkpt>
      <trkpt lat="42.68465" lon="1.46621">
        <ele>1939.12</ele>
        <time>2013-04-22T13:08:11Z</time>
      </trkpt>
      <trkpt lat="42.68463" lon="1.46615">
        <ele>1937.67</ele>
        <time>2013-04-22T13:08:12Z</time>
      </trkpt>
      <trkpt lat="42.68463" lon="1.46609">
        <ele>1935.75</ele>
        <time>2013-04-22T13:08:13Z</time>
      </trkpt>
      <trkpt lat="42.68462" lon="1.46604">
        <ele>1933.35</ele>
        <time>2013-04-22T13:08:14Z</time>
      </trkpt>
      <trkpt lat="42.68459" lon="1.46599">
        <ele>1931.91</ele>
        <time>2013-04-22T13:08:15Z</time>
      </trkpt>
      <trkpt lat="42.68454" lon="1.46595">
        <ele>1930.46</ele>
        <time>2013-04-22T13:08:16Z</time>
      </trkpt>
      <trkpt lat="42.68444" lon="1.46584">
        <ele>1927.58</ele>
        <time>2013-04-22T13:08:18Z</time>
      </trkpt>
      <trkpt lat="42.68438" lon="1.46576">
        <ele>1926.14</ele>
        <time>2013-04-22T13:08:19Z</time>
      </trkpt>
      <trkpt lat="42.68427" lon="1.46558">
        <ele>1923.74</ele>
        <time>2013-04-22T13:08:21Z</time>
      </trkpt>
      <trkpt lat="42.68413" lon="1.46519">
        <ele>1920.85</ele>
        <time>2013-04-22T13:08:27Z</time>
      </trkpt>
      <trkpt lat="42.68421" lon="1.46506">
        <ele>1917.01</ele>
        <time>2013-04-22T13:08:33Z</time>
      </trkpt>
      <trkpt lat="42.68418" lon="1.46504">
        <ele>1914.12</ele>
        <time>2013-04-22T13:08:44Z</time>
      </trkpt>
      <trkpt lat="42.68419" lon="1.46503">
        <ele>1916.04</ele>
        <time>2013-04-22T13:08:51Z</time>
      </trkpt>
      <trkpt lat="42.68433" lon="1.46496">
        <ele>1915.56</ele>
        <time>2013-04-22T13:08:57Z</time>
      </trkpt>
      <trkpt lat="42.68437" lon="1.46489">
        <ele>1913.16</ele>
        <time>2013-04-22T13:09:02Z</time>
      </trkpt>
      <trkpt lat="42.68445" lon="1.46478">
        <ele>1909.8</ele>
        <time>2013-04-22T13:09:07Z</time>
      </trkpt>
      <trkpt lat="42.68445" lon="1.46473">
        <ele>1909.32</ele>
        <time>2013-04-22T13:09:08Z</time>
      </trkpt>
      <trkpt lat="42.68449" lon="1.46466">
        <ele>1906.91</ele>
        <time>2013-04-22T13:09:10Z</time>
      </trkpt>
      <trkpt lat="42.68451" lon="1.46462">
        <ele>1905.95</ele>
        <time>2013-04-22T13:09:11Z</time>
      </trkpt>
      <trkpt lat="42.68453" lon="1.46459">
        <ele>1904.99</ele>
        <time>2013-04-22T13:09:12Z</time>
      </trkpt>
      <trkpt lat="42.68455" lon="1.46456">
        <ele>1903.55</ele>
        <time>2013-04-22T13:09:13Z</time>
      </trkpt>
      <trkpt lat="42.68455" lon="1.46454">
        <ele>1902.59</ele>
        <time>2013-04-22T13:09:14Z</time>
      </trkpt>
      <trkpt lat="42.68455" lon="1.46453">
        <ele>1901.14</ele>
        <time>2013-04-22T13:09:15Z</time>
      </trkpt>
      <trkpt lat="42.68454" lon="1.46452">
        <ele>1900.18</ele>
        <time>2013-04-22T13:09:16Z</time>
      </trkpt>
      <trkpt lat="42.68447" lon="1.46456">
        <ele>1892.97</ele>
        <time>2013-04-22T13:09:28Z</time>
      </trkpt>
      <trkpt lat="42.68446" lon="1.46455">
        <ele>1891.53</ele>
        <time>2013-04-22T13:09:34Z</time>
      </trkpt>
      <trkpt lat="42.68447" lon="1.46453">
        <ele>1891.05</ele>
        <time>2013-04-22T13:09:35Z</time>
      </trkpt>
      <trkpt lat="42.68456" lon="1.46446">
        <ele>1889.61</ele>
        <time>2013-04-22T13:09:38Z</time>
      </trkpt>
      <trkpt lat="42.68459" lon="1.46442">
        <ele>1889.13</ele>
        <time>2013-04-22T13:09:39Z</time>
      </trkpt>
      <trkpt lat="42.68462" lon="1.46439">
        <ele>1888.17</ele>
        <time>2013-04-22T13:09:40Z</time>
      </trkpt>
      <trkpt lat="42.68465" lon="1.46435">
        <ele>1887.21</ele>
        <time>2013-04-22T13:09:41Z</time>
      </trkpt>
      <trkpt lat="42.68468" lon="1.46431">
        <ele>1886.24</ele>
        <time>2013-04-22T13:09:42Z</time>
      </trkpt>
      <trkpt lat="42.6847" lon="1.46427">
        <ele>1885.28</ele>
        <time>2013-04-22T13:09:43Z</time>
      </trkpt>
      <trkpt lat="42.68471" lon="1.46423">
        <ele>1884.32</ele>
        <time>2013-04-22T13:09:44Z</time>
      </trkpt>
      <trkpt lat="42.68474" lon="1.4642">
        <ele>1883.36</ele>
        <time>2013-04-22T13:09:45Z</time>
      </trkpt>
      <trkpt lat="42.68477" lon="1.46415">
        <ele>1881.92</ele>
        <time>2013-04-22T13:09:46Z</time>
      </trkpt>
      <trkpt lat="42.68479" lon="1.46411">
        <ele>1880.48</ele>
        <time>2013-04-22T13:09:47Z</time>
      </trkpt>
      <trkpt lat="42.68482" lon="1.46407">
        <ele>1879.03</ele>
        <time>2013-04-22T13:09:48Z</time>
      </trkpt>
      <trkpt lat="42.68484" lon="1.46403">
        <ele>1877.59</ele>
        <time>2013-04-22T13:09:49Z</time>
      </trkpt>
      <trkpt lat="42.68487" lon="1.46398">
        <ele>1876.15</ele>
        <time>2013-04-22T13:09:50Z</time>
      </trkpt>
      <trkpt lat="42.6849" lon="1.46394">
        <ele>1875.19</ele>
        <time>2013-04-22T13:09:51Z</time>
      </trkpt>
      <trkpt lat="42.68492" lon="1.4639">
        <ele>1873.75</ele>
        <time>2013-04-22T13:09:52Z</time>
      </trkpt>
      <trkpt lat="42.68494" lon="1.46384">
        <ele>1872.3</ele>
        <time>2013-04-22T13:09:53Z</time>
      </trkpt>
      <trkpt lat="42.68499" lon="1.46373">
        <ele>1869.9</ele>
        <time>2013-04-22T13:09:55Z</time>
      </trkpt>
      <trkpt lat="42.685" lon="1.46368">
        <ele>1868.46</ele>
        <time>2013-04-22T13:09:56Z</time>
      </trkpt>
      <trkpt lat="42.68498" lon="1.46364">
        <ele>1867.02</ele>
        <time>2013-04-22T13:09:57Z</time>
      </trkpt>
      <trkpt lat="42.68492" lon="1.46363">
        <ele>1863.17</ele>
        <time>2013-04-22T13:10:10Z</time>
      </trkpt>
      <trkpt lat="42.68492" lon="1.46363">
        <ele>1859.33</ele>
        <time>2013-04-22T13:10:28Z</time>
      </trkpt>
      <trkpt lat="42.68491" lon="1.4636">
        <ele>1859.33</ele>
        <time>2013-04-22T13:10:29Z</time>
      </trkpt>
      <trkpt lat="42.6849" lon="1.46352">
        <ele>1858.37</ele>
        <time>2013-04-22T13:10:31Z</time>
      </trkpt>
      <trkpt lat="42.68494" lon="1.46345">
        <ele>1856.92</ele>
        <time>2013-04-22T13:10:33Z</time>
      </trkpt>
      <trkpt lat="42.68496" lon="1.4634">
        <ele>1856.44</ele>
        <time>2013-04-22T13:10:34Z</time>
      </trkpt>
      <trkpt lat="42.68498" lon="1.46335">
        <ele>1855.96</ele>
        <time>2013-04-22T13:10:35Z</time>
      </trkpt>
      <trkpt lat="42.685" lon="1.46331">
        <ele>1855</ele>
        <time>2013-04-22T13:10:36Z</time>
      </trkpt>
      <trkpt lat="42.68502" lon="1.46328">
        <ele>1854.52</ele>
        <time>2013-04-22T13:10:37Z</time>
      </trkpt>
      <trkpt lat="42.68505" lon="1.46326">
        <ele>1853.56</ele>
        <time>2013-04-22T13:10:38Z</time>
      </trkpt>
      <trkpt lat="42.68507" lon="1.46322">
        <ele>1852.6</ele>
        <time>2013-04-22T13:10:39Z</time>
      </trkpt>
      <trkpt lat="42.6851" lon="1.46319">
        <ele>1852.12</ele>
        <time>2013-04-22T13:10:40Z</time>
      </trkpt>
      <trkpt lat="42.68511" lon="1.46317">
        <ele>1851.16</ele>
        <time>2013-04-22T13:10:41Z</time>
      </trkpt>
      <trkpt lat="42.68512" lon="1.46315">
        <ele>1850.19</ele>
        <time>2013-04-22T13:10:42Z</time>
      </trkpt>
      <trkpt lat="42.6851" lon="1.46321">
        <ele>1842.98</ele>
        <time>2013-04-22T13:10:52Z</time>
      </trkpt>
      <trkpt lat="42.68511" lon="1.46319">
        <ele>1843.95</ele>
        <time>2013-04-22T13:11:16Z</time>
      </trkpt>
      <trkpt lat="42.68509" lon="1.46321">
        <ele>1841.54</ele>
        <time>2013-04-22T13:11:51Z</time>
      </trkpt>
      <trkpt lat="42.68513" lon="1.46319">
        <ele>1841.54</ele>
        <time>2013-04-22T13:11:55Z</time>
      </trkpt>
      <trkpt lat="42.68515" lon="1.46317">
        <ele>1841.06</ele>
        <time>2013-04-22T13:11:56Z</time>
      </trkpt>
      <trkpt lat="42.68518" lon="1.46312">
        <ele>1840.58</ele>
        <time>2013-04-22T13:11:57Z</time>
      </trkpt>
      <trkpt lat="42.6853" lon="1.46289">
        <ele>1835.29</ele>
        <time>2013-04-22T13:12:02Z</time>
      </trkpt>
      <trkpt lat="42.68546" lon="1.46261">
        <ele>1824.72</ele>
        <time>2013-04-22T13:12:09Z</time>
      </trkpt>
      <trkpt lat="42.68551" lon="1.46237">
        <ele>1819.91</ele>
        <time>2013-04-22T13:12:16Z</time>
      </trkpt>
      <trkpt lat="42.68548" lon="1.46238">
        <ele>1812.7</ele>
        <time>2013-04-22T13:12:31Z</time>
      </trkpt>
      <trkpt lat="42.68542" lon="1.46238">
        <ele>1806.45</ele>
        <time>2013-04-22T13:12:53Z</time>
      </trkpt>
      <trkpt lat="42.68545" lon="1.46213">
        <ele>1803.09</ele>
        <time>2013-04-22T13:12:59Z</time>
      </trkpt>
      <trkpt lat="42.68556" lon="1.46195">
        <ele>1796.36</ele>
        <time>2013-04-22T13:13:04Z</time>
      </trkpt>
      <trkpt lat="42.68563" lon="1.46175">
        <ele>1790.59</ele>
        <time>2013-04-22T13:13:10Z</time>
      </trkpt>
      <trkpt lat="42.68567" lon="1.46161">
        <ele>1787.71</ele>
        <time>2013-04-22T13:13:16Z</time>
      </trkpt>
      <trkpt lat="42.68567" lon="1.46159">
        <ele>1787.23</ele>
        <time>2013-04-22T13:13:19Z</time>
      </trkpt>
      <trkpt lat="42.68571" lon="1.46153">
        <ele>1786.27</ele>
        <time>2013-04-22T13:13:21Z</time>
      </trkpt>
      <trkpt lat="42.68576" lon="1.46143">
        <ele>1784.34</ele>
        <time>2013-04-22T13:13:29Z</time>
      </trkpt>
      <trkpt lat="42.68578" lon="1.46134">
        <ele>1781.46</ele>
        <time>2013-04-22T13:13:41Z</time>
      </trkpt>
      <trkpt lat="42.68578" lon="1.46129">
        <ele>1780.98</ele>
        <time>2013-04-22T13:13:42Z</time>
      </trkpt>
      <trkpt lat="42.68585" lon="1.46117">
        <ele>1776.65</ele>
        <time>2013-04-22T13:13:49Z</time>
      </trkpt>
      <trkpt lat="42.68585" lon="1.46123">
        <ele>1763.2</ele>
        <time>2013-04-22T13:14:00Z</time>
      </trkpt>
      <trkpt lat="42.68584" lon="1.46122">
        <ele>1758.87</ele>
        <time>2013-04-22T13:14:21Z</time>
      </trkpt>
      <trkpt lat="42.68583" lon="1.46123">
        <ele>1757.43</ele>
        <time>2013-04-22T13:14:33Z</time>
      </trkpt>
      <trkpt lat="42.68581" lon="1.46124">
        <ele>1755.02</ele>
        <time>2013-04-22T13:14:43Z</time>
      </trkpt>
      <trkpt lat="42.68583" lon="1.46128">
        <ele>1754.54</ele>
        <time>2013-04-22T13:14:58Z</time>
      </trkpt>
      <trkpt lat="42.68582" lon="1.46127">
        <ele>1754.06</ele>
        <time>2013-04-22T13:15:16Z</time>
      </trkpt>
      <trkpt lat="42.6858" lon="1.46129">
        <ele>1752.14</ele>
        <time>2013-04-22T13:15:30Z</time>
      </trkpt>
      <trkpt lat="42.68575" lon="1.46127">
        <ele>1750.22</ele>
        <time>2013-04-22T13:15:43Z</time>
      </trkpt>
      <trkpt lat="42.68572" lon="1.46124">
        <ele>1749.74</ele>
        <time>2013-04-22T13:15:55Z</time>
      </trkpt>
      <trkpt lat="42.68573" lon="1.46123">
        <ele>1749.26</ele>
        <time>2013-04-22T13:15:59Z</time>
      </trkpt>
      <trkpt lat="42.68574" lon="1.46118">
        <ele>1748.29</ele>
        <time>2013-04-22T13:16:02Z</time>
      </trkpt>
      <trkpt lat="42.68576" lon="1.46116">
        <ele>1747.81</ele>
        <time>2013-04-22T13:16:03Z</time>
      </trkpt>
      <trkpt lat="42.68577" lon="1.46114">
        <ele>1747.33</ele>
        <time>2013-04-22T13:16:04Z</time>
      </trkpt>
      <trkpt lat="42.68578" lon="1.46112">
        <ele>1746.85</ele>
        <time>2013-04-22T13:16:05Z</time>
      </trkpt>
      <trkpt lat="42.68577" lon="1.46112">
        <ele>1743.97</ele>
        <time>2013-04-22T13:16:14Z</time>
      </trkpt>
      <trkpt lat="42.68575" lon="1.46106">
        <ele>1742.53</ele>
        <time>2013-04-22T13:16:28Z</time>
      </trkpt>
      <trkpt lat="42.68577" lon="1.461">
        <ele>1740.12</ele>
        <time>2013-04-22T13:16:35Z</time>
      </trkpt>
      <trkpt lat="42.68578" lon="1.46098">
        <ele>1739.64</ele>
        <time>2013-04-22T13:16:36Z</time>
      </trkpt>
      <trkpt lat="42.6858" lon="1.46094">
        <ele>1739.16</ele>
        <time>2013-04-22T13:16:37Z</time>
      </trkpt>
      <trkpt lat="42.68581" lon="1.46091">
        <ele>1738.2</ele>
        <time>2013-04-22T13:16:38Z</time>
      </trkpt>
      <trkpt lat="42.68582" lon="1.46088">
        <ele>1737.72</ele>
        <time>2013-04-22T13:16:39Z</time>
      </trkpt>
      <trkpt lat="42.68584" lon="1.46085">
        <ele>1737.24</ele>
        <time>2013-04-22T13:16:40Z</time>
      </trkpt>
      <trkpt lat="42.68586" lon="1.46083">
        <ele>1736.28</ele>
        <time>2013-04-22T13:16:41Z</time>
      </trkpt>
      <trkpt lat="42.68586" lon="1.4608">
        <ele>1735.32</ele>
        <time>2013-04-22T13:16:42Z</time>
      </trkpt>
      <trkpt lat="42.68586" lon="1.46076">
        <ele>1734.36</ele>
        <time>2013-04-22T13:16:43Z</time>
      </trkpt>
      <trkpt lat="42.68587" lon="1.46075">
        <ele>1733.39</ele>
        <time>2013-04-22T13:16:44Z</time>
      </trkpt>
      <trkpt lat="42.68589" lon="1.46074">
        <ele>1732.91</ele>
        <time>2013-04-22T13:16:45Z</time>
      </trkpt>
      <trkpt lat="42.68589" lon="1.46071">
        <ele>1731.95</ele>
        <time>2013-04-22T13:16:46Z</time>
      </trkpt>
      <trkpt lat="42.68589" lon="1.46068">
        <ele>1731.95</ele>
        <time>2013-04-22T13:16:47Z</time>
      </trkpt>
      <trkpt lat="42.68588" lon="1.46065">
        <ele>1731.47</ele>
        <time>2013-04-22T13:16:48Z</time>
      </trkpt>
      <trkpt lat="42.68589" lon="1.46064">
        <ele>1730.99</ele>
        <time>2013-04-22T13:16:49Z</time>
      </trkpt>
      <trkpt lat="42.68588" lon="1.46064">
        <ele>1729.55</ele>
        <time>2013-04-22T13:17:02Z</time>
      </trkpt>
      <trkpt lat="42.68588" lon="1.46063">
        <ele>1729.07</ele>
        <time>2013-04-22T13:17:03Z</time>
      </trkpt>
      <trkpt lat="42.68605" lon="1.46046">
        <ele>1724.26</ele>
        <time>2013-04-22T13:17:10Z</time>
      </trkpt>
      <trkpt lat="42.68615" lon="1.46037">
        <ele>1720.42</ele>
        <time>2013-04-22T13:17:15Z</time>
      </trkpt>
      <trkpt lat="42.68616" lon="1.46033">
        <ele>1719.46</ele>
        <time>2013-04-22T13:17:17Z</time>
      </trkpt>
      <trkpt lat="42.68615" lon="1.46028">
        <ele>1719.46</ele>
        <time>2013-04-22T13:17:18Z</time>
      </trkpt>
      <trkpt lat="42.68616" lon="1.46024">
        <ele>1719.46</ele>
        <time>2013-04-22T13:17:19Z</time>
      </trkpt>
      <trkpt lat="42.68618" lon="1.4602">
        <ele>1718.49</ele>
        <time>2013-04-22T13:17:20Z</time>
      </trkpt>
      <trkpt lat="42.6862" lon="1.46016">
        <ele>1718.49</ele>
        <time>2013-04-22T13:17:21Z</time>
      </trkpt>
      <trkpt lat="42.68621" lon="1.46013">
        <ele>1718.49</ele>
        <time>2013-04-22T13:17:22Z</time>
      </trkpt>
      <trkpt lat="42.68623" lon="1.4601">
        <ele>1718.49</ele>
        <time>2013-04-22T13:17:23Z</time>
      </trkpt>
      <trkpt lat="42.68625" lon="1.46008">
        <ele>1718.49</ele>
        <time>2013-04-22T13:17:24Z</time>
      </trkpt>
      <trkpt lat="42.68626" lon="1.46006">
        <ele>1718.49</ele>
        <time>2013-04-22T13:17:25Z</time>
      </trkpt>
      <trkpt lat="42.68628" lon="1.46002">
        <ele>1718.49</ele>
        <time>2013-04-22T13:17:26Z</time>
      </trkpt>
      <trkpt lat="42.68629" lon="1.45998">
        <ele>1718.49</ele>
        <time>2013-04-22T13:17:27Z</time>
      </trkpt>
      <trkpt lat="42.68629" lon="1.45994">
        <ele>1718.49</ele>
        <time>2013-04-22T13:17:28Z</time>
      </trkpt>
      <trkpt lat="42.68631" lon="1.45991">
        <ele>1718.01</ele>
        <time>2013-04-22T13:17:29Z</time>
      </trkpt>
      <trkpt lat="42.68633" lon="1.45987">
        <ele>1718.01</ele>
        <time>2013-04-22T13:17:30Z</time>
      </trkpt>
      <trkpt lat="42.68632" lon="1.45983">
        <ele>1714.17</ele>
        <time>2013-04-22T13:17:38Z</time>
      </trkpt>
      <trkpt lat="42.68632" lon="1.45979">
        <ele>1710.32</ele>
        <time>2013-04-22T13:17:50Z</time>
      </trkpt>
      <trkpt lat="42.68635" lon="1.45976">
        <ele>1710.32</ele>
        <time>2013-04-22T13:17:51Z</time>
      </trkpt>
      <trkpt lat="42.68636" lon="1.45973">
        <ele>1710.32</ele>
        <time>2013-04-22T13:17:52Z</time>
      </trkpt>
      <trkpt lat="42.68638" lon="1.45969">
        <ele>1710.32</ele>
        <time>2013-04-22T13:17:53Z</time>
      </trkpt>
      <trkpt lat="42.6864" lon="1.45965">
        <ele>1710.32</ele>
        <time>2013-04-22T13:17:54Z</time>
      </trkpt>
      <trkpt lat="42.68642" lon="1.4596">
        <ele>1710.32</ele>
        <time>2013-04-22T13:17:55Z</time>
      </trkpt>
      <trkpt lat="42.68644" lon="1.45955">
        <ele>1710.32</ele>
        <time>2013-04-22T13:17:56Z</time>
      </trkpt>
      <trkpt lat="42.68645" lon="1.4595">
        <ele>1710.32</ele>
        <time>2013-04-22T13:17:57Z</time>
      </trkpt>
      <trkpt lat="42.68646" lon="1.45946">
        <ele>1709.84</ele>
        <time>2013-04-22T13:17:58Z</time>
      </trkpt>
      <trkpt lat="42.68648" lon="1.45942">
        <ele>1709.84</ele>
        <time>2013-04-22T13:17:59Z</time>
      </trkpt>
      <trkpt lat="42.68649" lon="1.45937">
        <ele>1709.84</ele>
        <time>2013-04-22T13:18:00Z</time>
      </trkpt>
      <trkpt lat="42.68653" lon="1.45933">
        <ele>1709.84</ele>
        <time>2013-04-22T13:18:01Z</time>
      </trkpt>
      <trkpt lat="42.68655" lon="1.45928">
        <ele>1709.84</ele>
        <time>2013-04-22T13:18:02Z</time>
      </trkpt>
      <trkpt lat="42.68658" lon="1.45923">
        <ele>1709.84</ele>
        <time>2013-04-22T13:18:03Z</time>
      </trkpt>
      <trkpt lat="42.68661" lon="1.45919">
        <ele>1709.84</ele>
        <time>2013-04-22T13:18:04Z</time>
      </trkpt>
      <trkpt lat="42.68664" lon="1.45915">
        <ele>1709.84</ele>
        <time>2013-04-22T13:18:05Z</time>
      </trkpt>
      <trkpt lat="42.68666" lon="1.4591">
        <ele>1709.84</ele>
        <time>2013-04-22T13:18:06Z</time>
      </trkpt>
      <trkpt lat="42.68668" lon="1.45905">
        <ele>1709.84</ele>
        <time>2013-04-22T13:18:07Z</time>
      </trkpt>
      <trkpt lat="42.6867" lon="1.459">
        <ele>1709.84</ele>
        <time>2013-04-22T13:18:08Z</time>
      </trkpt>
      <trkpt lat="42.6867" lon="1.45896">
        <ele>1709.84</ele>
        <time>2013-04-22T13:18:09Z</time>
      </trkpt>
      <trkpt lat="42.68671" lon="1.45894">
        <ele>1709.36</ele>
        <time>2013-04-22T13:18:10Z</time>
      </trkpt>
      <trkpt lat="42.68663" lon="1.45899">
        <ele>1697.34</ele>
        <time>2013-04-22T13:18:23Z</time>
      </trkpt>
      <trkpt lat="42.68661" lon="1.45894">
        <ele>1691.58</ele>
        <time>2013-04-22T13:18:33Z</time>
      </trkpt>
      <trkpt lat="42.68664" lon="1.45891">
        <ele>1691.58</ele>
        <time>2013-04-22T13:18:34Z</time>
      </trkpt>
      <trkpt lat="42.68667" lon="1.45889">
        <ele>1691.58</ele>
        <time>2013-04-22T13:18:35Z</time>
      </trkpt>
      <trkpt lat="42.68669" lon="1.45885">
        <ele>1691.1</ele>
        <time>2013-04-22T13:18:36Z</time>
      </trkpt>
      <trkpt lat="42.68669" lon="1.45881">
        <ele>1691.58</ele>
        <time>2013-04-22T13:18:37Z</time>
      </trkpt>
      <trkpt lat="42.68671" lon="1.45876">
        <ele>1691.1</ele>
        <time>2013-04-22T13:18:38Z</time>
      </trkpt>
      <trkpt lat="42.68672" lon="1.45873">
        <ele>1690.62</ele>
        <time>2013-04-22T13:18:39Z</time>
      </trkpt>
      <trkpt lat="42.68672" lon="1.45867">
        <ele>1690.62</ele>
        <time>2013-04-22T13:18:41Z</time>
      </trkpt>
      <trkpt lat="42.68672" lon="1.45865">
        <ele>1690.62</ele>
        <time>2013-04-22T13:18:42Z</time>
      </trkpt>
      <trkpt lat="42.68673" lon="1.45863">
        <ele>1690.62</ele>
        <time>2013-04-22T13:18:43Z</time>
      </trkpt>
      <trkpt lat="42.68674" lon="1.45861">
        <ele>1690.62</ele>
        <time>2013-04-22T13:18:44Z</time>
      </trkpt>
      <trkpt lat="42.68674" lon="1.4586">
        <ele>1689.65</ele>
        <time>2013-04-22T13:18:53Z</time>
      </trkpt>
      <trkpt lat="42.68668" lon="1.45865">
        <ele>1675.23</ele>
        <time>2013-04-22T13:19:08Z</time>
      </trkpt>
      <trkpt lat="42.68668" lon="1.45864">
        <ele>1674.27</ele>
        <time>2013-04-22T13:19:10Z</time>
      </trkpt>
      <trkpt lat="42.68662" lon="1.45865">
        <ele>1665.62</ele>
        <time>2013-04-22T13:19:24Z</time>
      </trkpt>
      <trkpt lat="42.68657" lon="1.45866">
        <ele>1654.09</ele>
        <time>2013-04-22T13:19:47Z</time>
      </trkpt>
      <trkpt lat="42.68655" lon="1.45869">
        <ele>1651.68</ele>
        <time>2013-04-22T13:19:59Z</time>
      </trkpt>
      <trkpt lat="42.68656" lon="1.45871">
        <ele>1649.76</ele>
        <time>2013-04-22T13:20:12Z</time>
      </trkpt>
      <trkpt lat="42.68656" lon="1.4587">
        <ele>1649.76</ele>
        <time>2013-04-22T13:20:31Z</time>
      </trkpt>
      <trkpt lat="42.68656" lon="1.45871">
        <ele>1642.07</ele>
        <time>2013-04-22T13:20:43Z</time>
      </trkpt>
      <trkpt lat="42.68653" lon="1.45872">
        <ele>1641.11</ele>
        <time>2013-04-22T13:20:58Z</time>
      </trkpt>
      <trkpt lat="42.68653" lon="1.4587">
        <ele>1641.11</ele>
        <time>2013-04-22T13:20:59Z</time>
      </trkpt>
      <trkpt lat="42.68654" lon="1.45871">
        <ele>1639.67</ele>
        <time>2013-04-22T13:21:10Z</time>
      </trkpt>
      <trkpt lat="42.68654" lon="1.45872">
        <ele>1638.7</ele>
        <time>2013-04-22T13:21:14Z</time>
      </trkpt>
      <trkpt lat="42.68655" lon="1.45872">
        <ele>1639.67</ele>
        <time>2013-04-22T13:21:27Z</time>
      </trkpt>
      <trkpt lat="42.68658" lon="1.4587">
        <ele>1636.3</ele>
        <time>2013-04-22T13:21:56Z</time>
      </trkpt>
      <trkpt lat="42.68657" lon="1.45869">
        <ele>1640.15</ele>
        <time>2013-04-22T13:22:22Z</time>
      </trkpt>
      <trkpt lat="42.68659" lon="1.45866">
        <ele>1644.47</ele>
        <time>2013-04-22T13:22:49Z</time>
      </trkpt>
      <trkpt lat="42.68658" lon="1.45866">
        <ele>1645.43</ele>
        <time>2013-04-22T13:23:17Z</time>
      </trkpt>
      <trkpt lat="42.68658" lon="1.45868">
        <ele>1647.36</ele>
        <time>2013-04-22T13:23:45Z</time>
      </trkpt>
      <trkpt lat="42.68653" lon="1.45869">
        <ele>1647.36</ele>
        <time>2013-04-22T13:24:07Z</time>
      </trkpt>
      <trkpt lat="42.6866" lon="1.45869">
        <ele>1646.88</ele>
        <time>2013-04-22T13:24:33Z</time>
      </trkpt>
      <trkpt lat="42.68657" lon="1.45868">
        <ele>1643.03</ele>
        <time>2013-04-22T13:24:59Z</time>
      </trkpt>
      <trkpt lat="42.68656" lon="1.45869">
        <ele>1639.19</ele>
        <time>2013-04-22T13:25:24Z</time>
      </trkpt>
      <trkpt lat="42.68658" lon="1.45866">
        <ele>1645.43</ele>
        <time>2013-04-22T13:25:55Z</time>
      </trkpt>
      <trkpt lat="42.68654" lon="1.45869">
        <ele>1645.91</ele>
        <time>2013-04-22T13:26:28Z</time>
      </trkpt>
      <trkpt lat="42.68655" lon="1.45869">
        <ele>1644.47</ele>
        <time>2013-04-22T13:26:44Z</time>
      </trkpt>
      <trkpt lat="42.68656" lon="1.45872">
        <ele>1639.19</ele>
        <time>2013-04-22T13:27:10Z</time>
      </trkpt>
      <trkpt lat="42.68652" lon="1.45869">
        <ele>1636.78</ele>
        <time>2013-04-22T13:27:40Z</time>
      </trkpt>
      <trkpt lat="42.68656" lon="1.4587">
        <ele>1632.46</ele>
        <time>2013-04-22T13:28:10Z</time>
      </trkpt>
      <trkpt lat="42.6865" lon="1.45871">
        <ele>1629.57</ele>
        <time>2013-04-22T13:28:42Z</time>
      </trkpt>
      <trkpt lat="42.68652" lon="1.4587">
        <ele>1631.01</ele>
        <time>2013-04-22T13:29:12Z</time>
      </trkpt>
      <trkpt lat="42.68652" lon="1.4587">
        <ele>1632.94</ele>
        <time>2013-04-22T13:29:42Z</time>
      </trkpt>
      <trkpt lat="42.68657" lon="1.45872">
        <ele>1638.7</ele>
        <time>2013-04-22T13:30:17Z</time>
      </trkpt>
      <trkpt lat="42.68658" lon="1.45868">
        <ele>1638.22</ele>
        <time>2013-04-22T13:30:43Z</time>
      </trkpt>
      <trkpt lat="42.68651" lon="1.45871">
        <ele>1631.49</ele>
        <time>2013-04-22T13:31:11Z</time>
      </trkpt>
      <trkpt lat="42.68653" lon="1.45871">
        <ele>1633.9</ele>
        <time>2013-04-22T13:31:24Z</time>
      </trkpt>
      <trkpt lat="42.68652" lon="1.45873">
        <ele>1633.9</ele>
        <time>2013-04-22T13:31:41Z</time>
      </trkpt>
      <trkpt lat="42.68652" lon="1.45869">
        <ele>1632.46</ele>
        <time>2013-04-22T13:31:58Z</time>
      </trkpt>
      <trkpt lat="42.68651" lon="1.45859">
        <ele>1630.53</ele>
        <time>2013-04-22T13:32:11Z</time>
      </trkpt>
      <trkpt lat="42.68654" lon="1.4586">
        <ele>1631.49</ele>
        <time>2013-04-22T13:32:26Z</time>
      </trkpt>
      <trkpt lat="42.68655" lon="1.45858">
        <ele>1631.01</ele>
        <time>2013-04-22T13:32:42Z</time>
      </trkpt>
      <trkpt lat="42.68652" lon="1.45848">
        <ele>1627.65</ele>
        <time>2013-04-22T13:32:52Z</time>
      </trkpt>
      <trkpt lat="42.6865" lon="1.45837">
        <ele>1625.25</ele>
        <time>2013-04-22T13:33:05Z</time>
      </trkpt>
      <trkpt lat="42.68648" lon="1.45829">
        <ele>1623.32</ele>
        <time>2013-04-22T13:33:14Z</time>
      </trkpt>
      <trkpt lat="42.68644" lon="1.45825">
        <ele>1621.4</ele>
        <time>2013-04-22T13:33:26Z</time>
      </trkpt>
      <trkpt lat="42.68639" lon="1.45815">
        <ele>1619.96</ele>
        <time>2013-04-22T13:33:37Z</time>
      </trkpt>
      <trkpt lat="42.6864" lon="1.45803">
        <ele>1616.59</ele>
        <time>2013-04-22T13:33:49Z</time>
      </trkpt>
      <trkpt lat="42.6864" lon="1.45798">
        <ele>1616.59</ele>
        <time>2013-04-22T13:33:59Z</time>
      </trkpt>
      <trkpt lat="42.68647" lon="1.45799">
        <ele>1616.59</ele>
        <time>2013-04-22T13:34:11Z</time>
      </trkpt>
      <trkpt lat="42.68649" lon="1.45797">
        <ele>1616.11</ele>
        <time>2013-04-22T13:34:14Z</time>
      </trkpt>
      <trkpt lat="42.68651" lon="1.45793">
        <ele>1614.67</ele>
        <time>2013-04-22T13:34:21Z</time>
      </trkpt>
      <trkpt lat="42.68649" lon="1.45787">
        <ele>1612.27</ele>
        <time>2013-04-22T13:34:32Z</time>
      </trkpt>
      <trkpt lat="42.68644" lon="1.45776">
        <ele>1612.27</ele>
        <time>2013-04-22T13:34:45Z</time>
      </trkpt>
      <trkpt lat="42.68638" lon="1.45768">
        <ele>1611.31</ele>
        <time>2013-04-22T13:35:00Z</time>
      </trkpt>
      <trkpt lat="42.68638" lon="1.45758">
        <ele>1606.5</ele>
        <time>2013-04-22T13:35:13Z</time>
      </trkpt>
      <trkpt lat="42.68635" lon="1.45754">
        <ele>1604.58</ele>
        <time>2013-04-22T13:35:22Z</time>
      </trkpt>
      <trkpt lat="42.68634" lon="1.45747">
        <ele>1604.1</ele>
        <time>2013-04-22T13:35:28Z</time>
      </trkpt>
      <trkpt lat="42.68628" lon="1.4574">
        <ele>1603.14</ele>
        <time>2013-04-22T13:35:42Z</time>
      </trkpt>
      <trkpt lat="42.68627" lon="1.4574">
        <ele>1602.17</ele>
        <time>2013-04-22T13:35:57Z</time>
      </trkpt>
      <trkpt lat="42.68622" lon="1.45739">
        <ele>1602.17</ele>
        <time>2013-04-22T13:36:08Z</time>
      </trkpt>
      <trkpt lat="42.68617" lon="1.45731">
        <ele>1601.21</ele>
        <time>2013-04-22T13:36:23Z</time>
      </trkpt>
      <trkpt lat="42.68614" lon="1.45727">
        <ele>1600.25</ele>
        <time>2013-04-22T13:36:36Z</time>
      </trkpt>
      <trkpt lat="42.68617" lon="1.45726">
        <ele>1595.45</ele>
        <time>2013-04-22T13:36:52Z</time>
      </trkpt>
      <trkpt lat="42.68614" lon="1.45727">
        <ele>1593.52</ele>
        <time>2013-04-22T13:37:14Z</time>
      </trkpt>
      <trkpt lat="42.68611" lon="1.45729">
        <ele>1593.52</ele>
        <time>2013-04-22T13:37:36Z</time>
      </trkpt>
      <trkpt lat="42.68604" lon="1.45719">
        <ele>1589.68</ele>
        <time>2013-04-22T13:37:49Z</time>
      </trkpt>
      <trkpt lat="42.68597" lon="1.45712">
        <ele>1590.64</ele>
        <time>2013-04-22T13:38:01Z</time>
      </trkpt>
      <trkpt lat="42.68588" lon="1.45702">
        <ele>1592.56</ele>
        <time>2013-04-22T13:38:13Z</time>
      </trkpt>
      <trkpt lat="42.68583" lon="1.45691">
        <ele>1596.41</ele>
        <time>2013-04-22T13:38:24Z</time>
      </trkpt>
      <trkpt lat="42.68579" lon="1.4568">
        <ele>1599.29</ele>
        <time>2013-04-22T13:38:36Z</time>
      </trkpt>
      <trkpt lat="42.68574" lon="1.45672">
        <ele>1599.29</ele>
        <time>2013-04-22T13:38:46Z</time>
      </trkpt>
      <trkpt lat="42.68569" lon="1.45657">
        <ele>1597.85</ele>
        <time>2013-04-22T13:38:58Z</time>
      </trkpt>
      <trkpt lat="42.68568" lon="1.45656">
        <ele>1597.85</ele>
        <time>2013-04-22T13:38:59Z</time>
      </trkpt>
      <trkpt lat="42.68565" lon="1.45648">
        <ele>1597.85</ele>
        <time>2013-04-22T13:39:04Z</time>
      </trkpt>
      <trkpt lat="42.6856" lon="1.45631">
        <ele>1599.29</ele>
        <time>2013-04-22T13:39:18Z</time>
      </trkpt>
      <trkpt lat="42.68559" lon="1.45624">
        <ele>1599.77</ele>
        <time>2013-04-22T13:39:23Z</time>
      </trkpt>
      <trkpt lat="42.68558" lon="1.45621">
        <ele>1599.77</ele>
        <time>2013-04-22T13:39:25Z</time>
      </trkpt>
      <trkpt lat="42.68556" lon="1.45618">
        <ele>1599.77</ele>
        <time>2013-04-22T13:39:27Z</time>
      </trkpt>
      <trkpt lat="42.68551" lon="1.45599">
        <ele>1601.21</ele>
        <time>2013-04-22T13:39:41Z</time>
      </trkpt>
      <trkpt lat="42.68543" lon="1.45583">
        <ele>1601.21</ele>
        <time>2013-04-22T13:39:53Z</time>
      </trkpt>
      <trkpt lat="42.68539" lon="1.45571">
        <ele>1600.25</ele>
        <time>2013-04-22T13:40:02Z</time>
      </trkpt>
      <trkpt lat="42.68531" lon="1.45552">
        <ele>1601.21</ele>
        <time>2013-04-22T13:40:16Z</time>
      </trkpt>
      <trkpt lat="42.68531" lon="1.45551">
        <ele>1601.21</ele>
        <time>2013-04-22T13:40:17Z</time>
      </trkpt>
      <trkpt lat="42.68523" lon="1.45537">
        <ele>1600.73</ele>
        <time>2013-04-22T13:40:28Z</time>
      </trkpt>
      <trkpt lat="42.68516" lon="1.45536">
        <ele>1599.29</ele>
        <time>2013-04-22T13:40:44Z</time>
      </trkpt>
      <trkpt lat="42.68513" lon="1.4553">
        <ele>1599.77</ele>
        <time>2013-04-22T13:41:05Z</time>
      </trkpt>
      <trkpt lat="42.68505" lon="1.45522">
        <ele>1599.29</ele>
        <time>2013-04-22T13:41:16Z</time>
      </trkpt>
      <trkpt lat="42.68503" lon="1.45523">
        <ele>1601.21</ele>
        <time>2013-04-22T13:41:28Z</time>
      </trkpt>
      <trkpt lat="42.68502" lon="1.4552">
        <ele>1601.21</ele>
        <time>2013-04-22T13:41:39Z</time>
      </trkpt>
      <trkpt lat="42.68502" lon="1.4552">
        <ele>1601.21</ele>
        <time>2013-04-22T13:42:12Z</time>
      </trkpt>
      <trkpt lat="42.68502" lon="1.45521">
        <ele>1601.21</ele>
        <time>2013-04-22T13:42:46Z</time>
      </trkpt>
      <trkpt lat="42.68503" lon="1.45518">
        <ele>1602.17</ele>
        <time>2013-04-22T13:43:06Z</time>
      </trkpt>
      <trkpt lat="42.68503" lon="1.4552">
        <ele>1599.77</ele>
        <time>2013-04-22T13:43:19Z</time>
      </trkpt>
      <trkpt lat="42.68502" lon="1.45522">
        <ele>1596.89</ele>
        <time>2013-04-22T13:43:39Z</time>
      </trkpt>
      <trkpt lat="42.68498" lon="1.45521">
        <ele>1596.41</ele>
        <time>2013-04-22T13:43:53Z</time>
      </trkpt>
      <trkpt lat="42.68499" lon="1.45515">
        <ele>1598.33</ele>
        <time>2013-04-22T13:44:08Z</time>
      </trkpt>
      <trkpt lat="42.68495" lon="1.45507">
        <ele>1599.29</ele>
        <time>2013-04-22T13:44:17Z</time>
      </trkpt>
      <trkpt lat="42.68484" lon="1.45493">
        <ele>1598.33</ele>
        <time>2013-04-22T13:44:30Z</time>
      </trkpt>
      <trkpt lat="42.68478" lon="1.45483">
        <ele>1598.81</ele>
        <time>2013-04-22T13:44:39Z</time>
      </trkpt>
      <trkpt lat="42.68469" lon="1.45471">
        <ele>1597.37</ele>
        <time>2013-04-22T13:44:51Z</time>
      </trkpt>
      <trkpt lat="42.68468" lon="1.4547">
        <ele>1597.37</ele>
        <time>2013-04-22T13:44:52Z</time>
      </trkpt>
      <trkpt lat="42.68459" lon="1.45456">
        <ele>1595.93</ele>
        <time>2013-04-22T13:45:05Z</time>
      </trkpt>
      <trkpt lat="42.68452" lon="1.45447">
        <ele>1595.93</ele>
        <time>2013-04-22T13:45:17Z</time>
      </trkpt>
      <trkpt lat="42.68442" lon="1.45434">
        <ele>1594.48</ele>
        <time>2013-04-22T13:45:32Z</time>
      </trkpt>
      <trkpt lat="42.68438" lon="1.45422">
        <ele>1596.41</ele>
        <time>2013-04-22T13:45:45Z</time>
      </trkpt>
      <trkpt lat="42.68433" lon="1.45413">
        <ele>1596.41</ele>
        <time>2013-04-22T13:45:53Z</time>
      </trkpt>
      <trkpt lat="42.68432" lon="1.45411">
        <ele>1596.41</ele>
        <time>2013-04-22T13:45:55Z</time>
      </trkpt>
      <trkpt lat="42.68426" lon="1.45398">
        <ele>1598.33</ele>
        <time>2013-04-22T13:46:09Z</time>
      </trkpt>
      <trkpt lat="42.68417" lon="1.45392">
        <ele>1598.81</ele>
        <time>2013-04-22T13:46:20Z</time>
      </trkpt>
      <trkpt lat="42.68409" lon="1.45387">
        <ele>1598.81</ele>
        <time>2013-04-22T13:46:35Z</time>
      </trkpt>
      <trkpt lat="42.68403" lon="1.45382">
        <ele>1601.21</ele>
        <time>2013-04-22T13:46:49Z</time>
      </trkpt>
      <trkpt lat="42.68397" lon="1.45371">
        <ele>1599.77</ele>
        <time>2013-04-22T13:47:02Z</time>
      </trkpt>
      <trkpt lat="42.68393" lon="1.4536">
        <ele>1601.21</ele>
        <time>2013-04-22T13:47:16Z</time>
      </trkpt>
      <trkpt lat="42.68393" lon="1.45359">
        <ele>1601.69</ele>
        <time>2013-04-22T13:47:19Z</time>
      </trkpt>
      <trkpt lat="42.68391" lon="1.45348">
        <ele>1602.17</ele>
        <time>2013-04-22T13:47:31Z</time>
      </trkpt>
      <trkpt lat="42.6839" lon="1.45345">
        <ele>1601.69</ele>
        <time>2013-04-22T13:47:34Z</time>
      </trkpt>
      <trkpt lat="42.68386" lon="1.45341">
        <ele>1601.21</ele>
        <time>2013-04-22T13:47:37Z</time>
      </trkpt>
      <trkpt lat="42.68376" lon="1.45324">
        <ele>1599.29</ele>
        <time>2013-04-22T13:47:51Z</time>
      </trkpt>
      <trkpt lat="42.6837" lon="1.45318">
        <ele>1597.85</ele>
        <time>2013-04-22T13:48:03Z</time>
      </trkpt>
      <trkpt lat="42.68364" lon="1.45313">
        <ele>1594.96</ele>
        <time>2013-04-22T13:48:16Z</time>
      </trkpt>
      <trkpt lat="42.6836" lon="1.4531">
        <ele>1592.56</ele>
        <time>2013-04-22T13:48:20Z</time>
      </trkpt>
      <trkpt lat="42.68353" lon="1.45302">
        <ele>1588.24</ele>
        <time>2013-04-22T13:48:32Z</time>
      </trkpt>
      <trkpt lat="42.6835" lon="1.453">
        <ele>1588.72</ele>
        <time>2013-04-22T13:48:47Z</time>
      </trkpt>
      <trkpt lat="42.68344" lon="1.45293">
        <ele>1589.2</ele>
        <time>2013-04-22T13:49:00Z</time>
      </trkpt>
      <trkpt lat="42.68342" lon="1.45291">
        <ele>1588.72</ele>
        <time>2013-04-22T13:49:05Z</time>
      </trkpt>
      <trkpt lat="42.68334" lon="1.45285">
        <ele>1588.72</ele>
        <time>2013-04-22T13:49:20Z</time>
      </trkpt>
      <trkpt lat="42.68331" lon="1.45284">
        <ele>1588.72</ele>
        <time>2013-04-22T13:49:31Z</time>
      </trkpt>
      <trkpt lat="42.68322" lon="1.4528">
        <ele>1588.72</ele>
        <time>2013-04-22T13:49:45Z</time>
      </trkpt>
      <trkpt lat="42.68315" lon="1.45272">
        <ele>1586.79</ele>
        <time>2013-04-22T13:49:57Z</time>
      </trkpt>
      <trkpt lat="42.68309" lon="1.45261">
        <ele>1583.43</ele>
        <time>2013-04-22T13:50:11Z</time>
      </trkpt>
      <trkpt lat="42.68303" lon="1.45254">
        <ele>1581.03</ele>
        <time>2013-04-22T13:50:22Z</time>
      </trkpt>
      <trkpt lat="42.68296" lon="1.45242">
        <ele>1578.14</ele>
        <time>2013-04-22T13:50:34Z</time>
      </trkpt>
      <trkpt lat="42.68291" lon="1.45236">
        <ele>1576.7</ele>
        <time>2013-04-22T13:50:40Z</time>
      </trkpt>
      <trkpt lat="42.68289" lon="1.45234">
        <ele>1576.7</ele>
        <time>2013-04-22T13:50:42Z</time>
      </trkpt>
      <trkpt lat="42.68283" lon="1.45228">
        <ele>1575.26</ele>
        <time>2013-04-22T13:50:48Z</time>
      </trkpt>
      <trkpt lat="42.68278" lon="1.45222">
        <ele>1575.26</ele>
        <time>2013-04-22T13:50:54Z</time>
      </trkpt>
      <trkpt lat="42.68262" lon="1.45208">
        <ele>1574.78</ele>
        <time>2013-04-22T13:51:09Z</time>
      </trkpt>
      <trkpt lat="42.68249" lon="1.452">
        <ele>1572.85</ele>
        <time>2013-04-22T13:51:22Z</time>
      </trkpt>
      <trkpt lat="42.6823" lon="1.45192">
        <ele>1572.85</ele>
        <time>2013-04-22T13:51:38Z</time>
      </trkpt>
      <trkpt lat="42.68226" lon="1.45193">
        <ele>1572.37</ele>
        <time>2013-04-22T13:51:50Z</time>
      </trkpt>
      <trkpt lat="42.6822" lon="1.45192">
        <ele>1574.78</ele>
        <time>2013-04-22T13:52:03Z</time>
      </trkpt>
      <trkpt lat="42.68213" lon="1.45191">
        <ele>1577.66</ele>
        <time>2013-04-22T13:52:16Z</time>
      </trkpt>
      <trkpt lat="42.68206" lon="1.4519">
        <ele>1577.66</ele>
        <time>2013-04-22T13:52:26Z</time>
      </trkpt>
      <trkpt lat="42.68201" lon="1.45186">
        <ele>1577.66</ele>
        <time>2013-04-22T13:52:40Z</time>
      </trkpt>
      <trkpt lat="42.682" lon="1.45185">
        <ele>1577.18</ele>
        <time>2013-04-22T13:52:42Z</time>
      </trkpt>
      <trkpt lat="42.68186" lon="1.4518">
        <ele>1575.74</ele>
        <time>2013-04-22T13:52:57Z</time>
      </trkpt>
      <trkpt lat="42.6818" lon="1.45177">
        <ele>1575.26</ele>
        <time>2013-04-22T13:53:08Z</time>
      </trkpt>
      <trkpt lat="42.68171" lon="1.45174">
        <ele>1575.26</ele>
        <time>2013-04-22T13:53:18Z</time>
      </trkpt>
      <trkpt lat="42.68156" lon="1.45169">
        <ele>1575.26</ele>
        <time>2013-04-22T13:53:32Z</time>
      </trkpt>
      <trkpt lat="42.68152" lon="1.45168">
        <ele>1574.78</ele>
        <time>2013-04-22T13:53:37Z</time>
      </trkpt>
      <trkpt lat="42.68143" lon="1.45167">
        <ele>1575.74</ele>
        <time>2013-04-22T13:53:50Z</time>
      </trkpt>
      <trkpt lat="42.68141" lon="1.45166">
        <ele>1575.74</ele>
        <time>2013-04-22T13:53:52Z</time>
      </trkpt>
      <trkpt lat="42.68139" lon="1.45166">
        <ele>1575.74</ele>
        <time>2013-04-22T13:53:54Z</time>
      </trkpt>
      <trkpt lat="42.68134" lon="1.45163">
        <ele>1576.7</ele>
        <time>2013-04-22T13:54:08Z</time>
      </trkpt>
      <trkpt lat="42.68126" lon="1.45164">
        <ele>1573.82</ele>
        <time>2013-04-22T13:54:27Z</time>
      </trkpt>
      <trkpt lat="42.68125" lon="1.45168">
        <ele>1575.26</ele>
        <time>2013-04-22T13:54:40Z</time>
      </trkpt>
      <trkpt lat="42.68126" lon="1.45165">
        <ele>1575.74</ele>
        <time>2013-04-22T13:55:07Z</time>
      </trkpt>
      <trkpt lat="42.68123" lon="1.45166">
        <ele>1574.3</ele>
        <time>2013-04-22T13:55:11Z</time>
      </trkpt>
      <trkpt lat="42.68117" lon="1.45171">
        <ele>1574.78</ele>
        <time>2013-04-22T13:55:18Z</time>
      </trkpt>
      <trkpt lat="42.68113" lon="1.45174">
        <ele>1576.22</ele>
        <time>2013-04-22T13:55:22Z</time>
      </trkpt>
      <trkpt lat="42.68105" lon="1.45176">
        <ele>1578.14</ele>
        <time>2013-04-22T13:55:35Z</time>
      </trkpt>
      <trkpt lat="42.681" lon="1.4518">
        <ele>1578.62</ele>
        <time>2013-04-22T13:55:46Z</time>
      </trkpt>
      <trkpt lat="42.68094" lon="1.45181">
        <ele>1579.1</ele>
        <time>2013-04-22T13:56:01Z</time>
      </trkpt>
      <trkpt lat="42.68087" lon="1.45183">
        <ele>1577.18</ele>
        <time>2013-04-22T13:56:10Z</time>
      </trkpt>
      <trkpt lat="42.68078" lon="1.45184">
        <ele>1575.26</ele>
        <time>2013-04-22T13:56:20Z</time>
      </trkpt>
      <trkpt lat="42.68069" lon="1.45189">
        <ele>1574.3</ele>
        <time>2013-04-22T13:56:31Z</time>
      </trkpt>
      <trkpt lat="42.68065" lon="1.45192">
        <ele>1572.37</ele>
        <time>2013-04-22T13:56:43Z</time>
      </trkpt>
      <trkpt lat="42.68063" lon="1.45193">
        <ele>1572.37</ele>
        <time>2013-04-22T13:56:49Z</time>
      </trkpt>
      <trkpt lat="42.68055" lon="1.45195">
        <ele>1569.49</ele>
        <time>2013-04-22T13:57:00Z</time>
      </trkpt>
      <trkpt lat="42.6805" lon="1.45196">
        <ele>1568.05</ele>
        <time>2013-04-22T13:57:05Z</time>
      </trkpt>
      <trkpt lat="42.68044" lon="1.45197">
        <ele>1567.57</ele>
        <time>2013-04-22T13:57:18Z</time>
      </trkpt>
      <trkpt lat="42.68033" lon="1.45198">
        <ele>1566.12</ele>
        <time>2013-04-22T13:57:30Z</time>
      </trkpt>
      <trkpt lat="42.68033" lon="1.45198">
        <ele>1565.64</ele>
        <time>2013-04-22T13:57:31Z</time>
      </trkpt>
      <trkpt lat="42.68028" lon="1.45201">
        <ele>1564.68</ele>
        <time>2013-04-22T13:57:37Z</time>
      </trkpt>
      <trkpt lat="42.6802" lon="1.45205">
        <ele>1565.16</ele>
        <time>2013-04-22T13:57:48Z</time>
      </trkpt>
      <trkpt lat="42.68013" lon="1.45209">
        <ele>1566.61</ele>
        <time>2013-04-22T13:57:59Z</time>
      </trkpt>
      <trkpt lat="42.68008" lon="1.4521">
        <ele>1569.97</ele>
        <time>2013-04-22T13:58:10Z</time>
      </trkpt>
      <trkpt lat="42.68006" lon="1.4521">
        <ele>1570.45</ele>
        <time>2013-04-22T13:58:14Z</time>
      </trkpt>
      <trkpt lat="42.67995" lon="1.45212">
        <ele>1569.01</ele>
        <time>2013-04-22T13:58:27Z</time>
      </trkpt>
      <trkpt lat="42.67992" lon="1.45212">
        <ele>1568.53</ele>
        <time>2013-04-22T13:58:30Z</time>
      </trkpt>
      <trkpt lat="42.67987" lon="1.45214">
        <ele>1569.01</ele>
        <time>2013-04-22T13:58:35Z</time>
      </trkpt>
      <trkpt lat="42.67975" lon="1.45213">
        <ele>1569.97</ele>
        <time>2013-04-22T13:58:47Z</time>
      </trkpt>
      <trkpt lat="42.67972" lon="1.45214">
        <ele>1569.49</ele>
        <time>2013-04-22T13:58:50Z</time>
      </trkpt>
      <trkpt lat="42.67969" lon="1.45217">
        <ele>1569.49</ele>
        <time>2013-04-22T13:58:55Z</time>
      </trkpt>
      <trkpt lat="42.67963" lon="1.45219">
        <ele>1569.01</ele>
        <time>2013-04-22T13:59:02Z</time>
      </trkpt>
      <trkpt lat="42.67956" lon="1.45217">
        <ele>1568.05</ele>
        <time>2013-04-22T13:59:10Z</time>
      </trkpt>
      <trkpt lat="42.67942" lon="1.45224">
        <ele>1567.57</ele>
        <time>2013-04-22T13:59:22Z</time>
      </trkpt>
      <trkpt lat="42.67941" lon="1.45224">
        <ele>1567.57</ele>
        <time>2013-04-22T13:59:23Z</time>
      </trkpt>
      <trkpt lat="42.67935" lon="1.45225">
        <ele>1567.09</ele>
        <time>2013-04-22T13:59:28Z</time>
      </trkpt>
      <trkpt lat="42.67919" lon="1.4523">
        <ele>1566.12</ele>
        <time>2013-04-22T13:59:42Z</time>
      </trkpt>
      <trkpt lat="42.67912" lon="1.4523">
        <ele>1565.16</ele>
        <time>2013-04-22T13:59:48Z</time>
      </trkpt>
      <trkpt lat="42.67905" lon="1.45231">
        <ele>1564.68</ele>
        <time>2013-04-22T13:59:54Z</time>
      </trkpt>
      <trkpt lat="42.6789" lon="1.45234">
        <ele>1563.72</ele>
        <time>2013-04-22T14:00:07Z</time>
      </trkpt>
      <trkpt lat="42.67882" lon="1.45236">
        <ele>1563.24</ele>
        <time>2013-04-22T14:00:14Z</time>
      </trkpt>
      <trkpt lat="42.67865" lon="1.45236">
        <ele>1565.64</ele>
        <time>2013-04-22T14:00:28Z</time>
      </trkpt>
      <trkpt lat="42.67864" lon="1.45236">
        <ele>1565.64</ele>
        <time>2013-04-22T14:00:29Z</time>
      </trkpt>
      <trkpt lat="42.67859" lon="1.45236">
        <ele>1566.12</ele>
        <time>2013-04-22T14:00:33Z</time>
      </trkpt>
      <trkpt lat="42.67856" lon="1.45235">
        <ele>1566.12</ele>
        <time>2013-04-22T14:00:35Z</time>
      </trkpt>
      <trkpt lat="42.67848" lon="1.45235">
        <ele>1566.12</ele>
        <time>2013-04-22T14:00:41Z</time>
      </trkpt>
      <trkpt lat="42.67831" lon="1.45239">
        <ele>1567.09</ele>
        <time>2013-04-22T14:00:56Z</time>
      </trkpt>
      <trkpt lat="42.67824" lon="1.45244">
        <ele>1569.01</ele>
        <time>2013-04-22T14:01:03Z</time>
      </trkpt>
      <trkpt lat="42.67821" lon="1.45247">
        <ele>1569.97</ele>
        <time>2013-04-22T14:01:06Z</time>
      </trkpt>
      <trkpt lat="42.67815" lon="1.45253">
        <ele>1569.01</ele>
        <time>2013-04-22T14:01:14Z</time>
      </trkpt>
      <trkpt lat="42.67813" lon="1.45256">
        <ele>1569.01</ele>
        <time>2013-04-22T14:01:17Z</time>
      </trkpt>
      <trkpt lat="42.67802" lon="1.45265">
        <ele>1567.57</ele>
        <time>2013-04-22T14:01:28Z</time>
      </trkpt>
      <trkpt lat="42.678" lon="1.45255">
        <ele>1566.61</ele>
        <time>2013-04-22T14:01:41Z</time>
      </trkpt>
      <trkpt lat="42.67801" lon="1.45255">
        <ele>1566.61</ele>
        <time>2013-04-22T14:01:54Z</time>
      </trkpt>
      <trkpt lat="42.67798" lon="1.45256">
        <ele>1565.16</ele>
        <time>2013-04-22T14:02:05Z</time>
      </trkpt>
      <trkpt lat="42.67798" lon="1.45255">
        <ele>1566.61</ele>
        <time>2013-04-22T14:02:25Z</time>
      </trkpt>
      <trkpt lat="42.678" lon="1.45253">
        <ele>1569.49</ele>
        <time>2013-04-22T14:03:00Z</time>
      </trkpt>
      <trkpt lat="42.678" lon="1.45251">
        <ele>1568.53</ele>
        <time>2013-04-22T14:03:30Z</time>
      </trkpt>
      <trkpt lat="42.67799" lon="1.45248">
        <ele>1567.57</ele>
        <time>2013-04-22T14:03:49Z</time>
      </trkpt>
      <trkpt lat="42.67799" lon="1.45252">
        <ele>1567.09</ele>
        <time>2013-04-22T14:04:03Z</time>
      </trkpt>
      <trkpt lat="42.67799" lon="1.45258">
        <ele>1566.61</ele>
        <time>2013-04-22T14:04:35Z</time>
      </trkpt>
      <trkpt lat="42.678" lon="1.45257">
        <ele>1569.49</ele>
        <time>2013-04-22T14:05:05Z</time>
      </trkpt>
      <trkpt lat="42.678" lon="1.45252">
        <ele>1569.01</ele>
        <time>2013-04-22T14:05:34Z</time>
      </trkpt>
      <trkpt lat="42.67801" lon="1.45254">
        <ele>1570.93</ele>
        <time>2013-04-22T14:06:12Z</time>
      </trkpt>
      <trkpt lat="42.67801" lon="1.45258">
        <ele>1570.45</ele>
        <time>2013-04-22T14:06:46Z</time>
      </trkpt>
      <trkpt lat="42.678" lon="1.45255">
        <ele>1569.97</ele>
        <time>2013-04-22T14:07:24Z</time>
      </trkpt>
      <trkpt lat="42.67799" lon="1.45254">
        <ele>1572.85</ele>
        <time>2013-04-22T14:08:00Z</time>
      </trkpt>
      <trkpt lat="42.67798" lon="1.45258">
        <ele>1569.97</ele>
        <time>2013-04-22T14:08:34Z</time>
      </trkpt>
      <trkpt lat="42.67795" lon="1.45256">
        <ele>1562.76</ele>
        <time>2013-04-22T14:09:07Z</time>
      </trkpt>
      <trkpt lat="42.67795" lon="1.45255">
        <ele>1569.01</ele>
        <time>2013-04-22T14:09:42Z</time>
      </trkpt>
      <trkpt lat="42.67797" lon="1.45256">
        <ele>1560.84</ele>
        <time>2013-04-22T14:10:16Z</time>
      </trkpt>
      <trkpt lat="42.67799" lon="1.45254">
        <ele>1557.47</ele>
        <time>2013-04-22T14:10:45Z</time>
      </trkpt>
      <trkpt lat="42.67801" lon="1.45252">
        <ele>1571.41</ele>
        <time>2013-04-22T14:11:24Z</time>
      </trkpt>
      <trkpt lat="42.67801" lon="1.45254">
        <ele>1569.97</ele>
        <time>2013-04-22T14:11:53Z</time>
      </trkpt>
      <trkpt lat="42.678" lon="1.45254">
        <ele>1568.53</ele>
        <time>2013-04-22T14:12:24Z</time>
      </trkpt>
      <trkpt lat="42.67802" lon="1.45253">
        <ele>1574.78</ele>
        <time>2013-04-22T14:12:52Z</time>
      </trkpt>
      <trkpt lat="42.67801" lon="1.45254">
        <ele>1573.33</ele>
        <time>2013-04-22T14:13:30Z</time>
      </trkpt>
      <trkpt lat="42.67802" lon="1.45252">
        <ele>1576.7</ele>
        <time>2013-04-22T14:14:07Z</time>
      </trkpt>
      <trkpt lat="42.67801" lon="1.45258">
        <ele>1570.45</ele>
        <time>2013-04-22T14:14:39Z</time>
      </trkpt>
      <trkpt lat="42.67799" lon="1.45255">
        <ele>1573.33</ele>
        <time>2013-04-22T14:15:05Z</time>
      </trkpt>
      <trkpt lat="42.678" lon="1.45259">
        <ele>1573.82</ele>
        <time>2013-04-22T14:15:32Z</time>
      </trkpt>
      <trkpt lat="42.67797" lon="1.45256">
        <ele>1574.78</ele>
        <time>2013-04-22T14:15:54Z</time>
      </trkpt>
      <trkpt lat="42.67794" lon="1.45252">
        <ele>1572.85</ele>
        <time>2013-04-22T14:16:09Z</time>
      </trkpt>
    </trkseg>
  </trk>
</gpx>